GFSSW_925_thetae_000.txt.gz
Theta_e
307 304 303 302 303 303 303 303 304 305 307 308 309 309 310 311 313 324 327 324 322 320 342 341 342 344 344 344 344 345 346 343 344 346 347 347 348 350 349 353 351 350 349 348 347
311 306 303 303 303 303 302 303 304 304 306 307 308 309 309 311 321 324 324 323 321 321 338 338 338 344 341 336 339 345 347 343 341 344 347 347 347 352 353 353 352 353 348 347 347
311 310 304 302 302 303 303 303 303 304 305 307 307 308 309 313 327 324 323 321 319 323 330 332 330 337 331 329 333 339 345 343 342 342 346 347 348 350 349 353 350 354 352 348 348
307 304 303 302 302 302 302 302 303 304 305 306 307 308 309 324 322 322 323 320 319 333 328 329 327 329 325 328 331 337 338 339 342 343 346 348 348 349 348 346 346 349 350 350 350
304 302 302 302 302 302 302 302 302 303 305 305 306 308 321 326 323 324 320 321 324 332 324 326 324 326 326 329 331 333 334 335 337 342 344 347 349 349 349 347 347 349 351 351 351
308 305 301 301 302 302 302 302 303 303 305 306 311 311 325 322 321 324 330 333 330 327 324 324 324 325 327 329 331 333 333 334 335 341 345 349 350 350 349 346 351 352 353 351 351
309 306 301 301 301 301 302 302 303 304 305 308 318 319 325 323 321 321 322 325 329 327 326 323 324 325 326 329 331 332 336 342 341 344 348 348 353 352 350 350 354 354 353 352 351
303 300 299 300 300 301 302 303 304 307 312 319 319 325 326 324 324 324 325 325 325 329 326 325 323 325 326 331 331 334 337 342 345 346 348 349 348 351 351 353 356 355 354 353 352
302 299 298 299 300 300 302 304 309 318 319 319 325 327 327 325 327 327 327 325 324 325 324 323 324 326 327 331 334 336 340 340 349 347 351 351 347 350 351 353 355 355 354 353 353
306 299 298 298 299 301 302 307 316 320 322 323 326 331 329 326 328 325 328 323 324 326 325 324 325 326 328 331 336 339 339 340 342 349 351 352 348 352 352 353 353 356 354 353 353
301 299 298 298 299 301 306 313 322 326 325 326 324 327 324 324 323 325 326 322 323 326 323 323 323 325 328 331 334 336 339 340 340 347 350 349 348 349 354 353 353 355 356 354 352
299 299 298 299 299 304 307 311 314 311 314 316 317 318 319 320 321 322 324 327 324 325 324 323 323 325 326 329 332 336 338 339 341 347 349 347 349 349 350 355 353 353 355 356 354
299 299 298 299 300 310 308 311 310 309 315 318 318 318 320 319 321 323 324 326 326 324 324 324 323 324 325 327 331 335 338 339 343 347 348 347 350 348 347 352 353 351 351 354 355
300 300 299 298 307 307 312 310 310 309 318 321 321 323 323 324 325 324 323 325 325 325 325 323 324 323 323 326 331 335 335 337 341 346 350 348 349 344 346 352 353 354 352 351 355
301 299 299 302 305 310 310 308 308 312 323 323 324 324 326 327 326 325 323 324 325 325 326 324 322 322 323 325 328 333 334 336 337 344 346 349 350 344 346 347 351 354 353 351 349
303 301 300 306 308 307 307 309 313 322 322 322 325 325 326 326 326 325 324 324 324 325 326 326 324 323 323 324 327 331 333 335 337 339 346 346 346 342 342 345 343 348 352 352 349
303 302 301 305 308 308 309 311 317 320 321 321 323 325 324 323 325 326 325 325 326 328 327 325 324 323 323 324 325 329 335 339 341 341 343 343 345 342 338 338 340 338 345 352 350
303 302 307 307 307 307 308 310 317 319 320 322 323 324 325 324 324 325 326 325 324 326 327 327 325 324 323 323 327 329 333 337 342 339 339 339 342 340 338 337 337 337 341 349 351
303 305 306 309 309 309 312 310 315 317 319 319 320 322 324 324 322 324 325 326 325 326 328 328 327 325 324 324 325 330 333 333 336 336 336 335 338 337 337 339 339 340 343 346 350
304 305 306 308 312 312 312 311 314 314 317 320 321 322 322 322 322 324 324 325 325 326 328 328 329 327 325 324 325 327 330 333 335 344 340 337 337 339 339 337 335 339 344 346 349
306 307 310 314 314 316 314 312 312 313 314 317 318 320 321 322 323 323 324 325 325 326 328 328 328 326 326 324 325 326 329 332 334 335 338 339 337 336 336 337 336 335 344 344 348
305 307 308 312 315 314 314 314 311 313 313 313 315 316 318 321 322 323 323 324 325 326 329 330 330 329 324 325 324 326 329 332 335 340 336 336 335 333 335 335 334 335 335 336 345
307 306 306 308 309 310 313 313 313 313 313 313 313 315 317 318 321 321 321 321 322 325 328 329 330 332 330 324 324 324 326 329 332 334 343 337 336 333 334 334 335 341 341 341 347
307 306 308 312 310 313 314 315 314 313 314 314 315 316 315 317 319 320 322 321 323 324 339 332 328 330 330 329 326 325 324 326 328 334 335 335 335 334 332 334 333 336 341 344 349
306 307 309 308 314 315 316 315 314 313 314 316 316 318 318 318 319 321 322 324 325 330 331 337 338 333 329 328 328 327 325 324 326 327 333 333 333 334 334 333 333 333 336 343 350
306 308 309 308 308 309 309 312 314 313 315 317 318 317 317 319 320 320 320 322 322 326 327 330 338 336 335 331 330 329 327 325 325 325 327 329 331 332 333 333 333 333 334 343 351
304 304 304 305 304 306 308 309 310 313 313 314 316 317 318 320 321 322 323 325 326 327 329 333 336 341 339 334 333 333 331 328 326 325 326 328 329 330 330 332 335 335 340 344 349

GFSSW_925_thetae_003.txt.gz
Theta_e
307 304 303 303 303 303 303 303 304 305 306 307 308 308 309 310 311 325 331 326 326 323 329 341 343 339 341 342 343 340 347 345 344 348 341 340 341 343 346 348 348 349 352 352 352
309 305 303 303 303 303 303 303 303 304 305 307 308 308 309 309 321 325 323 324 323 322 334 337 337 339 341 341 342 343 351 345 341 346 343 341 340 344 346 348 349 350 351 351 352
311 308 303 303 303 303 303 303 303 304 304 306 307 308 308 311 327 327 322 321 322 322 328 332 333 337 339 338 337 339 350 345 342 342 343 342 342 342 345 348 349 351 351 351 352
310 310 306 302 302 302 302 302 303 304 304 305 306 307 308 323 326 328 320 321 321 330 330 330 332 333 337 334 334 338 343 342 342 341 344 342 342 342 342 344 345 348 348 350 352
309 304 301 300 301 301 301 301 302 304 305 305 306 307 319 327 326 328 322 320 328 328 332 329 330 330 334 333 335 336 339 338 338 341 342 344 343 341 341 342 344 348 348 349 351
307 301 299 299 300 300 301 301 302 303 305 305 306 309 325 326 323 326 325 329 328 328 327 327 329 329 330 332 335 336 337 337 337 339 342 345 344 344 342 343 346 350 349 349 350
304 300 299 298 299 300 301 301 302 303 305 306 308 319 325 326 323 323 327 326 327 327 328 325 326 327 328 330 333 335 335 338 338 339 342 343 345 343 343 346 348 350 351 349 349
301 300 299 298 298 299 300 302 303 305 310 313 318 323 326 325 326 324 323 324 325 326 326 326 324 327 328 331 333 334 336 339 341 339 340 343 347 346 345 346 347 350 351 350 349
301 300 299 299 299 299 300 302 306 313 318 319 326 329 327 326 327 325 326 327 326 325 327 326 327 326 327 329 333 336 337 339 342 340 344 344 348 348 348 345 347 349 351 351 351
302 299 299 299 300 300 302 309 314 321 323 324 327 331 327 329 327 327 327 326 325 327 326 325 326 326 327 331 335 338 338 340 346 341 345 345 348 349 349 348 344 347 348 351 351
302 300 299 299 300 300 306 316 325 330 328 328 329 327 327 326 328 326 327 325 325 327 326 325 325 326 329 332 334 337 339 339 340 340 344 346 346 348 349 349 348 346 347 349 350
303 302 299 299 300 304 310 316 317 314 316 319 322 323 323 323 324 326 326 326 324 327 326 325 325 327 329 331 333 335 338 340 340 340 342 344 347 346 353 351 349 348 347 347 349
304 304 302 300 301 312 310 313 313 313 317 319 322 322 322 322 322 323 324 326 325 325 327 325 325 326 329 332 333 335 337 339 340 346 346 345 347 346 346 352 351 348 348 347 347
305 304 303 300 308 309 314 313 312 312 319 322 322 322 323 324 322 324 326 324 327 326 325 326 326 326 327 330 332 334 335 337 339 344 349 342 349 347 345 347 352 351 350 348 348
304 304 303 302 306 311 312 311 311 314 323 325 325 325 327 327 329 327 326 325 326 326 326 325 325 326 326 328 331 332 334 337 338 343 350 343 344 347 344 346 348 352 351 349 348
304 304 303 307 309 311 310 310 313 319 324 325 326 326 328 327 326 328 326 326 326 326 326 326 327 325 326 327 329 331 333 336 337 340 344 345 346 349 346 345 345 347 351 351 350
304 303 303 306 310 311 310 313 317 321 324 325 325 326 326 326 327 327 326 326 326 326 328 327 326 327 326 326 328 330 333 337 339 340 341 341 346 353 346 342 343 342 344 350 352
303 304 307 309 310 309 309 313 318 322 322 325 324 326 326 326 326 327 327 326 326 327 327 328 328 327 326 326 327 330 332 335 341 341 340 339 343 343 343 341 339 340 339 343 350
304 307 308 310 310 310 312 313 317 320 323 323 324 325 326 326 326 325 327 328 327 326 328 329 329 327 327 326 326 328 332 333 336 338 339 339 339 339 341 341 339 339 338 338 347
306 309 310 310 312 313 314 314 317 318 320 320 322 324 326 326 326 325 327 327 328 327 327 328 330 328 326 326 325 326 329 333 337 343 342 339 339 340 341 339 338 339 338 339 342
308 310 312 311 314 316 315 315 315 316 317 318 320 323 323 324 325 326 326 326 326 327 328 327 329 330 329 327 326 325 327 331 334 336 338 340 340 338 340 340 338 338 337 338 342
308 312 311 312 317 316 318 317 315 317 317 316 316 319 322 323 324 325 326 326 327 327 328 328 329 332 330 329 327 326 327 328 336 341 336 339 338 337 336 337 337 338 337 338 342
309 311 309 309 310 312 313 315 316 317 317 317 316 316 318 320 322 324 325 325 326 327 329 329 330 332 333 330 328 327 327 327 329 335 343 339 338 336 336 336 337 337 337 338 340
309 311 311 311 311 311 311 313 314 315 315 316 316 317 316 317 320 321 323 324 325 324 332 331 331 332 334 333 328 327 326 326 328 332 334 335 337 338 337 336 335 336 336 338 339
308 309 310 312 312 312 313 316 315 317 316 316 316 316 317 318 317 319 321 324 324 327 327 330 333 332 331 331 331 328 325 325 326 328 332 333 335 336 338 337 336 335 335 336 337
309 309 309 309 310 309 309 311 310 311 313 314 315 316 317 318 320 319 320 323 325 325 328 330 336 334 332 330 329 329 329 326 326 326 327 329 331 333 335 337 336 335 335 335 336
305 306 308 307 308 308 308 309 310 309 309 312 315 316 319 319 319 320 322 323 324 327 330 333 336 340 340 335 334 333 330 329 329 328 327 327 329 330 333 336 338 336 335 337 339

GFSSW_925_thetae_006.txt.gz
Theta_e
312 309 305 304 303 303 303 303 303 304 305 306 306 307 308 308 310 323 329 325 327 325 325 342 342 342 339 339 342 344 344 349 346 343 339 340 340 345 348 348 353 352 351 352 352
311 309 303 302 302 303 303 303 303 304 305 307 306 307 308 308 317 323 323 324 326 325 327 331 339 340 338 339 342 343 348 347 345 344 341 340 340 342 344 347 349 352 351 350 353
310 306 301 300 301 301 302 301 302 303 305 306 307 307 307 308 325 326 325 323 323 324 323 327 333 337 337 339 340 343 346 344 345 343 342 340 340 339 344 345 347 355 353 351 352
306 301 300 300 300 300 301 301 301 302 304 306 306 307 307 319 325 327 321 321 321 324 325 326 331 334 336 339 339 340 342 343 343 341 343 340 340 340 342 344 346 351 352 351 352
308 303 300 300 299 300 300 300 301 302 304 305 306 306 315 324 328 325 321 321 324 327 327 330 331 334 334 336 337 335 341 341 339 340 341 341 342 341 340 343 345 347 351 352 351
304 301 300 300 300 300 300 300 301 302 304 305 306 307 323 321 324 325 326 328 327 325 327 331 330 332 333 334 335 335 336 338 337 338 340 344 342 340 340 341 345 347 349 351 351
303 303 300 299 299 300 300 301 302 303 304 305 308 317 321 320 325 325 325 328 326 328 326 328 329 330 332 332 333 334 336 336 336 337 340 341 344 343 341 340 345 347 347 349 350
302 301 300 299 299 299 300 302 303 304 306 312 315 324 322 320 324 325 325 326 326 328 327 327 327 328 330 330 331 332 334 337 337 338 339 341 346 341 342 341 343 347 347 348 348
304 303 300 299 300 300 301 303 305 309 315 319 324 327 326 325 326 327 326 325 325 325 327 327 327 326 327 329 330 332 335 336 337 339 339 340 348 345 344 343 343 345 347 347 349
304 304 303 300 300 300 302 306 312 314 324 324 325 330 330 328 328 326 325 325 327 327 326 328 327 328 326 329 331 333 335 337 338 341 339 340 350 345 345 343 344 343 346 349 347
303 304 304 302 300 300 304 316 324 328 327 330 330 325 326 328 326 328 328 328 327 326 327 328 327 328 330 329 331 332 337 337 338 343 340 346 353 349 344 347 343 346 345 348 349
303 304 304 302 301 302 307 319 317 316 316 318 322 327 328 328 328 329 327 328 326 326 327 326 326 326 329 331 331 333 335 338 339 342 343 343 353 348 351 349 347 344 345 345 345
304 304 304 302 302 312 315 312 315 315 316 318 319 320 324 328 327 326 327 328 325 325 328 326 326 326 328 330 332 333 334 337 338 341 341 340 343 349 350 347 346 346 344 344 346
302 303 304 303 311 309 312 315 313 314 316 320 323 322 322 323 323 324 325 327 327 326 325 327 327 326 326 329 332 333 333 335 336 342 345 343 345 351 347 352 348 347 346 345 346
303 303 304 302 306 311 313 313 312 314 322 327 325 325 324 323 325 324 324 324 324 325 327 325 327 326 325 327 330 333 334 334 335 338 346 348 348 348 350 352 353 350 348 347 347
303 303 303 306 308 311 312 312 313 318 322 326 326 325 324 324 327 328 324 325 326 324 327 327 327 327 326 327 328 331 333 333 334 337 342 344 346 346 349 348 346 350 350 349 349
303 304 304 306 309 310 311 313 316 320 325 326 327 327 328 327 325 328 327 327 326 325 327 327 327 327 327 326 327 328 331 337 337 339 341 340 347 350 349 347 346 345 349 351 351
304 304 308 309 311 312 311 313 318 322 322 327 327 327 327 329 328 327 328 328 326 326 327 328 328 327 327 326 327 327 329 336 340 340 339 340 342 345 348 346 345 346 347 349 351
304 308 309 310 312 312 314 312 318 321 324 325 326 326 327 327 327 327 328 328 326 326 329 327 328 329 327 328 326 327 328 330 333 335 338 338 339 338 341 346 344 342 343 344 350
305 308 313 313 312 312 314 315 316 318 321 323 324 325 326 328 327 328 328 329 328 327 327 328 329 329 329 328 327 327 328 328 331 339 342 339 342 344 344 347 347 346 344 341 342
307 312 311 312 313 316 316 315 316 316 317 317 319 321 324 326 328 328 327 328 328 329 328 327 329 329 330 329 328 326 327 328 330 334 339 343 342 343 349 349 348 345 342 341 341
308 311 312 314 316 317 318 317 315 317 318 319 319 319 320 321 326 327 328 328 328 328 328 329 328 331 329 330 328 328 328 327 329 338 335 337 340 338 344 344 341 342 341 341 341
308 309 308 309 313 313 314 315 317 318 319 320 319 319 319 319 323 323 326 327 328 327 328 329 330 333 329 330 331 329 327 327 326 329 337 338 338 337 339 341 344 342 342 344 343
308 309 310 311 311 312 312 313 313 314 316 317 319 320 320 320 320 321 322 324 326 327 336 329 329 334 333 333 331 332 329 328 328 328 331 333 339 338 342 342 342 343 343 343 347
307 309 309 311 312 312 314 315 315 316 315 317 318 318 319 320 319 319 319 320 324 328 329 328 333 332 330 329 331 331 329 328 329 330 332 331 333 340 340 343 341 341 343 344 346
307 308 310 310 309 309 308 311 311 314 314 313 316 316 317 319 320 321 320 323 324 325 326 326 333 332 333 331 331 332 331 329 328 329 330 330 331 333 337 337 344 341 342 344 344
304 305 308 308 308 308 307 307 310 310 311 312 311 313 316 317 317 317 317 319 322 325 330 330 329 337 336 332 332 333 333 331 330 327 328 329 331 333 334 338 341 346 342 343 343

GFSSW_925_thetae_009.txt.gz
Theta_e
311 306 301 300 301 301 302 302 302 303 304 304 305 307 307 307 308 316 324 321 322 321 324 330 342 341 346 347 344 347 352 356 351 346 339 339 350 351 350 354 353 352 351 351 350
307 303 301 300 300 300 301 301 301 302 303 304 304 306 307 307 313 319 316 317 322 326 328 327 332 340 339 340 337 340 348 349 345 344 339 340 350 350 354 355 355 354 351 351 352
302 301 301 300 300 300 301 301 301 301 302 303 304 305 306 308 324 322 325 324 321 323 326 325 325 331 338 337 335 338 343 343 343 343 339 338 339 342 350 355 353 355 354 352 352
302 300 300 300 300 300 300 300 300 301 302 303 303 305 306 317 319 326 322 323 322 323 327 324 322 324 330 334 335 338 340 341 342 343 340 338 336 343 343 351 351 352 353 353 352
303 301 300 300 300 300 300 300 300 301 302 303 303 304 310 323 323 320 322 320 321 323 327 325 323 325 329 332 333 336 338 340 341 342 339 339 339 343 343 351 351 350 351 353 352
304 303 301 300 300 300 300 300 300 301 302 303 304 308 321 319 316 321 323 321 325 326 325 325 325 327 330 332 332 333 335 339 339 336 341 341 339 340 346 352 353 352 350 350 353
303 303 303 302 301 300 300 301 302 302 303 304 308 318 322 317 319 326 324 327 327 326 322 325 327 328 328 330 331 331 331 332 334 335 338 342 343 341 344 347 353 353 351 350 349
304 303 302 301 301 300 300 301 302 304 305 309 317 322 323 316 318 319 322 323 327 326 327 324 326 326 325 327 329 329 327 329 332 334 335 339 347 344 339 346 350 351 352 351 350
304 303 303 302 301 301 301 302 304 309 311 318 321 325 327 324 322 320 322 325 326 326 327 327 325 324 324 324 325 325 327 328 331 334 338 339 342 340 336 344 346 348 348 350 350
304 303 303 303 302 302 302 304 313 314 323 323 324 328 328 327 326 325 324 326 323 323 324 324 324 323 323 321 325 326 328 328 331 336 338 341 341 343 340 339 346 345 345 347 348
304 303 302 302 302 303 304 308 318 320 325 329 326 325 322 324 326 326 326 324 323 322 323 322 324 324 323 322 324 327 328 330 332 337 339 346 347 345 338 340 340 346 345 345 346
304 303 303 303 303 305 310 314 317 312 314 315 316 322 325 327 328 326 326 324 324 325 323 322 325 325 326 326 325 326 328 329 331 338 338 347 348 344 341 338 339 342 345 345 345
304 304 303 303 305 313 307 310 313 314 312 313 315 316 317 322 328 328 325 326 325 324 324 323 326 327 326 326 328 327 328 329 331 337 340 347 351 348 340 342 341 342 342 345 345
304 304 303 303 310 306 310 313 313 312 311 316 317 318 317 318 322 326 327 326 326 324 323 324 325 325 325 324 326 328 329 330 331 333 339 343 350 350 345 352 350 346 342 343 345
304 304 304 303 306 309 311 311 312 313 318 323 322 321 318 317 322 325 327 325 325 327 322 322 326 326 325 323 324 329 330 330 331 332 340 342 342 343 347 350 347 345 342 341 342
305 304 303 305 306 307 308 310 312 315 319 322 323 321 319 318 320 322 325 323 323 325 324 325 324 323 325 325 324 325 329 330 330 331 333 339 341 343 345 350 348 346 344 342 341
304 304 303 306 307 308 309 312 313 316 322 325 323 323 321 320 320 320 321 321 320 320 321 321 323 325 324 324 323 323 323 328 330 332 332 330 340 343 343 342 345 346 344 344 342
304 303 305 308 310 310 311 312 315 320 319 322 322 324 323 323 321 321 322 321 320 320 321 322 322 324 325 323 323 322 323 326 330 333 332 330 335 336 341 343 345 346 346 345 344
303 305 306 307 309 311 313 316 315 317 319 321 318 323 325 326 326 323 324 322 321 321 323 322 323 326 326 325 324 323 322 323 323 328 331 332 331 332 340 341 343 343 344 345 344
305 306 309 309 313 312 314 315 314 315 315 315 316 318 318 320 324 327 324 326 326 325 324 323 326 325 327 325 324 323 324 323 323 325 330 331 333 336 336 343 344 343 342 342 342
306 309 308 309 311 313 315 314 314 314 315 316 317 317 318 318 318 319 325 327 326 327 324 323 323 324 326 325 324 324 322 321 321 324 327 332 333 331 334 342 344 342 341 340 343
306 308 307 307 309 313 314 315 314 316 317 317 317 317 318 318 319 318 319 321 327 327 326 324 323 324 324 325 326 324 323 320 323 323 326 325 328 332 331 341 343 341 341 337 338
306 306 306 308 309 312 313 314 314 314 314 315 317 318 319 319 320 320 320 320 321 322 326 326 325 325 326 325 325 325 324 322 322 321 324 330 329 328 328 335 337 338 340 338 338
306 307 307 308 309 310 312 312 314 313 314 314 315 317 318 319 318 320 320 321 320 320 337 330 324 326 327 327 325 328 326 325 322 322 322 323 323 325 331 337 337 339 337 339 338
307 307 306 308 310 308 310 311 311 311 311 311 314 315 315 319 318 320 320 319 320 323 323 321 326 325 326 328 327 326 328 326 325 323 323 323 323 324 326 338 338 338 339 339 341
306 307 306 305 306 307 308 308 308 308 310 310 312 314 313 317 317 319 317 317 318 318 317 318 326 329 330 329 327 327 328 329 325 325 325 325 325 326 325 326 342 338 335 334 344
304 305 305 306 305 306 308 308 309 309 309 310 311 311 313 313 313 314 313 313 315 318 318 319 324 331 328 330 330 329 327 328 329 326 326 325 325 325 326 327 336 337 338 332 336

GFSSW_925_thetae_012.txt.gz
Theta_e
303 301 301 301 300 300 301 301 301 301 301 302 303 305 306 306 307 312 320 315 317 318 322 340 341 344 352 354 348 346 350 351 349 349 348 352 354 352 351 353 351 351 350 348 348
304 301 301 301 300 300 300 300 300 300 301 302 302 304 305 306 312 319 318 317 316 319 324 329 342 340 339 342 348 347 347 348 345 344 346 352 353 354 354 354 354 352 349 348 350
306 302 301 300 300 300 300 300 300 300 301 301 302 304 305 308 321 319 323 324 318 318 326 327 326 334 340 338 337 336 341 342 345 344 347 352 354 353 354 357 353 355 352 350 350
305 303 302 301 301 300 300 300 300 301 301 301 302 304 305 316 313 322 322 323 318 319 323 326 323 321 323 326 329 334 335 339 342 341 342 350 351 356 354 353 351 351 350 350 350
305 304 303 302 301 301 301 301 301 301 301 302 302 304 311 320 319 317 320 322 322 321 329 326 322 320 323 324 329 331 332 335 340 341 338 337 349 355 353 352 351 351 351 352 350
305 305 304 304 303 302 302 302 301 301 302 302 305 310 317 311 314 316 317 319 321 328 329 324 323 321 322 326 328 331 331 331 338 339 339 337 342 347 352 352 353 352 353 352 351
304 304 304 304 303 303 303 303 303 303 303 305 309 316 320 311 316 323 325 322 322 324 322 324 324 323 324 326 328 330 329 328 328 336 339 339 347 355 352 352 354 354 353 352 351
305 305 303 303 303 303 303 304 304 304 307 308 314 320 319 313 316 315 316 318 323 326 326 324 324 322 325 325 325 325 325 326 327 330 339 338 347 355 352 353 356 355 355 354 351
304 304 304 303 303 303 303 305 306 312 312 316 319 322 322 322 323 320 316 319 324 322 325 325 321 321 323 323 321 321 324 325 325 328 341 340 342 346 352 352 353 352 354 353 352
304 304 304 304 303 304 304 307 315 318 322 321 323 321 319 322 327 323 321 319 321 322 322 325 321 321 319 319 322 323 324 324 325 327 337 339 340 341 353 353 354 352 351 350 352
304 304 304 304 304 304 308 311 311 312 322 324 322 323 321 322 325 324 323 320 322 320 321 320 320 324 321 320 321 322 323 324 326 327 339 339 339 340 348 352 353 353 352 351 350
305 305 305 304 304 308 308 311 314 312 309 312 314 318 320 321 324 326 324 322 321 321 319 320 321 320 322 321 322 322 323 324 325 327 337 340 341 341 344 346 349 349 350 350 350
305 305 305 304 304 310 305 308 310 310 307 310 313 314 314 316 320 323 322 321 321 320 321 320 321 322 324 324 323 322 322 323 325 327 336 343 345 343 340 341 343 345 345 347 348
305 305 304 303 305 305 308 309 310 310 308 311 312 313 314 315 317 320 325 322 323 322 322 321 321 323 323 325 323 322 324 324 326 327 329 342 344 348 343 341 339 344 344 344 345
304 304 304 303 305 307 307 308 309 309 318 320 317 316 313 315 318 319 322 323 324 323 321 322 322 322 325 325 324 323 324 326 327 327 328 333 341 342 345 344 346 342 342 344 343
304 304 303 304 304 306 307 309 310 311 316 318 319 316 314 315 317 321 323 323 322 323 323 321 321 323 324 324 324 323 322 324 326 326 329 334 341 337 346 345 344 344 342 342 344
303 303 303 304 306 306 309 308 308 313 316 322 318 316 315 315 316 318 325 325 325 320 324 324 324 322 321 321 321 320 318 321 325 327 329 326 335 337 340 344 343 345 341 341 342
303 303 303 305 304 306 310 307 312 315 314 315 314 316 317 316 316 317 317 326 323 317 317 322 323 320 321 322 320 318 319 321 323 326 327 326 330 333 337 342 344 343 342 341 340
303 304 305 306 307 306 307 312 310 312 314 314 314 315 315 317 315 316 316 317 322 320 317 316 319 320 321 321 322 322 317 319 318 323 325 327 328 327 329 337 343 344 342 342 340
305 305 305 306 308 309 308 312 311 312 313 314 314 314 316 316 316 316 315 318 319 320 319 317 319 319 321 320 321 320 319 320 315 321 323 324 327 331 329 331 336 341 343 343 341
305 302 305 306 304 307 311 310 312 311 313 314 315 316 316 316 316 317 317 317 318 319 319 318 318 321 320 320 322 322 320 317 317 318 322 322 324 324 327 328 333 342 344 343 343
303 303 304 304 302 304 311 310 311 312 312 313 314 315 316 316 317 317 318 317 319 319 318 318 318 320 322 320 322 323 322 317 321 319 319 322 324 328 326 326 333 338 341 345 344
302 301 305 305 304 306 308 310 311 312 310 312 312 313 314 316 317 317 317 319 317 318 322 321 322 323 320 319 319 321 322 321 314 315 320 323 322 322 322 323 336 338 337 338 336
301 304 299 301 305 305 307 310 310 310 310 310 310 313 313 313 314 316 318 318 316 318 321 315 318 319 324 323 321 321 323 321 320 322 321 321 323 323 323 328 328 334 338 337 338
300 302 302 303 305 305 305 306 309 310 308 308 310 310 313 313 315 317 316 316 314 318 314 314 316 319 321 323 323 324 323 323 321 321 321 322 318 319 319 320 323 326 334 335 338
304 305 303 302 301 302 304 306 309 309 308 308 309 310 309 313 313 315 313 314 313 313 312 312 316 318 323 324 324 325 325 325 324 323 322 319 319 317 319 320 325 330 335 335 335
304 304 304 304 302 302 303 305 305 306 308 308 308 309 310 311 310 311 311 312 312 313 313 314 314 317 321 323 325 326 326 325 324 323 323 321 320 319 321 322 323 325 327 332 335

GFSSW_925_thetae_015.txt.gz
Theta_e
311 308 305 303 302 301 301 300 301 301 300 301 302 303 304 305 307 311 314 315 315 325 338 353 353 354 351 356 346 347 350 351 347 348 350 352 356 352 351 353 350 349 349 347 348
311 310 308 306 305 303 302 301 301 301 301 301 302 303 304 305 312 317 317 316 315 322 344 354 353 351 354 355 352 350 348 348 342 343 352 353 353 354 354 354 353 351 348 348 348
310 310 308 308 308 306 303 302 301 301 301 301 302 302 303 308 317 312 319 322 317 317 329 340 340 342 340 338 354 351 355 346 343 341 350 352 353 352 355 355 352 352 350 348 349
309 307 307 307 308 307 307 305 303 302 302 302 302 302 306 314 312 319 321 322 319 321 326 327 323 325 329 341 342 338 344 348 341 336 351 353 351 353 352 351 349 348 348 348 350
305 304 305 304 304 305 305 303 303 303 303 302 305 303 312 318 314 317 318 321 317 323 327 323 321 321 320 321 325 337 336 332 333 336 348 350 354 354 352 350 348 348 348 349 349
305 304 304 304 304 304 304 303 304 304 304 304 309 309 314 306 314 315 314 320 321 327 327 323 321 319 320 321 324 327 328 329 329 328 348 353 354 353 351 350 351 350 350 349 349
305 305 304 304 304 304 304 304 305 306 305 308 312 313 319 308 315 323 320 317 323 322 323 325 323 320 319 322 325 327 329 325 326 327 344 348 354 357 351 352 352 351 351 350 349
305 305 305 305 305 305 304 305 306 307 311 312 314 317 312 310 313 313 316 314 323 324 323 322 324 320 323 323 324 324 323 326 326 327 330 344 348 350 352 353 354 353 352 351 350
305 305 305 305 304 304 304 306 309 315 313 313 317 318 315 318 322 315 314 316 316 318 325 325 321 320 322 323 321 319 326 325 325 325 338 338 344 353 352 353 354 353 353 353 351
305 305 305 305 304 304 307 311 315 321 320 320 323 319 316 318 327 324 321 316 318 318 321 322 318 317 316 318 324 323 323 323 324 326 337 338 341 354 353 354 354 353 353 353 352
305 305 304 304 304 305 305 311 309 310 318 318 321 319 317 319 322 322 318 316 318 320 321 320 322 320 319 318 321 322 323 323 323 327 336 337 339 356 354 354 355 355 354 354 352
304 304 304 303 303 309 305 306 309 308 308 309 310 313 316 318 318 318 319 316 318 319 318 318 321 321 321 320 320 321 321 322 321 323 327 333 337 354 354 354 354 355 355 354 353
304 303 303 303 303 307 305 308 307 307 305 308 310 311 312 314 316 317 318 318 319 319 318 320 319 319 322 322 321 320 320 322 322 323 328 339 342 343 355 353 352 351 351 352 351
303 303 302 302 304 303 306 306 307 308 307 311 310 311 312 315 316 317 322 319 320 321 319 318 319 321 321 322 321 320 320 322 322 324 324 337 342 342 344 355 352 351 351 350 349
302 302 303 302 304 304 305 306 309 305 319 320 313 313 311 314 316 316 322 322 321 320 319 320 320 320 321 322 320 323 323 323 325 324 325 327 335 334 340 345 345 347 348 348 348
302 302 302 304 304 304 305 305 307 309 315 317 316 313 313 313 315 318 319 322 321 322 320 321 320 321 320 321 321 323 322 320 322 321 324 325 328 329 343 341 341 341 343 345 346
302 302 302 304 304 304 304 305 308 310 314 317 314 313 314 313 314 319 321 322 322 323 323 321 323 319 320 321 321 321 317 320 319 322 325 322 328 329 332 341 340 340 340 343 342
302 302 303 304 306 305 307 305 309 312 311 313 313 313 315 314 314 315 321 323 323 319 322 323 323 322 319 321 321 318 319 316 320 322 324 322 326 327 331 334 340 340 339 339 342
302 303 304 305 306 305 304 307 308 310 313 314 313 314 315 315 314 315 313 323 324 316 320 320 322 320 322 320 321 319 320 319 317 319 319 323 324 325 327 329 336 339 339 340 340
303 303 304 304 303 306 306 309 309 311 311 313 314 314 316 315 315 315 315 315 316 320 316 316 318 316 320 320 319 320 317 320 311 321 322 320 323 324 326 326 332 339 339 339 339
303 300 303 303 304 304 308 308 310 310 311 312 313 314 315 315 316 316 316 317 319 319 317 316 315 319 317 317 319 317 320 316 315 315 320 321 322 321 325 326 327 333 339 340 339
301 301 303 304 301 299 305 306 309 311 309 311 312 313 314 314 315 315 316 317 317 318 320 318 311 318 318 317 319 318 319 315 319 318 315 319 320 321 324 324 324 326 332 335 339
299 298 304 304 304 303 303 307 309 309 309 310 311 311 311 314 315 316 316 317 316 317 320 319 316 316 316 317 317 318 318 318 317 314 321 320 320 317 321 322 322 328 330 332 335
299 302 299 298 301 304 304 305 308 309 309 307 309 311 312 312 312 314 315 317 314 315 320 313 313 317 318 317 318 318 320 320 318 319 322 321 319 321 320 320 320 324 327 332 336
298 299 300 302 303 302 303 304 309 309 309 308 307 309 311 313 313 314 314 314 313 315 312 311 315 316 317 318 319 321 320 321 319 320 321 322 317 318 319 319 320 320 323 332 334
302 302 302 303 302 301 301 305 307 306 307 310 308 307 308 310 311 312 311 314 314 312 311 309 316 314 317 319 321 322 320 322 321 321 320 320 316 317 319 317 318 318 320 325 331
302 303 304 305 304 303 302 303 304 304 307 308 306 305 306 307 309 308 308 308 310 312 310 312 313 315 317 317 319 322 322 322 322 321 320 321 319 316 317 317 316 318 320 325 325

GFSSW_925_thetae_018.txt.gz
Theta_e
311 311 311 311 311 311 310 310 308 303 301 301 301 302 303 304 306 310 312 312 314 324 354 355 352 349 352 352 347 346 351 352 347 354 352 354 355 352 350 350 349 347 348 346 347
310 310 310 310 311 310 310 310 310 307 303 302 302 302 302 306 312 315 315 313 313 329 355 353 354 350 353 357 352 351 349 349 343 343 350 354 354 353 354 351 352 350 346 347 346
310 309 308 309 310 310 308 306 305 307 304 303 302 302 303 312 315 310 320 320 314 326 345 351 352 351 353 347 354 353 357 347 344 342 345 353 353 351 354 353 351 351 349 347 347
308 306 306 307 308 307 307 306 304 304 305 305 303 304 307 314 313 322 319 326 318 341 348 348 350 347 344 350 350 347 344 350 346 340 349 352 350 353 353 350 347 347 347 347 348
306 305 305 305 306 307 307 306 305 305 305 307 309 309 313 316 310 318 315 321 333 337 339 333 346 337 332 332 342 344 342 335 336 335 342 349 352 353 353 349 347 346 347 348 348
305 305 305 305 305 305 306 306 307 307 305 307 311 312 312 304 312 313 313 317 323 333 326 322 325 321 321 320 330 326 330 334 327 327 339 352 352 352 351 348 348 348 348 348 348
305 305 305 305 304 304 304 304 306 308 308 309 313 313 317 305 312 317 315 318 318 326 323 323 321 322 319 321 320 323 327 326 325 326 341 349 355 355 350 349 349 349 348 348 349
305 305 304 304 304 304 304 306 308 310 312 314 315 315 308 309 310 311 315 324 320 322 322 323 322 319 321 320 322 322 322 325 326 328 339 350 357 354 350 351 351 349 349 349 348
304 304 304 303 303 303 306 306 315 317 313 315 314 315 311 316 318 312 313 312 320 324 324 322 321 320 320 321 320 319 325 324 325 324 333 350 344 350 351 352 352 350 350 350 349
303 303 302 302 302 303 307 312 321 320 317 318 320 317 316 317 322 323 315 314 314 316 320 322 317 318 315 318 319 323 322 323 325 327 338 344 339 349 352 352 353 352 351 351 350
302 302 302 302 302 304 305 309 306 308 309 320 319 317 317 317 319 319 317 314 317 318 319 318 319 320 316 317 321 322 322 324 323 324 331 335 342 355 353 353 353 353 352 351 350
302 302 302 302 302 307 306 306 305 304 306 307 307 310 316 315 316 317 316 314 316 318 317 316 322 320 318 318 320 320 321 321 321 322 323 322 329 353 354 354 353 353 353 352 351
302 302 302 302 302 304 304 305 305 306 304 307 308 310 310 312 314 315 314 314 315 317 318 321 319 321 322 320 320 319 320 321 323 322 323 331 335 337 353 353 353 352 351 351 351
302 302 302 302 302 302 303 304 304 306 306 311 309 310 312 312 313 315 316 317 317 318 316 317 318 321 320 322 320 319 318 321 321 320 322 331 332 339 350 356 354 353 353 352 351
302 302 302 303 303 303 302 304 304 303 319 319 311 311 311 313 315 314 319 320 318 318 318 319 318 319 320 320 319 322 320 320 321 321 321 326 326 326 345 357 354 352 351 352 351
302 302 302 304 303 303 304 304 304 312 318 317 313 312 313 312 313 316 319 321 318 319 319 320 318 319 319 319 319 320 322 317 317 318 322 322 324 324 340 352 354 351 351 350 349
302 302 303 303 303 305 305 303 307 311 313 315 313 312 312 313 313 316 317 321 321 320 319 321 321 319 318 319 319 320 318 320 320 321 325 319 323 326 327 338 341 349 348 348 348
302 302 303 304 303 305 305 304 309 311 310 312 313 312 313 313 314 315 316 322 320 320 319 322 321 321 318 319 319 318 316 318 322 320 322 319 323 324 324 331 337 337 341 343 346
302 302 303 305 303 305 302 306 307 308 311 312 312 314 315 314 314 314 313 318 322 316 321 320 322 320 319 318 320 317 320 316 315 317 317 319 321 323 325 325 332 336 337 337 340
303 301 302 303 303 305 305 307 307 309 310 311 313 314 315 314 314 314 314 316 318 317 315 317 322 317 321 319 318 316 315 319 311 321 321 319 320 325 324 327 327 334 337 337 337
302 298 302 303 304 301 303 306 308 309 310 310 311 312 313 314 314 314 315 317 317 319 316 315 313 317 316 319 322 317 316 314 316 313 318 319 321 317 323 324 325 327 334 336 337
299 299 302 303 299 299 303 303 308 309 308 309 310 311 313 314 315 314 317 317 315 317 319 318 311 316 318 316 319 322 320 315 319 317 312 315 320 320 319 322 324 325 329 335 336
301 301 303 302 300 300 303 304 305 310 309 307 308 309 310 312 313 315 314 315 313 314 320 317 314 315 315 316 316 316 318 317 316 313 319 319 320 321 318 321 321 323 323 327 333
301 302 298 301 298 301 302 303 305 307 310 309 307 308 310 311 311 313 314 314 312 314 318 313 312 314 318 317 317 318 318 315 317 320 321 320 320 320 319 320 320 320 322 326 327
296 298 300 302 301 303 301 301 307 307 306 308 310 307 308 311 311 312 312 312 312 314 311 310 315 314 316 316 317 318 319 319 316 318 319 320 320 319 318 318 319 320 320 323 326
303 302 302 302 303 303 301 301 305 304 305 307 310 308 306 308 310 311 309 311 312 310 309 308 315 313 316 316 317 318 319 320 319 318 317 319 317 316 318 317 319 319 320 321 324
302 302 303 303 305 304 301 303 303 303 304 306 307 305 305 306 308 306 305 306 307 309 309 309 312 314 316 316 316 319 318 319 319 318 318 319 319 318 317 317 318 319 319 319 320

GFSSW_925_thetae_021.txt.gz
Theta_e
311 311 310 308 309 309 308 307 305 305 304 304 303 302 302 303 305 311 314 312 313 323 346 348 347 348 348 351 352 348 361 359 351 355 354 355 357 353 350 351 348 348 348 346 347
311 310 308 308 307 307 308 308 308 304 304 304 304 303 303 305 312 315 314 313 312 331 349 346 348 348 353 353 355 356 360 354 348 349 343 355 355 355 355 352 351 351 347 346 346
310 309 308 308 309 310 309 309 306 307 306 305 306 307 304 311 315 314 320 320 311 326 345 347 347 349 353 356 357 359 360 353 347 344 342 350 355 354 355 356 351 353 350 347 346
310 308 308 308 309 310 308 305 305 307 308 308 308 310 307 313 315 322 320 321 315 342 348 348 349 350 351 355 356 360 354 352 345 343 344 350 354 355 355 353 348 348 347 347 348
308 306 305 305 306 305 306 305 305 307 307 309 311 312 313 316 311 317 319 318 346 345 345 347 350 348 347 351 349 357 348 343 341 341 338 342 354 354 355 350 348 349 348 348 347
306 304 303 303 303 303 303 304 306 306 306 309 312 313 312 306 309 312 319 341 346 343 341 344 348 342 339 330 344 339 337 330 333 335 332 342 348 353 353 351 351 351 350 348 347
303 303 303 303 303 302 303 305 306 308 308 310 313 313 315 309 310 312 324 336 341 336 341 336 336 341 328 325 327 327 326 327 328 330 330 337 352 354 352 352 353 352 350 349 348
302 302 302 303 302 301 302 306 313 317 313 312 314 314 311 308 308 315 325 325 338 332 329 330 326 334 324 323 324 326 326 327 329 328 333 340 337 350 352 353 354 352 350 350 349
302 302 302 302 302 301 305 305 318 316 316 316 314 316 312 316 312 310 316 322 328 329 323 324 323 325 323 324 324 324 329 329 330 329 339 346 338 342 352 353 355 353 351 350 350
302 302 302 302 302 302 304 313 319 317 317 318 315 316 313 316 318 313 311 322 323 324 323 323 324 326 324 324 325 325 325 327 330 330 332 343 344 345 353 354 355 354 352 351 351
302 302 302 302 302 303 306 308 310 312 308 323 323 318 319 317 321 318 311 314 320 323 323 324 323 326 325 323 322 322 325 327 328 328 334 339 343 347 354 355 355 355 353 352 351
301 301 302 302 302 303 306 307 304 304 309 309 308 312 317 315 318 319 313 315 317 321 322 323 325 323 323 322 322 322 323 327 326 326 326 330 334 335 351 356 355 356 354 353 352
301 301 301 302 302 303 304 305 303 304 309 311 310 311 312 313 316 319 315 316 318 319 321 324 323 323 323 323 323 322 322 325 327 325 325 328 331 334 348 352 354 354 353 352 352
301 302 301 302 302 303 304 303 304 304 312 316 312 313 312 315 316 317 318 319 319 320 320 321 323 324 324 324 323 321 321 323 325 326 330 331 335 338 340 353 354 355 355 354 353
301 301 302 303 303 305 303 305 304 305 316 317 311 311 313 317 316 317 317 319 320 320 321 323 324 324 325 324 324 321 321 322 325 327 327 328 332 334 343 352 355 354 354 353 353
301 301 302 303 303 303 303 304 305 313 317 319 313 313 315 315 315 316 318 321 321 320 321 322 321 324 324 324 324 325 324 325 325 327 329 329 329 333 335 341 348 352 353 354 353
301 301 302 303 304 303 304 306 312 315 315 317 316 315 315 315 315 318 319 322 323 322 323 323 322 322 323 323 323 324 324 327 326 327 329 329 329 332 332 338 337 349 352 353 353
301 301 302 303 304 302 305 307 312 312 313 313 314 315 316 316 316 317 319 322 324 322 322 324 324 323 322 324 323 324 324 324 327 326 326 329 330 331 330 331 338 341 347 350 352
301 302 302 302 302 302 308 306 310 312 311 312 314 317 317 317 316 317 319 321 324 323 324 323 323 323 323 322 323 324 326 323 323 322 324 326 327 328 329 330 334 338 340 345 349
302 301 302 302 303 305 308 307 310 310 311 311 315 315 318 317 318 318 320 318 321 321 320 324 326 324 324 323 323 323 324 323 323 324 325 326 328 329 333 332 332 336 338 340 341
301 304 302 303 302 306 308 307 307 309 310 312 313 314 315 316 316 317 319 317 316 320 320 321 322 322 325 324 324 322 324 323 324 323 323 323 324 329 333 337 336 335 336 337 340
301 304 302 302 304 304 305 304 305 307 310 309 310 312 314 314 316 317 320 318 314 319 323 320 320 326 324 324 324 324 324 324 325 327 323 324 324 325 329 332 334 334 335 336 341
301 302 302 302 304 304 304 304 304 308 309 311 310 310 312 314 315 316 317 315 313 319 320 319 322 327 326 323 321 325 325 324 325 325 327 324 324 325 326 327 329 330 332 334 337
303 304 303 302 302 302 303 304 305 306 308 309 310 308 310 313 313 314 315 314 313 317 319 317 319 325 328 326 322 324 322 325 324 327 326 326 325 326 327 328 328 330 332 333 335
303 303 302 304 303 304 304 303 306 306 304 307 309 310 309 311 312 314 313 313 313 314 314 317 320 319 319 319 319 320 321 321 323 325 328 326 326 326 327 328 329 329 332 332 332
305 304 303 302 303 305 303 304 305 305 304 305 310 307 307 309 309 312 311 313 313 313 313 314 317 319 318 317 318 320 320 321 321 322 322 323 324 324 324 327 330 329 331 333 334
302 302 303 304 304 305 304 303 304 304 304 305 307 305 305 306 306 307 307 308 309 309 312 314 317 318 318 318 319 321 320 321 321 322 322 324 324 324 324 326 327 329 332 334 335

GFSSW_925_thetae_024.txt.gz
Theta_e
312 312 311 311 312 312 312 310 309 306 308 307 306 306 305 303 304 318 317 315 315 320 344 347 350 349 349 351 353 351 360 354 351 352 353 354 358 355 353 353 350 350 350 350 349
311 311 311 311 311 312 312 312 307 307 307 309 308 306 306 304 315 316 315 314 313 323 339 345 351 348 351 350 353 356 358 350 347 345 345 349 355 357 355 354 351 352 349 349 348
310 308 305 306 309 310 310 309 309 309 309 310 310 307 305 308 318 318 319 318 312 321 333 340 342 345 346 348 351 352 356 348 346 344 343 346 355 355 354 354 352 355 353 350 348
308 305 303 304 305 307 307 306 306 309 309 310 312 311 306 317 319 324 320 324 313 326 332 337 342 346 345 350 349 354 350 351 346 343 342 342 350 356 354 351 350 351 350 350 350
304 303 303 302 303 303 303 304 305 307 306 309 312 312 316 317 315 320 318 317 330 331 334 337 343 341 341 344 346 352 347 344 344 342 341 338 345 350 354 350 349 351 350 350 350
304 303 302 302 302 302 303 304 305 306 307 311 312 313 315 314 314 313 324 327 334 334 335 335 339 338 338 340 345 344 346 343 334 336 338 336 342 348 351 351 351 352 351 350 349
303 302 302 302 302 302 301 303 304 309 317 318 313 314 317 316 312 313 325 332 336 336 336 333 335 339 334 338 332 340 339 333 332 334 335 334 338 347 349 353 354 353 351 350 349
301 301 301 301 301 301 302 304 311 315 317 315 314 316 319 315 314 317 324 332 338 335 332 333 334 338 334 329 328 331 332 335 336 336 334 336 341 346 350 354 356 355 353 351 350
301 301 301 301 301 301 302 309 318 316 316 315 317 318 320 313 312 313 325 328 335 333 332 332 333 333 334 333 330 329 335 337 338 335 337 339 341 342 350 353 356 356 355 353 351
301 301 301 301 301 302 303 314 318 318 318 319 317 318 317 318 318 313 323 322 333 333 329 328 329 325 329 332 334 333 332 335 337 337 336 338 341 340 347 350 353 357 355 353 352
301 301 301 301 302 303 306 311 318 322 314 324 327 322 322 319 319 315 316 323 330 332 327 324 324 325 324 326 328 331 332 334 334 336 335 338 338 339 344 351 351 356 356 355 353
301 301 301 301 302 303 308 311 307 305 310 312 313 317 322 321 324 318 316 324 324 329 325 325 326 324 324 324 325 327 329 331 333 333 332 336 337 338 341 350 351 355 356 355 354
301 301 301 301 303 307 308 307 306 307 312 315 315 316 316 318 321 322 317 322 324 325 324 325 325 324 323 325 326 326 327 329 332 333 331 333 336 336 335 340 347 351 353 354 354
301 300 301 302 306 307 308 306 307 307 316 317 316 317 316 319 320 322 316 321 321 325 324 324 325 325 325 325 325 326 325 326 328 331 336 335 340 340 338 340 343 348 351 353 354
301 300 301 303 307 308 306 306 307 309 316 320 316 315 317 321 324 321 320 317 320 322 324 325 324 325 325 325 325 324 323 324 325 327 331 334 337 337 338 338 340 344 348 352 353
301 301 301 307 307 306 306 306 309 316 315 320 316 316 317 319 321 322 322 320 320 322 324 324 324 325 325 325 325 324 323 323 324 326 331 333 336 338 338 339 339 344 348 351 353
301 302 305 305 307 305 305 310 312 314 317 320 319 318 319 319 321 321 322 323 326 324 325 324 325 324 325 326 325 325 325 327 326 327 329 332 334 336 336 336 337 339 342 351 352
301 304 304 305 304 305 306 311 311 314 317 316 317 317 320 320 319 320 323 325 324 325 326 326 326 324 325 326 326 326 326 326 328 326 327 330 334 335 335 335 335 336 337 346 352
302 304 305 304 304 306 310 308 308 315 313 314 316 319 321 320 320 320 322 324 324 326 327 327 327 324 325 325 326 327 329 325 326 327 328 328 330 331 333 334 334 335 336 339 350
305 305 305 304 304 307 310 307 310 310 311 313 317 318 322 321 321 321 322 322 326 325 327 328 329 326 324 325 325 327 327 325 325 328 329 327 330 331 333 334 334 335 336 338 344
305 307 305 304 305 307 307 307 307 307 309 311 314 315 318 319 320 322 323 320 321 325 325 327 328 329 326 326 326 326 327 326 326 326 328 328 328 330 331 334 334 335 337 338 341
305 306 304 304 306 306 306 306 305 307 308 310 311 311 315 317 319 321 323 321 317 321 326 326 328 331 327 326 325 326 327 327 327 330 327 328 328 327 329 330 334 334 336 337 339
307 306 305 304 306 306 306 306 306 307 308 310 312 312 312 315 319 319 320 317 316 322 326 326 327 330 330 328 327 327 327 327 327 328 331 329 326 329 330 331 333 334 335 336 338
307 306 306 306 305 306 306 306 306 306 306 306 311 312 313 312 315 317 318 316 315 317 318 320 327 329 331 330 328 329 328 327 327 330 328 330 329 328 328 330 330 330 331 332 337
306 306 305 306 306 305 306 306 305 306 306 306 309 310 311 314 313 314 316 316 315 315 317 321 327 327 329 326 325 328 327 328 329 329 330 329 330 329 329 329 330 330 330 330 332
306 305 305 305 305 305 305 306 305 305 305 306 307 307 307 312 311 313 313 315 316 315 317 317 325 324 327 324 323 325 325 326 328 329 329 329 330 329 329 329 330 330 330 330 331
305 305 306 305 305 306 306 304 305 304 306 305 306 306 306 308 308 309 310 310 312 314 315 317 320 323 327 324 324 326 325 325 326 326 327 329 329 328 328 328 328 329 329 329 331

GFSSW_925_thetae_027.txt.gz
Theta_e
311 311 311 310 311 312 310 308 308 308 309 312 311 310 307 306 305 317 319 318 318 317 335 338 343 347 349 351 351 351 360 360 350 349 352 350 348 350 352 353 352 352 354 352 349
310 309 308 308 310 309 307 307 309 309 309 310 312 310 307 306 315 317 317 318 317 316 337 339 344 347 350 350 350 354 361 361 346 344 347 349 349 349 353 353 353 352 352 350 349
308 305 304 305 304 306 306 308 308 307 309 310 311 312 308 309 322 321 320 317 316 318 327 337 343 346 347 345 348 351 356 355 346 344 343 347 351 349 347 352 352 354 355 352 350
304 303 303 302 302 304 305 305 305 305 307 308 307 308 308 317 323 330 320 318 315 324 325 335 342 347 346 346 345 349 350 353 345 344 343 345 350 352 348 347 348 351 352 352 351
302 301 301 301 301 302 302 302 303 303 304 306 310 309 316 320 319 329 317 328 321 325 326 335 340 344 345 342 344 346 348 348 348 346 344 341 345 352 350 346 347 351 352 352 351
301 301 301 301 301 301 302 302 302 307 309 314 315 313 318 322 319 319 324 325 326 329 326 332 337 340 343 341 343 344 346 347 345 344 342 341 341 346 351 348 349 351 353 351 351
301 300 300 301 300 301 301 302 305 315 316 317 318 315 320 324 319 316 320 325 330 330 328 331 332 339 340 340 339 342 344 346 347 340 340 340 340 346 350 351 351 353 352 351 350
301 301 301 300 300 301 302 303 314 319 318 314 317 317 324 323 322 317 322 326 330 332 331 330 331 335 339 337 339 341 342 347 342 339 339 339 341 342 349 354 353 353 351 352 351
301 301 301 300 300 301 302 306 317 318 316 315 319 321 327 318 319 321 319 328 332 334 334 332 332 336 337 338 336 335 339 341 342 340 339 339 342 345 347 353 355 354 353 350 351
301 301 301 300 301 302 304 309 314 318 320 321 322 323 323 323 322 319 319 326 334 336 336 334 335 336 338 339 340 336 336 337 339 340 339 340 342 343 349 350 352 354 354 353 350
301 301 300 300 302 306 309 314 318 325 324 327 327 325 326 324 321 319 319 327 333 336 336 335 336 340 333 338 337 335 335 336 338 339 339 341 343 342 344 347 348 354 355 355 353
302 300 300 301 303 308 310 313 311 310 313 313 314 316 322 324 325 320 322 327 330 338 333 331 334 332 331 329 332 334 336 336 336 336 338 340 341 340 341 344 347 351 354 355 354
302 301 300 301 305 309 311 310 309 310 313 313 316 316 317 324 326 326 321 324 329 336 333 329 327 327 326 325 327 330 332 334 335 336 336 338 340 340 339 342 347 349 353 353 354
302 301 301 301 307 308 311 308 309 310 315 316 319 319 318 321 326 326 319 323 328 334 335 329 327 326 326 325 326 326 327 330 332 334 338 337 341 341 339 340 345 347 351 353 353
302 301 301 305 309 311 308 307 308 311 317 321 320 319 320 320 325 325 321 322 326 327 331 331 327 327 327 326 326 327 327 327 329 332 335 337 341 341 340 340 339 342 347 352 352
302 302 304 307 308 307 306 306 310 316 318 321 319 320 321 320 323 326 325 321 325 326 327 328 327 327 327 327 326 327 326 326 327 328 333 334 338 341 341 341 340 341 342 346 349
301 303 305 306 308 306 306 309 312 313 318 323 321 322 321 323 323 326 326 321 324 326 326 327 328 327 327 328 327 327 327 327 326 328 330 332 335 338 338 338 340 340 341 343 346
303 306 307 307 305 306 307 310 310 312 318 317 317 319 321 323 324 326 327 328 322 323 325 328 329 328 327 328 328 328 327 327 329 327 327 330 334 335 336 337 337 339 340 344 346
306 308 308 305 305 306 310 309 309 313 313 313 316 321 321 323 324 326 326 327 325 323 326 329 330 329 328 327 329 329 330 327 328 329 329 328 330 332 334 336 336 338 339 341 345
307 308 308 305 307 308 310 309 310 309 309 310 314 319 324 325 324 325 326 326 327 325 328 330 332 330 328 328 328 330 328 328 328 331 332 331 332 332 335 336 337 338 338 339 341
309 309 307 305 307 309 307 308 307 307 308 309 310 313 316 319 322 326 326 325 325 327 328 329 332 332 330 328 329 328 330 329 328 328 331 333 332 333 335 336 336 337 337 338 339
309 310 307 306 308 307 306 306 305 307 308 308 311 312 313 316 319 323 326 325 319 324 328 329 330 333 331 328 328 329 329 330 330 333 329 331 332 332 332 332 335 336 337 337 339
310 310 307 306 307 308 307 306 307 308 307 308 309 311 314 315 318 321 323 321 319 324 328 330 331 334 335 331 329 329 328 330 330 330 333 330 332 332 331 332 334 335 336 338 340
310 310 308 308 307 307 307 307 307 306 306 307 310 310 311 313 314 318 321 320 318 319 321 324 331 333 336 335 330 330 329 328 330 332 331 332 331 332 331 334 335 336 336 337 339
309 309 308 308 308 307 307 306 308 306 306 307 311 310 310 313 315 317 319 319 319 320 322 325 332 332 332 333 332 330 329 329 330 331 331 331 332 332 332 333 334 334 334 334 337
309 308 307 308 306 307 308 307 306 306 306 306 307 308 307 311 312 313 316 316 319 319 321 323 328 331 333 331 331 331 331 330 329 330 330 331 332 332 332 332 332 332 332 332 332
307 307 308 308 307 307 307 307 305 305 307 307 306 306 307 308 309 310 311 312 313 315 318 321 325 331 333 331 331 332 331 331 331 330 331 332 332 332 332 332 332 332 332 332 331

GFSSW_925_thetae_030.txt.gz
Theta_e
311 308 306 305 305 308 309 309 309 307 311 310 309 308 307 307 307 315 316 315 318 318 316 332 330 342 348 353 353 353 363 366 362 355 356 348 356 354 351 354 355 355 353 351 350
308 304 303 303 306 306 307 308 308 309 307 311 311 308 309 309 316 317 316 317 317 318 320 332 334 341 350 351 351 354 361 358 355 351 352 349 347 351 351 353 356 356 351 350 350
302 302 301 301 302 302 302 303 307 308 305 304 307 307 307 313 322 321 322 318 317 318 321 330 333 341 348 348 348 350 358 349 348 350 347 348 346 349 349 352 357 357 353 351 350
301 301 301 301 301 301 301 301 302 302 303 304 305 307 306 317 325 325 318 320 317 319 321 327 336 342 348 347 346 348 352 350 349 349 344 351 349 347 349 349 353 353 351 351 350
301 301 301 300 300 300 301 301 302 302 306 310 310 312 315 320 320 322 322 319 321 318 324 327 336 343 348 346 345 345 352 350 346 349 342 349 352 350 348 347 351 352 351 351 351
301 301 301 300 300 300 301 302 302 304 314 318 316 314 316 323 324 323 328 326 321 320 324 326 333 339 345 345 343 344 345 348 348 350 343 341 349 349 349 346 351 352 352 351 350
301 301 301 300 300 300 301 302 303 308 316 318 319 316 318 322 325 321 323 328 324 323 324 325 329 336 342 345 343 341 344 344 346 346 343 341 341 345 350 347 348 352 352 352 350
302 301 300 300 300 301 303 304 307 311 317 317 319 319 321 326 324 324 318 324 324 327 325 325 329 333 337 341 343 342 341 346 346 346 342 340 341 349 348 349 349 351 352 352 351
302 302 300 300 300 303 306 309 310 312 319 318 321 320 327 325 326 325 320 322 326 330 329 328 329 332 334 340 343 341 343 344 346 344 342 340 340 341 349 349 353 350 351 351 353
302 302 301 300 300 307 309 312 312 315 321 321 323 326 324 327 326 325 324 322 327 331 333 333 333 332 334 338 346 342 341 340 344 344 341 340 340 343 346 352 353 355 351 352 351
302 302 301 300 300 308 309 313 314 322 314 321 327 324 326 327 325 324 324 322 328 333 336 335 337 336 333 336 338 340 339 337 338 340 342 340 343 345 347 349 355 354 355 352 352
302 302 301 300 302 309 310 313 311 310 312 312 314 315 319 325 326 325 323 323 329 335 336 337 338 335 333 334 336 338 338 336 335 336 338 341 340 343 348 348 350 353 355 354 351
301 301 302 302 305 310 312 311 309 310 312 311 313 314 315 318 323 327 323 323 327 334 338 338 337 334 335 336 333 337 338 336 336 335 337 340 341 342 345 346 345 351 352 353 354
301 301 302 303 308 311 311 308 308 309 312 313 316 317 315 317 320 327 323 324 329 332 338 337 334 334 335 334 334 333 335 334 335 336 337 337 340 345 343 343 344 345 349 353 355
302 302 303 304 308 312 308 307 308 311 315 321 320 321 319 316 321 323 326 324 330 329 334 338 334 332 330 332 330 328 328 331 331 334 335 336 338 339 344 343 342 347 350 352 354
302 303 305 309 310 309 307 307 309 313 313 320 322 322 322 318 318 324 327 324 328 328 330 335 334 330 328 328 327 326 326 327 328 330 336 335 337 341 341 345 342 345 345 352 351
302 304 306 308 310 307 307 309 309 311 313 317 318 318 320 323 319 320 327 328 326 328 333 332 335 333 328 328 327 326 326 328 329 330 330 333 335 340 339 343 342 342 343 347 352
303 307 308 309 307 307 308 309 309 310 313 313 313 314 318 322 324 321 324 329 323 325 329 331 331 332 328 328 329 327 327 329 332 331 328 330 333 335 337 337 341 342 342 345 348
305 310 311 310 307 308 310 310 311 312 310 310 311 315 319 321 321 325 324 328 326 324 330 330 331 329 329 328 329 328 328 328 327 328 328 328 329 331 335 336 338 338 342 343 345
306 310 312 309 307 309 311 309 310 309 308 308 310 311 313 314 317 321 327 327 327 324 325 329 331 329 329 329 328 329 329 328 329 333 333 330 335 333 335 337 338 340 338 342 345
310 313 310 309 308 310 309 308 309 308 309 309 308 309 311 316 317 320 325 328 325 327 326 325 329 330 330 330 329 329 331 329 328 329 331 334 332 336 338 339 340 339 340 341 346
310 314 310 308 310 309 308 307 307 309 309 308 308 308 312 313 316 319 325 326 323 322 327 327 326 331 332 331 329 329 330 331 332 336 331 334 333 334 337 338 338 338 340 341 343
312 313 311 308 309 308 308 307 306 309 309 307 308 309 309 311 315 318 320 320 320 322 325 327 331 333 334 333 331 331 329 330 331 330 336 332 332 333 334 338 340 339 341 343 346
312 313 312 309 309 309 308 307 308 309 310 308 307 309 309 310 311 315 317 319 318 320 329 324 329 334 336 335 334 333 330 330 330 332 332 332 333 333 333 333 338 340 341 342 347
311 311 309 310 310 309 308 309 310 309 308 306 308 309 309 309 311 312 314 314 317 322 321 326 332 332 331 333 333 330 330 330 332 333 334 333 332 336 337 337 338 339 343 343 346
310 311 310 310 310 309 308 309 309 307 306 306 308 308 307 307 310 312 312 313 317 316 318 322 330 332 334 333 333 334 330 330 330 330 331 332 332 334 337 339 339 340 338 339 341
307 304 308 308 310 310 310 309 307 308 308 306 308 307 306 307 308 308 309 309 311 313 316 320 326 331 335 334 334 336 333 331 330 330 330 333 335 335 337 338 338 337 336 336 333

GFSSW_925_thetae_033.txt.gz
Theta_e
309 307 306 305 306 305 304 305 304 305 310 305 304 305 307 310 309 315 316 311 313 319 321 332 329 330 348 352 353 354 360 356 362 357 353 352 355 353 355 356 353 352 353 351 350
305 304 303 303 305 305 305 304 304 308 305 304 303 305 307 311 314 317 314 313 314 318 319 326 329 328 343 352 354 357 362 360 355 352 352 352 352 353 357 356 357 356 352 350 350
301 301 301 301 301 301 300 301 304 306 304 304 307 306 306 310 320 320 318 316 314 316 319 319 329 329 341 348 350 355 358 354 350 348 351 351 352 352 357 359 357 357 354 351 351
301 301 301 300 300 300 300 301 302 303 303 308 313 312 311 316 323 321 321 321 317 316 320 319 323 331 339 349 348 352 351 351 347 345 347 349 347 350 352 356 353 352 351 350 350
302 301 301 300 300 300 300 301 302 303 305 314 318 314 314 318 317 321 320 320 320 319 320 319 322 332 336 344 346 347 351 346 345 345 344 346 348 349 355 353 351 350 350 350 349
302 302 301 301 300 300 300 303 304 306 307 317 319 315 315 318 320 323 326 322 323 321 320 319 324 329 337 341 346 344 349 346 347 346 346 346 344 349 355 352 352 352 351 349 349
302 302 301 301 300 300 304 307 308 309 309 316 320 317 318 314 320 324 324 324 323 320 318 320 324 326 335 342 343 344 345 351 348 346 348 348 351 350 355 353 353 353 351 350 348
301 301 301 301 300 302 307 309 310 311 311 318 319 319 321 318 321 321 322 327 322 320 319 320 324 324 327 335 341 344 343 346 349 348 347 347 352 349 351 354 354 353 352 351 349
301 301 301 301 301 304 309 310 313 312 313 318 320 321 323 323 322 323 323 326 326 323 322 321 323 323 325 333 337 340 345 341 340 341 344 340 346 347 347 351 354 353 352 351 350
301 301 301 301 301 306 308 311 311 320 322 321 322 323 322 321 326 325 324 323 325 324 327 324 325 325 327 330 338 342 342 339 340 340 343 341 338 348 347 349 352 351 351 351 350
301 301 301 302 302 307 308 311 309 313 312 308 309 316 312 322 321 326 325 324 320 325 330 329 329 328 328 329 332 339 341 339 338 338 341 342 338 349 352 356 356 354 351 351 350
302 302 302 302 303 309 311 309 307 308 307 309 310 311 312 313 316 320 326 324 319 326 329 331 332 330 330 330 331 334 338 340 337 335 338 341 338 352 350 349 351 351 348 350 349
303 302 302 304 305 310 310 308 307 308 307 308 309 310 311 311 313 317 322 324 320 324 329 333 334 333 335 331 331 332 335 337 337 335 333 337 341 351 350 347 346 345 346 350 349
303 303 303 304 308 308 310 308 307 307 308 311 312 313 312 312 314 317 320 324 323 323 329 333 333 335 335 334 332 332 333 335 337 336 335 332 343 340 347 347 345 346 349 351 349
303 303 303 305 307 310 310 307 307 308 310 314 314 316 313 312 315 316 318 321 324 323 329 334 336 336 335 334 333 334 332 333 335 335 330 333 336 339 344 348 348 348 352 352 351
305 305 304 306 308 310 308 307 308 309 312 312 312 311 311 312 317 316 319 321 323 323 326 330 335 335 335 333 333 333 332 328 331 331 331 329 331 332 340 342 346 348 352 352 345
305 306 306 307 309 309 309 307 308 309 312 313 310 309 309 314 317 318 316 322 323 322 324 329 330 335 332 332 331 330 327 326 325 329 329 325 329 330 334 340 339 347 350 346 342
305 307 309 311 310 310 308 309 310 311 311 310 309 308 311 312 312 315 319 320 325 322 327 330 330 330 333 329 327 327 325 321 324 325 325 324 327 329 331 333 337 342 346 343 347
306 309 311 312 311 309 308 310 309 310 309 308 307 308 309 310 311 314 317 321 323 323 324 328 328 329 331 330 327 325 324 321 322 326 324 324 323 324 326 329 330 336 340 348 351
306 310 312 311 309 308 309 310 308 308 308 308 308 308 308 311 312 313 315 321 323 320 323 322 324 329 331 331 328 325 323 323 322 325 326 326 325 325 324 326 329 331 335 342 351
308 313 311 309 309 308 309 308 307 307 308 307 308 308 307 313 312 312 315 317 320 318 319 321 321 322 327 331 331 325 325 323 322 323 325 330 328 326 325 327 330 330 334 338 344
308 313 313 310 308 309 307 307 306 306 309 309 309 306 308 308 310 311 316 317 315 316 317 321 323 322 323 327 329 326 325 324 325 324 324 324 327 330 330 328 330 330 333 336 341
310 312 312 310 309 308 308 308 307 309 309 308 308 307 307 311 313 314 314 313 314 314 314 320 322 325 323 323 325 327 325 325 323 325 326 325 327 332 332 328 332 332 331 334 341
311 313 311 309 309 309 309 308 309 308 309 308 307 306 309 310 310 312 312 312 312 313 318 317 322 324 327 325 326 327 327 326 325 327 326 327 328 332 333 336 336 334 337 335 342
309 311 310 310 310 309 310 309 309 310 309 307 306 308 307 309 307 311 310 310 310 312 313 313 321 326 329 329 329 330 328 327 326 326 328 326 331 335 337 338 339 339 338 340 341
309 308 306 307 308 309 310 311 310 310 308 307 307 307 307 307 308 309 309 309 310 311 310 311 318 324 333 331 330 331 329 328 327 327 328 327 327 332 336 336 335 335 335 333 339
308 305 305 308 308 309 310 311 310 310 309 308 307 306 307 308 309 307 306 307 308 309 310 311 316 322 333 333 334 335 333 328 328 327 327 329 328 335 337 335 333 334 332 332 331

GFSSW_925_thetae_036.txt.gz
Theta_e
308 307 304 304 305 305 306 306 304 309 309 305 304 304 308 311 311 312 316 311 311 333 328 330 337 337 349 352 354 349 351 355 350 358 355 354 355 356 353 354 353 352 352 340 339
303 302 302 302 304 304 303 306 308 309 306 303 303 308 309 311 314 316 317 315 312 313 327 334 334 328 349 352 355 359 353 352 348 353 354 357 355 352 356 357 356 354 345 341 340
301 301 301 301 301 301 302 302 303 303 303 305 309 314 312 312 319 320 320 318 314 314 318 331 328 326 329 344 354 356 359 355 354 351 349 351 353 355 358 360 356 355 349 345 343
301 301 301 301 301 300 300 302 303 305 306 306 312 318 312 314 324 320 320 321 315 315 317 318 317 326 330 342 346 353 356 355 351 349 348 349 351 358 355 357 352 351 348 348 348
301 301 301 301 301 300 301 303 305 307 308 307 313 317 313 317 315 321 325 323 316 317 320 319 317 322 332 337 343 350 351 351 350 349 345 345 348 347 354 354 351 349 350 350 348
301 301 301 301 301 301 303 306 308 309 310 308 315 316 315 315 313 318 319 324 319 323 320 318 317 319 328 332 341 344 346 347 347 345 343 347 344 348 356 353 352 350 350 350 349
301 301 301 301 301 302 306 308 309 311 312 309 318 317 316 313 314 319 321 324 321 319 319 319 318 323 324 333 332 336 345 345 347 345 346 344 348 359 354 353 354 352 351 349 348
302 302 301 301 302 303 307 310 311 312 312 313 319 318 317 313 315 317 318 322 326 319 318 318 318 319 322 323 326 339 341 348 347 347 346 347 352 357 353 353 354 352 351 349 348
303 303 302 302 302 303 309 311 309 316 321 318 319 318 321 319 322 323 319 322 324 322 318 318 318 319 322 322 323 332 339 343 345 347 347 349 349 357 353 353 354 352 351 350 349
303 303 303 302 302 305 311 309 307 318 321 320 322 320 318 318 316 314 321 323 321 319 319 318 316 318 321 321 327 333 339 340 342 339 346 349 346 357 354 354 355 353 351 350 350
303 304 304 303 303 307 311 307 304 303 306 304 305 316 312 310 309 315 317 323 323 321 322 320 320 322 321 322 325 332 335 339 338 338 337 341 352 359 355 353 356 354 353 351 350
304 304 305 304 305 308 309 303 305 306 303 306 306 306 307 308 309 310 316 321 320 324 323 326 325 322 325 324 325 329 331 337 339 338 334 338 351 356 356 355 355 354 353 352 350
302 304 306 305 306 308 309 309 308 306 302 305 308 308 308 308 309 309 313 320 322 320 324 328 330 327 328 327 328 328 329 331 337 337 333 336 352 352 353 353 353 352 351 351 350
301 303 306 305 307 308 309 308 308 306 304 308 311 311 309 309 310 313 312 316 323 320 321 324 329 329 330 329 328 328 328 330 333 334 337 331 349 355 355 354 349 347 349 349 349
301 303 306 305 306 308 307 309 309 305 307 312 310 311 308 310 312 314 313 315 320 322 318 324 327 331 330 332 331 329 328 329 331 332 332 334 332 354 354 355 347 345 344 346 348
301 304 307 307 306 307 308 309 306 305 310 311 309 308 307 309 311 312 312 313 318 320 321 321 328 329 331 331 333 331 330 329 330 329 333 333 330 328 357 353 349 345 344 344 348
301 307 310 307 307 309 310 305 303 306 309 310 307 307 306 309 310 311 312 315 317 320 322 323 323 326 332 333 332 332 329 334 332 331 332 331 325 329 348 349 348 345 344 346 348
301 310 310 309 310 311 310 303 309 309 308 306 307 306 307 308 310 311 311 312 320 317 319 323 324 324 328 332 334 332 330 332 336 329 330 322 323 325 326 342 343 344 345 348 348
302 310 311 311 312 311 301 305 307 306 306 306 306 306 307 310 310 310 311 313 316 315 319 320 323 324 326 330 333 328 332 321 318 319 320 323 321 321 322 323 334 346 348 350 349
304 308 310 311 311 309 303 307 307 305 307 306 306 306 306 309 310 310 311 312 314 314 313 316 321 322 324 328 329 330 322 324 316 322 323 322 321 324 322 322 322 343 348 350 350
306 305 311 311 309 300 303 304 305 307 308 307 308 308 305 308 310 311 311 310 314 314 313 313 318 321 321 327 329 327 326 322 321 317 321 323 324 321 321 321 322 338 345 349 349
304 307 311 310 304 300 303 305 307 308 307 307 307 307 306 310 310 310 310 313 311 312 314 314 318 323 322 320 323 329 323 320 322 319 318 321 325 326 323 323 322 323 346 346 346
304 304 311 308 306 305 305 309 307 308 308 309 307 306 306 310 311 311 311 311 311 312 314 315 320 321 322 318 319 321 328 321 316 317 320 323 324 323 323 325 327 325 329 343 344
303 307 304 303 305 307 307 309 309 308 308 307 306 304 306 307 309 310 311 310 309 309 312 314 311 317 322 322 321 322 323 323 322 322 321 322 324 325 324 327 324 324 327 333 345
302 304 306 306 307 306 306 308 311 310 308 306 305 307 305 305 306 310 308 308 308 311 311 311 310 312 315 318 322 325 326 327 323 322 324 323 324 322 324 331 329 328 328 337 348
304 303 302 306 305 306 306 309 311 311 311 308 308 307 303 304 307 308 308 308 309 309 309 309 309 311 315 326 328 328 328 328 324 324 322 321 323 321 328 330 332 333 336 339 348
305 305 304 307 306 306 308 308 308 309 311 310 310 308 306 306 306 307 307 307 307 309 310 309 308 311 320 325 330 333 329 329 324 323 324 324 323 331 334 343 342 328 330 335 344

GFSSW_925_thetae_039.txt.gz
Theta_e
304 304 302 302 304 308 309 308 306 303 303 303 305 307 312 312 309 313 314 312 311 325 328 339 335 340 348 351 353 348 348 356 353 354 355 353 356 355 353 354 353 351 342 341 340
301 301 301 301 303 305 305 303 304 305 305 305 307 310 317 313 313 314 316 317 312 330 330 336 340 337 350 352 356 358 348 351 346 350 354 353 357 357 356 356 355 344 341 341 338
301 301 301 301 302 303 303 303 305 306 307 307 307 311 317 312 317 317 321 318 316 330 325 333 333 328 346 348 354 358 354 351 348 351 351 354 356 353 357 359 355 345 342 340 337
301 301 301 301 301 302 302 305 307 308 308 309 307 315 313 314 317 321 324 320 317 329 327 327 325 326 331 341 344 358 356 355 353 350 351 355 351 356 356 356 352 341 340 337 337
302 302 302 301 301 302 303 307 308 310 310 311 311 316 312 313 311 315 318 325 318 314 322 319 320 325 330 333 339 352 354 352 354 353 351 348 354 357 357 353 348 341 339 337 339
303 303 303 302 302 302 305 309 310 310 312 312 313 315 315 310 311 317 320 324 320 319 317 316 318 321 327 330 341 343 347 349 347 347 346 348 354 355 355 352 349 343 340 339 341
304 305 305 303 302 303 307 310 310 308 320 312 316 316 315 312 312 313 325 323 320 318 316 317 316 321 320 330 330 333 341 336 342 345 345 345 347 351 354 351 351 346 343 342 344
304 304 306 305 303 304 310 308 308 308 319 315 318 317 317 314 318 320 318 317 323 318 317 317 317 319 321 323 323 334 333 338 339 344 344 345 350 359 353 351 352 350 347 347 346
302 303 306 307 304 306 310 308 307 313 318 319 320 317 319 318 315 312 311 318 325 322 319 318 316 316 321 323 322 323 335 342 342 342 346 347 355 358 353 352 352 351 350 349 348
301 301 305 307 305 307 308 307 306 314 319 318 320 315 313 309 309 309 314 320 320 320 318 316 314 314 317 319 330 327 335 336 338 340 347 348 351 357 354 354 354 352 351 350 349
301 301 303 307 306 307 307 306 301 301 303 304 303 310 308 308 309 309 310 317 319 317 317 315 315 317 316 320 323 328 334 338 338 337 341 348 349 359 355 354 354 352 352 350 349
301 301 301 307 306 308 308 304 305 306 301 304 304 304 307 307 308 309 312 317 322 320 319 318 318 317 317 319 322 322 326 332 334 334 334 336 347 358 355 355 354 353 352 350 348
301 300 303 308 306 307 307 308 308 307 301 303 305 307 307 307 309 311 311 312 315 324 321 323 323 320 321 320 322 322 323 327 332 333 334 339 350 350 357 355 354 352 350 350 349
301 301 306 307 306 306 307 307 308 306 302 307 308 307 306 308 310 311 312 312 314 320 322 322 323 324 321 324 323 323 324 327 329 332 334 332 358 362 358 357 355 354 352 351 349
301 301 309 307 306 306 307 309 309 304 305 311 307 308 305 308 309 311 311 312 314 314 316 322 324 325 325 324 325 326 324 327 328 328 330 332 335 352 357 360 357 354 353 352 350
301 301 310 308 306 307 308 310 305 304 306 310 307 306 306 306 309 310 310 312 314 317 316 316 318 323 325 327 326 327 326 326 327 326 331 330 332 329 353 357 356 354 352 351 350
301 304 310 309 306 307 309 303 303 305 307 307 306 305 305 308 309 309 309 316 316 319 319 320 319 320 324 326 327 329 325 329 330 330 334 329 329 332 342 349 351 352 351 349 345
301 306 311 310 310 310 307 302 308 307 307 305 305 305 306 309 309 309 309 312 315 315 317 318 323 322 321 327 329 329 328 330 333 334 335 325 329 327 331 345 347 348 347 345 341
301 306 310 310 309 310 301 304 306 304 305 306 304 306 306 309 308 309 309 311 316 315 317 318 320 316 322 322 329 329 332 326 323 317 324 330 320 320 323 336 345 347 346 344 341
303 306 309 310 309 306 301 306 305 306 306 306 306 306 306 307 309 309 309 310 312 313 312 315 317 316 320 322 325 330 326 330 320 328 328 322 321 326 322 325 332 346 346 344 342
304 303 310 309 307 299 302 302 305 307 307 307 307 307 305 307 309 310 309 309 310 310 311 314 315 319 320 321 323 325 328 329 328 320 329 320 325 318 321 321 322 338 342 342 343
301 301 308 308 303 299 302 303 306 307 307 307 306 306 305 308 308 308 310 311 310 313 313 312 317 323 323 319 318 324 325 319 333 327 316 319 325 322 319 319 321 328 337 341 345
303 300 308 307 306 304 304 308 307 307 307 308 307 305 304 307 308 310 310 310 312 310 312 312 320 317 320 318 318 320 326 321 322 317 320 330 329 318 320 323 318 320 332 338 345
303 304 302 300 302 305 306 308 309 309 309 307 306 304 305 306 305 307 309 310 309 309 311 313 315 313 319 319 315 319 320 324 320 319 322 322 326 323 321 321 321 322 325 334 343
299 302 304 302 303 304 305 307 309 311 310 308 305 306 306 303 304 305 307 308 309 311 310 311 313 309 311 312 312 314 316 319 319 321 322 321 318 320 320 321 327 328 324 323 338
303 303 300 305 305 305 306 307 309 309 309 311 310 310 309 302 303 304 306 307 309 309 309 310 313 309 311 313 313 315 321 325 325 321 320 319 320 319 327 340 343 331 325 331 340
303 304 305 307 308 308 308 310 309 309 311 310 310 310 307 306 305 303 303 306 307 310 309 310 311 309 313 318 323 328 325 328 328 327 326 321 326 327 344 348 348 348 331 329 338

GFSSW_925_thetae_042.txt.gz
Theta_e
304 303 304 305 307 306 304 304 306 306 307 307 307 307 309 314 312 313 313 314 312 315 324 349 344 344 346 348 352 346 352 353 353 354 357 353 358 355 353 351 351 345 343 342 342
303 302 303 303 304 303 303 304 306 307 308 308 307 307 312 316 313 314 309 313 313 327 340 347 340 343 348 352 354 356 349 350 347 350 354 353 358 358 356 354 349 344 342 342 341
303 304 304 303 302 302 303 305 307 308 309 309 310 308 315 312 314 314 326 322 314 333 331 335 331 340 347 350 354 357 355 348 347 349 350 353 356 355 357 358 351 346 343 341 340
304 305 305 304 303 302 304 306 309 309 309 311 310 311 314 313 314 317 315 320 315 335 329 331 333 332 347 349 350 359 356 354 353 349 351 354 352 355 355 355 350 342 341 340 339
303 304 306 306 304 303 305 309 309 309 308 314 310 313 313 311 308 317 321 323 322 335 330 324 332 324 340 345 341 356 355 352 353 353 351 349 352 353 356 350 343 341 340 339 338
302 303 305 306 306 304 307 309 308 308 313 313 311 314 314 309 310 315 325 323 325 328 324 319 329 323 327 332 342 343 346 349 347 347 346 351 352 353 355 344 342 341 339 337 338
301 302 304 305 307 304 309 309 307 307 318 313 315 315 314 313 316 316 323 323 324 323 317 318 319 323 321 328 328 337 339 336 335 343 346 344 356 354 353 344 343 341 338 336 339
301 301 303 305 307 305 309 307 307 310 318 315 317 317 315 316 315 311 311 316 321 320 316 319 318 319 320 322 321 329 333 338 337 337 341 344 350 356 351 346 343 341 338 338 341
301 301 303 306 308 306 307 306 307 317 315 319 319 317 313 311 311 309 309 315 323 320 317 317 316 315 319 322 322 321 338 337 341 339 345 345 350 357 352 349 346 342 339 339 342
302 301 301 306 308 307 306 306 308 315 317 317 318 312 308 307 308 309 311 319 322 320 320 316 312 313 313 319 328 328 329 336 341 339 344 346 346 357 352 351 349 346 341 341 342
302 301 301 307 307 307 307 306 301 302 303 303 302 305 307 307 309 311 312 314 318 317 319 314 314 315 315 320 324 327 332 336 336 336 345 346 348 359 355 351 353 351 347 344 344
301 301 300 308 306 306 307 303 305 305 303 302 303 303 305 307 307 310 312 315 320 320 316 315 315 315 314 314 320 322 323 327 331 335 338 339 347 357 356 354 352 351 350 348 346
301 301 302 309 306 306 307 306 307 306 301 302 304 306 306 306 309 309 309 311 312 320 318 317 316 316 316 317 316 318 322 323 331 331 333 336 341 357 356 353 352 351 349 349 348
301 301 304 309 305 306 305 306 309 305 301 306 307 306 306 307 306 309 310 311 312 317 320 319 319 320 316 317 318 316 320 324 324 329 333 335 342 353 358 357 354 352 351 349 348
301 300 306 310 306 305 306 309 306 302 306 309 306 307 305 305 306 307 310 311 314 314 314 320 321 321 321 317 318 318 319 321 324 327 329 330 334 342 356 360 356 354 352 349 348
300 300 309 310 307 307 309 309 303 302 306 308 306 306 305 305 308 308 309 312 313 316 315 315 315 317 322 322 319 322 323 322 324 323 330 328 332 331 357 359 356 353 352 351 349
300 301 310 309 307 308 310 301 302 303 306 306 305 304 305 307 308 307 311 313 314 314 318 318 318 315 317 321 321 324 323 326 327 328 332 329 331 331 329 354 353 353 352 351 349
300 302 309 309 307 309 304 302 306 306 306 304 305 304 306 307 307 308 307 314 314 313 315 317 320 318 317 318 323 324 324 326 330 329 330 325 331 329 329 341 351 350 350 350 350
301 302 309 308 308 309 301 303 305 304 304 305 303 305 305 307 307 307 307 312 314 313 315 315 318 314 316 318 321 324 327 322 324 319 325 327 324 323 325 330 344 347 349 349 349
302 304 307 307 307 305 302 305 304 306 306 305 305 305 306 305 307 308 308 308 313 312 310 314 317 314 316 319 319 324 324 328 323 334 326 326 320 333 323 326 332 340 345 347 347
303 299 307 307 304 298 303 301 303 306 306 306 305 305 305 306 307 308 307 309 310 311 310 312 316 315 315 320 321 322 329 328 326 323 332 322 322 322 324 326 327 332 343 344 345
300 297 307 307 303 298 302 303 305 306 306 306 305 304 305 306 307 307 309 310 312 312 313 313 316 318 317 317 318 318 322 326 332 328 319 322 329 321 320 321 323 325 338 342 343
301 302 307 306 305 303 303 306 307 307 306 307 307 305 303 305 307 308 309 310 312 312 311 311 313 318 317 316 314 318 320 321 318 328 330 334 330 321 318 319 318 320 323 336 342
302 303 301 299 299 304 306 306 308 309 309 309 306 304 304 305 306 305 308 311 311 309 311 312 314 315 316 317 313 314 314 319 319 327 331 331 329 327 325 320 320 318 319 325 338
298 300 303 303 302 306 306 305 308 310 310 309 308 309 309 306 303 304 305 306 309 310 310 309 314 313 312 312 312 313 313 314 316 319 328 325 325 325 323 322 318 319 320 321 328
303 303 300 305 305 306 306 309 309 309 309 311 311 310 309 311 308 306 304 304 306 309 310 310 312 314 312 311 311 312 314 315 316 319 318 319 319 326 319 331 345 345 343 331 326
303 303 305 307 307 307 309 309 309 309 308 309 311 311 311 309 306 303 301 302 305 308 310 310 313 312 310 312 314 317 318 325 328 328 327 321 326 332 336 349 347 347 348 349 336

GFSSW_925_thetae_048.txt.gz
Theta_e
302 303 305 306 307 305 303 305 308 309 308 309 309 315 315 313 313 317 315 316 315 316 344 344 344 345 344 350 352 353 361 364 357 358 363 357 359 355 353 353 352 350 349 349 347
301 302 303 304 306 307 304 305 309 308 308 308 310 312 313 313 317 316 314 319 316 329 341 342 345 342 344 348 353 356 358 355 352 352 355 357 358 358 358 356 353 350 348 348 347
302 302 302 303 305 307 305 307 309 308 307 307 313 310 311 314 319 322 317 323 326 335 336 336 337 340 339 346 350 354 356 353 351 350 354 360 361 359 358 360 355 353 352 347 347
302 302 302 303 306 307 306 308 308 307 307 314 312 311 310 317 321 316 323 319 321 327 334 334 336 336 337 345 347 351 352 353 352 351 354 356 355 357 355 357 353 350 349 349 348
302 302 302 302 307 308 306 307 307 306 310 314 312 311 317 318 314 316 326 331 322 331 335 333 335 334 334 336 339 347 351 354 351 352 351 352 355 354 356 354 351 349 349 348 347
302 302 302 302 308 308 306 307 306 306 314 312 312 313 319 316 316 316 324 325 324 332 333 330 332 330 330 331 334 336 341 353 352 353 352 353 353 351 353 354 353 351 350 348 346
302 302 301 302 308 306 306 306 306 309 311 314 316 318 317 314 314 314 319 325 326 327 331 326 326 329 326 330 332 334 342 341 347 349 352 350 352 353 355 354 354 353 350 348 346
301 301 301 302 308 306 306 306 307 311 313 314 317 321 316 313 314 313 316 324 326 328 326 326 325 327 325 326 324 329 330 339 342 345 348 350 355 354 354 355 356 354 351 349 346
301 301 301 305 307 307 307 307 311 308 313 317 321 319 314 312 313 313 313 323 324 324 323 324 325 328 328 325 324 325 328 332 341 345 349 350 352 357 353 355 356 354 352 349 347
301 300 301 306 306 307 307 308 306 318 317 319 317 317 312 312 311 314 318 324 325 327 320 321 324 324 325 325 326 326 326 331 335 345 350 352 351 357 354 355 356 355 353 350 348
300 300 300 308 306 307 309 311 318 314 312 311 312 312 311 312 311 316 318 323 324 328 325 320 323 324 323 324 324 326 329 330 336 341 350 352 351 353 356 355 356 355 354 351 349
300 301 301 309 306 308 310 312 311 310 313 309 310 311 310 311 314 314 319 325 322 325 323 321 321 322 323 322 323 323 330 334 334 337 345 351 351 349 357 356 355 354 353 351 348
304 303 302 309 307 309 310 310 310 309 313 310 311 311 311 312 312 311 315 319 326 323 322 323 323 321 320 321 322 323 323 326 333 335 336 346 352 351 351 356 355 353 351 350 348
306 306 303 308 308 309 310 309 310 309 314 312 312 310 311 312 312 310 312 316 320 326 325 322 322 322 321 321 321 322 322 322 324 331 340 340 352 351 349 356 356 356 353 351 349
306 307 303 309 311 311 310 310 308 308 312 312 311 309 311 312 311 311 312 314 318 320 325 326 325 325 325 323 322 323 322 321 321 323 333 339 346 348 349 351 357 356 355 352 350
307 307 303 312 311 310 310 309 307 313 312 311 310 310 311 311 311 311 313 314 316 315 321 323 323 323 325 325 324 323 323 322 322 322 323 332 342 347 348 350 349 353 353 354 353
307 305 305 309 312 310 310 309 312 312 311 311 310 310 310 311 311 310 314 314 315 313 317 319 320 323 323 326 327 325 325 328 327 325 323 325 331 341 342 344 347 349 352 353 353
307 305 308 309 309 309 311 313 312 312 311 309 309 309 311 310 311 310 312 314 314 315 315 315 316 318 320 323 327 326 326 331 333 328 324 324 326 331 336 339 341 346 348 351 353
307 309 310 309 308 310 313 313 312 312 310 310 310 311 312 310 310 310 311 313 313 314 314 315 314 318 318 321 324 327 328 327 330 330 330 326 324 324 331 336 338 340 345 348 352
307 310 308 308 307 310 313 311 312 310 310 310 312 311 312 311 311 311 310 313 312 311 311 315 311 312 314 315 320 325 326 329 328 333 334 331 330 326 329 336 337 338 340 345 350
308 312 308 308 306 313 314 315 312 310 310 311 312 312 311 311 311 312 311 311 312 312 311 312 311 312 310 311 316 322 325 326 328 329 333 334 331 329 328 329 335 337 339 341 348
310 310 308 310 315 314 315 312 307 311 310 310 310 311 311 311 311 312 311 310 311 311 311 312 313 315 311 310 311 313 322 325 329 331 331 332 333 329 329 329 330 334 338 340 344
312 310 309 312 317 315 312 312 311 311 312 312 311 311 311 311 311 310 310 308 310 310 310 312 312 313 310 310 311 312 314 320 324 328 332 334 334 331 331 332 331 331 333 339 341
312 315 313 311 310 310 310 311 312 310 311 312 312 312 311 311 310 310 309 309 310 310 311 309 309 311 311 311 310 314 316 318 323 327 329 330 331 333 332 331 332 333 334 334 337
312 312 310 312 310 310 309 310 310 311 310 310 312 312 313 314 312 310 309 309 310 310 312 312 315 311 310 310 310 310 309 314 320 323 327 327 329 330 334 332 332 333 333 333 334
313 312 308 308 308 310 310 311 311 311 310 310 311 311 312 315 313 312 311 311 310 312 311 312 314 311 311 310 310 309 308 309 312 317 321 323 326 327 332 334 333 332 334 335 339
306 305 308 307 309 311 311 311 311 310 310 310 310 311 310 311 310 311 311 312 313 312 313 313 314 313 311 309 308 309 309 311 311 315 319 323 325 329 334 336 337 337 337 342 344

GFSSW_925_thetae_051.txt.gz
Theta_e
302 302 302 303 305 306 307 305 307 309 307 308 308 310 311 310 313 318 318 320 319 312 334 338 338 342 345 347 346 352 360 366 359 361 364 360 363 356 356 354 353 353 354 351 348
302 302 302 302 304 307 307 305 308 309 307 307 307 311 310 311 319 320 317 313 315 317 336 337 341 342 346 347 349 355 356 357 354 354 361 359 358 357 356 357 356 354 352 349 348
302 302 302 302 303 307 307 306 308 308 307 307 313 311 310 315 324 325 317 318 319 324 336 338 339 342 343 343 348 351 353 351 353 352 355 359 358 356 358 359 356 355 354 350 349
302 302 301 301 303 308 308 306 307 307 306 312 314 311 311 320 327 322 319 321 320 325 336 338 338 340 340 340 344 350 349 348 352 352 356 361 361 359 358 359 353 352 351 350 352
302 302 301 301 304 308 307 306 307 306 307 314 313 311 318 323 319 318 325 326 325 324 336 337 336 338 336 336 341 347 347 352 353 353 353 355 357 356 355 355 352 351 351 351 350
302 302 301 301 306 307 306 306 306 306 310 313 311 311 324 322 317 317 325 330 328 323 333 334 334 335 334 334 337 338 342 351 354 352 352 352 354 354 354 353 354 353 353 351 350
301 301 301 301 307 306 306 306 306 309 310 313 315 319 323 318 316 317 324 325 323 326 334 333 331 333 331 331 330 334 339 340 353 353 356 352 356 358 354 355 355 354 353 351 349
301 301 301 301 307 306 307 307 309 308 311 314 316 325 320 315 316 316 320 326 327 330 333 329 329 329 331 329 327 332 336 346 348 351 351 353 357 353 355 356 357 355 353 351 349
300 301 301 301 308 307 307 308 310 309 311 316 325 327 318 314 316 316 317 326 328 329 328 329 328 328 329 328 329 326 333 337 340 348 350 352 357 352 355 356 357 357 354 352 350
301 302 302 302 307 307 308 307 314 312 321 321 320 320 315 316 315 317 319 324 327 329 327 329 328 329 329 330 328 326 328 332 337 346 349 352 360 360 354 356 358 357 354 353 351
305 306 303 304 307 308 311 315 323 322 316 316 317 316 315 315 315 319 324 326 328 329 326 326 328 328 330 330 328 327 327 330 334 340 349 352 356 364 354 355 357 357 356 353 352
306 307 306 305 308 307 311 316 314 314 316 313 313 314 314 315 316 319 322 326 325 331 328 325 325 326 326 326 326 326 327 331 332 338 349 352 353 353 354 354 357 357 356 353 352
306 307 308 306 307 310 313 312 312 313 316 314 314 314 314 315 316 315 319 324 326 327 330 329 326 324 325 326 326 326 327 329 335 337 340 348 353 353 356 354 355 355 354 353 351
307 307 308 307 308 312 314 313 313 313 317 315 313 314 314 315 315 313 315 320 323 326 323 325 325 325 325 324 326 327 326 325 328 337 343 342 354 354 354 356 356 355 354 354 351
307 307 307 306 313 314 313 313 312 313 315 315 314 312 313 314 315 314 313 317 320 322 327 327 324 324 325 325 324 326 326 325 324 327 333 339 347 351 352 358 356 356 354 352 352
307 307 303 313 313 313 313 313 312 315 315 314 313 313 314 314 314 314 314 315 318 320 322 325 326 325 325 325 325 325 325 326 325 324 326 332 343 347 351 351 354 353 355 353 352
307 304 304 312 315 313 313 314 315 313 316 315 314 313 314 315 314 314 316 316 316 315 316 319 322 325 325 326 326 326 327 330 330 327 326 327 336 343 343 348 348 352 353 354 352
307 308 309 310 311 312 314 316 316 315 315 314 313 313 313 314 315 314 314 316 317 317 318 318 319 319 323 324 327 328 328 330 334 332 328 325 329 334 339 342 345 350 351 352 353
309 312 313 311 311 312 316 317 316 316 314 313 313 313 314 314 313 314 315 315 317 316 317 316 318 320 322 322 325 328 330 328 329 331 333 330 327 327 332 336 341 343 348 350 352
312 313 311 311 311 312 316 316 315 314 313 313 314 316 316 316 314 315 316 316 316 314 314 317 320 319 318 320 321 325 328 330 329 332 335 334 333 328 328 331 335 341 344 348 350
313 316 312 313 312 316 318 319 317 315 313 315 316 316 316 316 315 316 316 315 314 314 313 314 316 316 315 317 317 318 322 327 329 329 331 335 335 332 330 329 330 334 340 343 346
316 317 313 314 319 318 321 317 310 315 314 314 314 315 315 316 316 315 315 316 314 314 314 313 314 316 315 315 315 315 318 320 327 333 332 331 333 332 332 330 329 332 337 339 342
318 317 314 315 320 319 317 316 314 315 315 315 315 315 314 314 315 315 315 314 312 312 313 314 315 315 316 316 315 313 315 321 324 325 332 333 331 332 332 331 332 331 332 337 339
317 320 318 315 314 316 316 315 315 313 314 314 314 314 314 315 314 315 313 312 311 312 312 311 314 316 317 317 314 316 313 315 320 325 327 330 332 331 333 332 333 333 332 334 339
316 316 314 317 315 315 314 314 314 314 313 313 313 313 314 316 315 315 314 313 312 312 312 312 313 314 314 313 313 313 314 315 317 319 322 326 329 332 333 334 333 333 334 335 335
316 315 313 314 313 314 313 313 312 312 312 313 313 313 313 314 314 316 315 317 315 312 312 312 315 314 317 314 312 312 312 313 312 313 319 323 326 327 328 329 332 334 334 335 336
310 310 314 309 313 313 312 312 312 312 312 312 311 312 313 313 312 313 313 313 315 316 316 315 315 316 317 315 313 313 313 312 312 312 312 315 320 322 324 327 329 333 335 334 336

GFSSW_925_thetae_054.txt.gz
Theta_e
302 302 302 302 302 305 308 307 306 308 309 307 307 307 311 310 310 317 317 321 320 318 315 327 334 339 344 349 349 347 361 367 363 363 368 363 364 354 352 357 355 353 354 350 347
302 302 302 301 302 305 308 308 306 308 308 306 307 312 311 311 318 320 320 318 319 317 320 334 336 340 346 347 348 350 360 358 353 355 363 363 360 359 358 356 356 355 352 350 347
302 302 302 301 302 306 308 308 306 307 307 306 309 313 311 314 324 325 320 318 313 315 327 336 335 341 343 346 346 348 355 350 351 354 357 361 358 354 356 357 356 358 354 350 347
302 302 301 301 301 307 307 306 306 306 306 306 312 313 311 319 332 324 317 317 317 320 327 337 338 341 343 345 344 348 348 349 349 353 358 363 360 360 356 360 354 354 351 349 349
301 301 301 301 302 307 307 306 306 306 306 308 314 311 316 324 326 320 322 322 321 322 328 340 340 340 341 340 340 343 345 346 351 354 356 360 360 361 359 354 352 352 350 350 349
301 301 301 301 302 307 306 307 306 306 308 312 311 312 320 330 318 318 322 331 325 320 327 340 339 337 337 337 336 340 343 344 349 353 354 359 358 358 355 353 354 352 352 350 349
301 301 302 302 302 307 307 307 307 309 310 310 315 317 328 327 317 318 322 328 326 322 327 336 336 335 335 334 333 333 338 338 342 354 354 353 355 357 357 354 355 353 352 351 349
301 303 304 303 302 307 307 308 308 308 311 314 315 323 332 316 317 317 321 327 327 324 325 334 334 333 334 333 330 330 333 338 340 353 354 355 356 351 356 358 356 354 353 352 350
305 306 307 306 303 307 307 308 307 308 310 313 324 326 329 316 317 317 318 326 326 326 330 334 332 332 330 333 331 329 330 336 339 346 353 355 359 359 355 356 357 356 353 352 351
306 307 308 308 305 307 308 311 312 311 320 321 321 323 321 317 317 318 319 326 328 330 332 333 332 330 330 331 333 330 328 331 336 338 349 351 355 359 358 352 357 356 354 352 350
307 307 308 308 306 308 307 316 321 325 320 322 321 320 317 317 316 320 322 322 327 331 331 331 332 332 331 329 331 329 328 327 331 334 349 352 358 353 351 349 357 357 355 354 351
307 307 308 308 306 308 308 318 315 315 317 319 316 315 315 316 317 321 324 327 328 333 328 328 331 331 327 330 330 331 330 328 329 332 342 358 358 353 350 355 356 356 354 353 351
307 307 308 308 306 308 314 315 314 315 316 317 316 315 316 316 317 317 319 325 327 327 330 327 327 326 327 327 329 328 329 328 329 332 337 341 356 352 347 350 352 352 352 352 352
307 308 307 307 310 315 315 314 315 315 317 318 315 315 315 315 316 317 316 320 323 326 326 329 328 327 325 327 327 328 327 327 327 330 337 339 348 359 359 359 351 348 353 352 352
307 307 307 303 309 316 315 314 314 315 319 316 316 314 316 315 316 316 315 317 319 323 326 326 327 328 327 326 326 327 328 328 327 327 331 339 343 344 361 361 354 357 356 352 352
307 307 305 310 311 314 313 314 314 316 316 316 316 314 314 315 316 316 315 316 318 319 321 323 326 325 325 325 325 326 326 327 328 326 327 329 335 340 350 356 351 354 354 353 352
307 306 304 309 317 315 313 316 316 316 318 317 315 314 315 316 316 315 316 316 315 316 317 321 323 326 327 325 325 326 326 328 329 329 327 326 327 333 340 355 354 349 348 348 354
309 308 312 311 312 312 313 317 318 318 317 316 314 314 314 316 315 315 315 316 318 317 318 319 317 320 325 327 326 326 326 328 331 330 329 329 327 328 331 341 351 349 350 351 354
310 314 314 314 312 312 316 319 318 317 316 315 315 313 313 314 315 316 316 316 317 318 317 317 319 321 320 324 325 327 330 327 328 329 330 330 329 328 329 334 345 348 351 351 352
310 316 314 314 312 313 317 317 318 316 316 315 315 315 317 317 316 316 316 317 316 318 317 318 319 320 321 322 323 324 326 329 329 333 336 331 334 331 331 334 340 347 346 348 352
314 320 316 316 315 317 319 321 320 317 316 316 317 318 318 318 318 318 317 317 316 316 315 315 316 317 320 320 320 321 322 325 329 331 333 333 332 335 339 333 336 348 348 344 347
319 320 317 316 320 321 322 319 311 318 317 317 316 317 317 317 318 318 318 317 316 315 316 316 314 317 317 318 319 318 319 318 321 333 332 332 331 332 335 333 332 331 335 350 351
321 319 317 318 322 322 319 318 316 316 317 316 317 317 317 317 317 317 317 316 315 314 316 316 316 316 317 317 317 316 316 316 317 319 327 333 332 331 333 336 333 332 332 339 352
321 322 320 317 317 318 319 317 317 315 316 315 315 315 316 316 316 317 318 316 315 313 315 313 315 317 318 318 317 318 317 316 316 321 323 323 329 334 333 336 337 338 339 336 341
318 318 316 318 317 317 317 316 316 315 314 314 315 315 315 315 316 316 315 317 316 315 313 313 314 315 315 315 315 316 316 316 316 316 322 323 325 329 330 331 334 336 337 339 340
317 318 316 315 315 316 314 315 314 314 314 314 314 313 313 314 314 315 314 315 316 317 315 313 314 315 316 315 316 316 315 315 316 315 316 318 321 323 326 327 331 333 334 334 335
314 314 316 313 315 315 315 314 314 314 314 313 313 313 313 313 312 312 312 313 314 314 318 316 316 316 317 314 316 317 317 315 315 316 316 316 319 320 320 322 326 327 327 329 332

GFSSW_925_thetae_057.txt.gz
Theta_e
302 302 302 301 301 302 307 308 307 306 307 308 306 306 311 310 310 314 317 315 316 317 319 325 329 332 348 352 352 351 355 365 364 360 366 360 362 353 352 356 356 352 351 347 344
301 301 301 301 302 302 307 307 306 306 306 307 306 308 312 311 314 318 315 316 319 319 316 324 330 333 340 347 348 353 355 357 353 354 361 356 359 352 357 357 358 355 350 348 346
301 301 301 301 301 302 307 306 306 306 306 306 306 311 312 311 322 325 315 320 318 319 316 324 330 333 341 344 346 346 353 349 351 353 357 356 357 356 358 360 357 357 351 347 347
301 301 301 302 302 302 307 306 306 306 306 306 306 313 311 317 332 324 321 321 318 315 317 325 333 334 342 343 344 348 345 346 349 357 361 362 359 356 356 357 356 352 349 346 346
301 301 302 302 303 302 307 306 307 306 306 306 311 312 316 321 321 319 321 318 317 316 319 325 338 338 341 341 340 343 343 343 349 353 361 358 361 359 357 352 353 352 349 346 345
301 303 305 305 305 303 306 306 307 308 310 312 310 311 316 327 319 320 322 323 323 323 321 326 339 338 338 339 338 338 339 339 342 356 360 359 359 359 356 348 351 352 349 347 345
304 306 307 307 307 304 306 306 307 309 309 309 315 316 324 328 319 318 318 330 326 323 319 326 335 340 335 335 334 332 332 332 336 348 357 355 358 359 356 354 355 352 349 347 345
307 307 307 308 308 306 307 307 307 308 310 314 316 321 329 323 317 318 318 323 329 325 320 326 333 336 332 332 333 329 327 330 333 343 351 353 364 360 357 357 355 352 350 349 346
307 307 307 308 308 307 307 307 308 310 309 314 320 322 328 317 316 317 318 322 328 327 322 322 327 333 331 330 331 331 326 328 330 333 353 354 365 361 358 358 355 353 352 350 348
307 307 307 307 308 308 307 309 312 314 315 321 321 322 323 320 317 318 318 318 325 323 324 324 331 330 329 326 331 332 327 325 327 333 352 357 364 358 354 356 358 354 353 350 348
307 307 307 307 308 308 307 309 318 318 316 322 323 322 320 317 316 317 320 320 326 327 330 331 333 332 328 327 327 329 330 328 326 328 346 357 365 363 353 356 360 358 353 351 349
308 308 307 307 307 307 307 312 314 314 314 317 320 319 316 316 316 320 323 319 326 328 329 329 332 331 330 329 329 327 328 328 329 327 330 353 362 355 357 354 358 354 353 351 349
308 307 307 307 307 309 310 314 314 315 314 315 314 315 313 314 315 318 321 324 326 327 331 327 328 329 330 330 327 327 327 328 328 327 336 354 358 354 351 353 353 354 350 349 348
307 307 307 307 309 310 313 315 314 315 313 317 314 315 315 315 314 317 316 317 321 326 326 326 327 327 327 328 326 324 326 327 326 325 326 351 362 355 352 357 358 351 348 347 348
307 307 307 305 305 310 315 314 314 314 318 316 314 314 315 313 316 315 315 314 315 318 321 324 324 327 328 326 324 324 326 325 326 324 323 324 326 352 353 359 355 356 345 343 344
307 308 306 312 310 315 316 313 314 314 318 316 315 314 313 313 314 315 315 314 315 315 316 318 320 323 326 327 325 325 324 323 323 323 325 323 324 330 359 357 351 345 343 343 345
308 309 307 305 314 313 312 313 315 315 317 315 314 313 313 314 315 315 315 314 313 314 315 318 320 321 322 324 322 323 322 322 324 324 326 323 322 321 354 354 350 347 345 347 354
309 310 309 311 312 313 312 314 319 318 315 315 314 314 314 315 315 315 314 313 315 313 313 315 315 315 321 324 326 322 320 322 326 327 326 324 325 323 324 353 347 345 348 353 350
310 314 315 316 314 312 312 317 318 316 316 315 314 313 314 313 314 315 316 314 315 315 316 316 317 318 319 322 325 325 325 321 322 323 325 325 325 325 324 339 349 348 350 348 348
311 315 318 315 313 312 315 317 318 316 316 316 317 316 317 317 315 315 315 315 317 316 314 315 314 316 317 319 323 323 323 322 322 326 328 327 327 328 327 325 347 349 348 353 352
315 320 317 317 316 316 318 321 319 317 317 316 317 317 317 317 317 318 318 316 316 316 314 315 313 313 314 317 319 321 320 321 321 325 328 326 326 326 331 332 347 348 347 352 349
317 323 317 317 320 322 321 318 315 317 317 317 317 317 317 317 317 317 317 317 316 315 315 314 313 312 313 314 315 315 318 317 318 322 326 330 331 327 329 333 339 347 346 350 350
318 321 317 318 320 320 319 316 315 315 315 315 316 315 315 316 317 318 317 316 315 314 315 312 313 314 313 313 315 316 315 313 312 311 314 318 326 327 327 328 332 334 337 347 347
319 322 318 317 316 316 318 317 316 314 314 314 315 315 314 314 314 317 317 316 316 315 316 313 312 313 314 315 314 315 315 315 313 310 312 315 318 319 326 326 327 331 329 335 349
320 316 316 317 316 316 315 314 313 313 313 313 315 313 312 313 313 314 314 315 315 317 315 312 312 312 312 313 313 314 314 315 314 313 314 314 316 324 322 322 325 324 324 325 329
316 318 316 315 316 315 314 315 314 314 315 313 314 313 313 313 313 313 312 312 313 314 314 314 315 312 313 313 313 314 315 316 316 315 314 314 314 314 314 315 316 315 316 318 319
316 316 317 314 315 314 314 314 314 314 313 312 314 314 314 313 312 311 310 309 310 311 314 316 316 317 316 314 315 316 314 315 315 316 313 313 313 314 315 316 315 315 317 318 317

GFSSW_925_thetae_060.txt.gz
Theta_e
301 301 301 301 302 301 303 307 306 306 306 306 307 306 309 311 310 314 315 309 315 326 326 322 329 329 344 350 350 351 358 361 359 361 364 360 362 354 353 355 353 352 348 344 346
301 301 301 302 302 302 302 307 306 306 306 306 306 305 311 311 312 316 312 310 316 320 319 324 324 329 334 350 351 356 358 357 350 357 363 361 359 353 357 357 357 355 346 344 345
301 301 302 303 304 304 302 306 306 306 306 305 305 306 312 310 320 324 320 315 315 318 317 323 325 331 334 337 346 348 357 352 351 355 350 351 354 355 356 359 357 354 348 344 344
301 303 304 305 306 305 303 305 306 307 307 307 305 310 311 316 331 325 316 317 318 319 319 316 323 331 335 341 342 348 346 346 348 354 353 356 358 360 357 359 355 350 346 344 344
303 305 306 307 307 307 306 305 306 306 308 310 311 312 316 320 315 323 320 320 317 316 317 320 329 334 334 339 342 341 343 345 346 357 354 350 354 355 356 356 353 350 347 346 344
306 307 307 307 307 308 308 306 306 306 308 309 309 312 315 325 325 319 321 319 317 316 320 318 329 335 337 337 339 339 338 337 358 356 354 356 359 356 354 353 354 351 348 346 344
307 307 307 307 307 308 308 306 307 307 308 311 315 316 320 321 320 319 322 324 319 317 318 318 322 330 337 336 335 336 335 328 346 360 360 355 362 361 351 352 355 353 348 346 343
307 307 307 307 307 307 308 307 307 307 308 311 315 320 321 326 322 321 322 327 325 323 318 317 321 327 336 335 331 330 326 326 333 359 358 352 364 359 353 356 356 353 349 347 344
307 307 307 307 307 307 307 307 308 309 309 311 318 320 324 321 317 316 317 317 327 324 322 319 321 325 330 330 326 326 331 329 326 337 358 355 366 359 357 357 355 352 350 347 345
307 308 307 307 307 307 307 308 311 313 313 320 321 320 319 321 316 317 317 319 326 324 323 321 319 323 326 325 329 331 331 325 325 325 353 359 363 361 358 357 355 352 349 347 347
307 308 307 307 307 306 307 308 310 314 318 317 319 319 318 319 316 316 319 318 323 321 322 324 327 331 330 326 326 327 327 327 327 327 331 359 364 364 359 358 356 352 351 348 349
307 307 307 307 307 307 308 309 312 312 311 313 317 318 319 318 314 315 318 318 324 326 326 327 330 329 329 327 327 328 327 326 326 326 329 361 364 361 357 358 357 354 352 350 349
307 307 307 308 306 312 308 312 315 315 311 312 313 314 315 313 313 315 319 319 324 325 327 328 328 329 331 330 330 327 326 326 326 326 352 358 363 361 354 353 357 356 354 351 349
307 307 308 306 311 306 311 315 314 312 308 312 313 313 312 312 312 315 315 316 319 324 325 327 328 327 328 329 327 326 323 325 327 323 329 349 363 355 358 356 356 346 349 349 349
307 308 308 308 307 308 314 313 312 311 317 315 312 313 312 310 313 313 314 313 314 315 317 321 323 326 327 326 325 326 324 323 323 323 321 324 322 345 355 359 360 346 345 346 349
308 309 309 309 308 314 312 312 312 310 317 314 312 312 311 312 313 314 314 313 313 313 314 314 316 319 321 324 325 324 322 320 318 319 321 321 321 345 355 358 358 355 352 351 347
310 310 310 307 310 312 312 308 311 312 313 313 312 311 311 311 312 313 313 313 310 311 311 313 315 316 320 320 320 321 317 319 321 320 321 320 320 319 350 348 354 355 353 351 347
311 312 313 311 310 311 311 309 316 315 314 313 312 310 311 312 312 314 313 311 312 311 309 311 313 314 315 320 323 321 316 319 323 323 322 321 323 323 334 347 348 350 350 344 344
314 313 315 314 314 315 306 312 314 314 315 315 312 311 313 314 312 313 313 312 314 312 311 313 315 315 316 314 320 323 322 316 318 319 321 321 322 324 329 329 349 346 343 344 344
315 315 316 316 313 311 308 318 315 315 315 313 314 314 314 314 314 313 312 314 314 313 311 313 313 312 314 313 316 322 320 322 317 322 324 323 324 324 329 336 343 347 345 344 350
317 315 317 316 315 308 315 318 316 314 315 314 314 314 314 314 314 314 314 314 314 314 310 310 309 311 311 310 312 311 313 317 316 319 323 324 323 327 331 333 334 347 345 347 350
313 315 315 317 314 312 311 313 313 312 312 312 313 313 314 313 314 315 315 315 314 313 314 310 308 311 312 311 312 312 311 309 315 319 318 323 324 325 327 328 326 329 345 348 348
312 314 316 315 312 311 312 313 312 312 312 312 313 312 311 312 314 315 315 315 314 313 314 310 309 311 311 309 310 312 312 311 307 306 310 312 314 320 325 326 324 325 342 348 350
312 312 310 308 308 311 311 311 312 312 312 311 311 309 309 309 309 312 312 313 313 316 319 310 307 310 311 312 311 312 312 312 308 307 309 310 312 314 316 317 317 322 328 348 347
309 311 310 312 311 310 311 312 313 313 311 310 312 311 309 309 309 311 310 309 311 314 311 308 309 310 310 311 312 312 313 313 313 312 312 311 311 312 313 314 313 316 318 336 345
310 311 309 308 310 311 310 311 313 313 312 312 313 312 310 311 312 312 309 308 310 307 310 309 313 312 313 313 313 314 314 314 313 313 314 313 311 310 312 313 314 316 317 320 322
314 314 308 309 310 310 311 312 313 312 311 312 313 312 312 312 311 309 307 306 306 308 307 311 312 312 314 313 313 313 313 313 313 313 313 314 312 311 312 313 313 318 321 322 322

GFSSW_925_thetae_063.txt.gz
Theta_e
301 301 302 303 304 304 303 304 306 306 306 305 305 306 305 311 311 312 314 309 311 321 325 328 330 333 346 349 350 351 360 360 357 360 364 358 361 355 353 354 348 352 343 345 347
301 303 304 305 305 305 305 304 306 306 306 306 305 305 307 312 312 315 311 309 320 323 330 330 328 328 336 351 351 356 359 359 351 357 361 360 359 356 357 356 355 346 344 346 348
303 305 306 306 306 306 307 306 305 306 306 307 306 305 311 311 319 322 324 310 319 324 323 322 325 330 334 337 352 350 360 352 352 355 357 360 358 354 356 359 356 347 347 346 348
305 306 307 307 307 307 307 307 306 306 306 308 308 309 310 315 322 325 314 311 316 319 316 318 323 331 333 340 338 347 347 350 346 352 351 353 357 358 357 357 353 344 346 346 346
307 307 307 307 307 307 307 308 307 306 306 309 310 310 314 319 314 323 312 314 317 317 317 316 326 329 334 336 339 344 344 342 342 347 352 350 352 357 358 356 351 344 345 346 345
307 307 307 307 307 307 307 307 307 306 306 310 309 309 315 316 323 321 316 318 318 318 317 320 324 329 334 334 338 339 341 339 345 353 351 353 357 355 356 354 351 347 345 344 345
307 307 307 307 307 307 306 307 307 306 306 310 316 317 318 313 322 320 320 320 319 317 317 316 324 330 335 340 335 336 339 334 356 353 356 355 361 359 355 354 354 350 346 345 343
307 307 307 307 307 306 306 307 307 307 307 311 314 320 321 320 324 321 321 323 319 317 317 317 319 324 332 333 330 328 325 327 354 356 358 356 358 356 355 356 354 352 348 347 342
307 307 307 307 306 307 306 307 308 309 308 314 318 320 323 322 324 322 320 325 323 322 318 318 319 323 326 331 326 324 331 330 339 358 359 358 361 357 355 357 356 352 349 348 344
307 307 306 306 307 307 306 308 311 311 317 319 320 319 317 320 316 315 316 322 326 321 321 320 317 319 322 326 334 330 331 327 326 355 357 359 358 358 355 357 356 353 350 347 346
306 306 306 307 308 305 307 310 307 310 319 314 313 316 318 318 314 316 315 323 321 322 323 319 320 323 325 326 328 327 327 327 326 325 326 357 357 361 358 358 357 353 351 347 346
307 306 307 308 307 307 308 307 311 310 309 312 316 317 318 318 315 314 317 317 322 323 322 324 326 326 329 327 326 327 327 327 325 325 324 333 358 360 359 358 355 353 350 348 345
307 307 308 309 307 310 306 312 312 311 309 310 312 313 313 316 314 313 315 317 323 325 325 326 328 328 330 331 330 327 326 326 326 325 354 357 363 363 358 354 355 353 350 348 346
308 308 309 308 309 308 309 312 311 311 307 310 312 313 312 311 312 313 318 317 317 324 324 326 326 328 327 329 328 328 325 327 325 323 322 349 356 362 358 355 354 356 353 350 347
309 309 309 308 310 309 312 312 312 309 315 314 311 312 309 310 312 313 313 313 315 316 320 325 322 328 327 325 325 326 325 323 323 321 320 324 330 337 356 358 355 357 355 352 349
310 311 311 308 307 312 310 312 311 309 315 313 312 311 310 311 312 313 313 311 311 312 312 313 314 318 321 323 323 324 324 318 315 315 319 319 320 335 359 357 354 353 354 352 350
312 312 311 307 309 309 312 307 309 312 312 313 312 311 310 311 312 313 313 312 310 311 311 312 314 315 318 319 318 319 316 320 320 319 320 318 319 320 344 351 350 351 353 345 345
314 312 314 312 311 313 310 308 314 315 314 312 311 308 311 310 311 312 310 309 311 310 307 309 312 314 315 317 319 317 316 317 322 320 321 318 322 323 327 335 345 348 348 348 346
315 314 315 315 315 314 307 311 313 313 314 313 313 312 313 313 312 311 312 312 312 310 310 312 314 312 314 313 315 320 320 315 315 316 319 319 321 323 330 331 332 347 350 350 349
317 317 315 315 314 311 312 316 313 312 312 312 313 313 314 313 314 312 312 312 313 311 309 311 314 311 312 312 311 314 317 320 315 320 322 320 322 330 329 327 329 345 349 350 349
317 311 315 315 313 308 313 313 313 312 313 312 313 313 313 313 313 312 314 314 313 313 309 309 309 311 310 310 311 310 310 309 314 315 319 322 326 326 327 323 324 332 343 347 342
313 312 314 313 309 306 308 310 311 311 310 311 311 311 312 310 312 314 316 314 314 311 313 309 306 311 311 309 311 311 310 307 312 316 314 319 323 314 320 319 319 344 341 341 344
312 312 314 313 311 309 310 311 311 311 310 311 310 309 308 309 312 312 314 312 314 315 317 311 307 309 310 308 308 310 310 309 305 303 308 312 314 313 312 313 315 337 347 349 348
308 311 308 306 305 309 310 311 312 312 311 310 310 308 308 308 307 310 311 310 311 314 319 309 304 308 309 311 309 311 311 310 307 309 309 309 310 309 311 312 313 316 326 341 345
305 309 308 310 309 309 309 312 313 312 310 309 311 310 309 310 310 310 309 308 309 310 310 306 309 311 309 309 311 311 313 312 312 312 313 311 311 310 309 309 311 318 322 324 329
310 310 306 307 307 308 308 311 312 312 311 312 312 311 309 311 311 312 310 308 309 307 307 307 312 311 312 312 312 312 312 312 312 311 312 312 313 309 311 310 317 317 318 317 318
312 311 305 307 308 309 310 312 312 310 311 312 312 310 312 312 310 308 306 307 308 309 306 308 309 309 313 311 311 311 312 312 312 313 312 313 312 313 314 314 315 313 313 314 314

GFSSW_925_thetae_066.txt.gz
Theta_e
302 305 306 306 305 306 306 306 305 306 305 306 305 305 305 307 310 312 313 309 311 316 324 330 335 338 347 348 349 350 359 359 357 358 363 356 360 355 354 351 347 347 346 345 345
304 306 307 307 308 307 306 307 306 305 305 306 307 305 305 310 312 314 310 309 311 319 331 331 329 331 345 350 350 355 360 357 352 356 360 358 359 358 357 354 348 349 346 345 348
306 307 307 307 307 308 307 307 307 306 306 306 308 306 308 310 317 318 324 310 318 327 326 323 327 330 336 341 352 353 359 352 352 357 357 358 358 355 357 358 350 351 348 348 348
307 307 307 307 307 307 307 307 307 306 306 306 309 310 310 313 318 324 319 314 328 327 322 323 327 332 336 342 339 349 346 349 346 351 352 357 355 357 355 355 347 346 346 348 348
307 307 307 307 307 307 306 306 307 307 306 307 309 310 314 316 311 321 311 318 328 320 318 318 329 329 336 336 338 343 345 342 342 343 350 353 356 358 357 354 344 346 347 348 348
307 307 307 307 307 306 306 306 306 307 306 307 313 310 315 311 320 317 311 314 320 317 315 320 325 328 331 333 340 339 341 340 336 339 348 351 353 355 358 351 347 348 347 347 347
307 308 307 307 306 306 306 306 306 306 306 308 313 315 317 309 321 318 315 317 318 317 314 318 324 329 332 338 335 335 338 333 334 353 353 356 360 357 357 349 349 349 347 346 346
307 307 307 306 306 307 307 306 306 307 307 310 315 319 320 319 324 320 319 321 319 317 317 317 320 324 329 331 328 327 325 328 347 353 355 350 355 357 356 352 349 349 348 347 345
306 306 306 306 307 307 306 306 309 309 308 316 319 319 321 320 323 322 319 323 320 318 317 317 318 321 324 328 329 324 331 330 329 354 357 354 356 355 356 355 351 348 346 346 345
307 306 306 307 307 307 306 311 313 313 316 318 320 319 317 320 317 323 321 323 322 320 319 318 315 318 320 325 338 331 330 327 328 357 357 358 356 357 356 356 354 350 347 345 344
308 307 307 308 308 307 308 313 305 307 320 312 312 318 314 317 316 313 323 322 320 320 322 318 319 321 322 325 328 328 327 327 325 329 331 331 349 358 354 358 357 353 349 347 343
308 308 309 309 308 308 308 307 310 309 310 311 316 316 316 317 316 312 319 320 322 324 320 320 319 321 323 326 327 326 327 327 325 325 322 332 346 355 353 359 356 354 349 347 344
308 309 310 310 308 309 306 310 310 310 309 309 311 313 313 315 315 311 314 318 322 322 321 322 326 324 329 329 328 327 327 326 327 326 337 355 356 361 359 355 354 354 350 348 345
310 310 310 309 308 309 309 310 310 310 307 309 311 312 311 311 311 312 315 318 320 322 323 325 325 328 327 329 328 331 325 326 327 323 321 345 345 357 358 358 354 354 351 348 345
310 311 311 310 308 309 311 311 309 308 314 313 311 312 308 309 311 312 311 313 316 318 322 325 325 327 327 326 325 329 323 325 324 322 319 323 344 332 354 357 356 354 352 349 346
312 312 311 308 308 311 311 311 309 308 314 312 310 310 309 310 312 311 312 309 310 311 313 318 313 321 325 325 323 323 321 314 313 314 318 318 334 320 355 354 351 352 353 351 348
314 312 311 308 308 309 313 307 308 312 312 313 310 309 309 309 311 311 309 307 308 309 311 311 314 315 316 318 318 318 317 319 319 318 320 316 319 320 327 327 335 348 351 353 349
315 313 313 313 313 313 309 309 314 315 314 311 310 311 312 310 311 311 311 310 311 307 305 309 312 312 313 314 314 316 316 318 322 319 320 317 320 323 327 326 325 341 348 350 351
316 315 313 313 313 311 306 311 313 313 313 312 312 313 313 312 310 310 310 311 311 309 310 311 313 311 312 311 314 316 317 315 314 314 317 317 321 324 324 322 322 325 344 349 347
317 316 313 314 313 311 309 313 313 312 312 312 314 313 314 312 312 311 311 312 313 310 308 310 312 310 311 311 309 314 312 318 313 320 322 319 327 328 323 321 321 326 336 345 345
315 309 313 313 312 306 309 311 312 311 312 313 313 313 311 312 312 312 313 313 313 311 308 308 308 311 309 309 309 311 310 308 312 313 318 323 327 319 319 319 317 342 348 338 347
311 311 314 312 308 303 307 309 310 310 308 309 310 310 311 309 310 314 313 311 312 311 313 308 307 310 310 308 308 309 310 306 315 318 309 318 321 311 310 311 317 334 347 345 342
311 309 313 311 310 307 309 310 310 310 309 309 309 308 306 308 311 311 311 310 310 316 316 311 306 307 311 307 307 309 309 307 303 303 309 316 314 310 310 312 319 329 326 325 333
305 309 307 304 303 308 310 310 311 310 310 309 309 307 307 308 307 310 310 310 308 313 317 307 304 307 308 310 308 311 311 310 307 310 310 310 312 310 310 312 317 319 319 320 321
304 308 306 308 308 307 308 309 312 311 309 308 310 308 308 309 309 310 309 308 308 309 308 305 311 309 308 310 311 311 312 312 311 310 311 309 313 310 311 312 315 314 315 315 315
310 308 303 305 305 308 307 310 311 311 310 311 311 310 309 310 310 311 310 308 308 307 306 304 311 310 311 311 311 312 311 312 311 311 311 310 312 312 312 313 314 312 313 314 314
310 309 304 306 306 309 309 311 311 310 310 311 311 309 311 312 309 308 307 304 306 308 305 307 306 306 309 311 309 311 311 311 311 312 313 312 313 312 312 312 312 311 311 311 311

GFSSW_925_thetae_069.txt.gz
Theta_e
305 307 307 307 308 308 307 306 307 306 306 305 306 306 305 305 309 312 313 309 312 318 325 336 336 345 346 349 351 352 361 362 358 358 363 356 360 355 354 351 347 347 347 344 343
306 307 307 307 307 308 307 307 307 306 306 305 307 306 305 307 312 313 309 309 313 321 332 330 332 346 350 351 352 357 363 359 354 356 359 359 359 357 357 351 351 350 346 344 344
307 307 307 308 308 308 307 306 306 307 306 306 307 308 308 310 316 315 321 309 314 322 330 326 333 342 349 351 352 355 360 354 352 354 356 358 358 357 357 355 350 352 348 345 344
307 307 308 308 308 307 308 306 306 306 306 306 307 310 310 313 315 319 322 309 320 327 324 327 332 337 348 352 349 356 350 350 349 352 354 357 356 358 356 356 349 348 345 345 345
307 307 308 308 308 306 306 307 306 306 306 306 308 309 314 316 313 318 313 321 334 325 323 326 331 336 338 345 344 351 349 346 344 344 347 352 356 356 357 352 348 346 346 345 345
308 308 307 307 308 306 306 307 306 306 306 306 310 310 315 311 318 317 322 333 324 319 321 327 331 334 337 343 344 343 342 341 338 338 343 352 355 355 356 349 349 349 348 346 346
308 308 307 307 307 307 308 307 306 306 306 306 312 314 315 312 324 315 325 326 323 317 320 322 331 333 335 339 337 338 340 333 347 349 353 354 358 358 351 349 350 350 348 347 346
308 307 306 306 307 308 307 306 306 307 306 308 317 319 318 319 324 320 320 320 321 317 317 318 325 330 333 333 333 335 330 339 351 354 354 355 361 358 353 351 351 350 350 349 348
308 308 308 307 309 309 307 311 311 308 308 315 318 320 320 320 327 325 321 320 319 318 317 317 322 329 329 338 341 331 341 336 334 356 357 356 358 360 353 352 351 350 349 349 349
309 308 308 308 309 308 308 313 315 316 319 320 320 322 319 321 321 323 322 320 320 319 318 318 320 329 330 339 343 340 335 331 337 353 357 357 356 359 359 355 354 351 349 350 349
308 309 309 310 309 307 311 314 310 314 320 315 314 317 315 316 316 323 322 323 321 320 320 318 325 330 336 337 332 332 332 333 330 337 338 331 333 346 359 359 355 353 351 350 349
310 310 311 310 309 307 308 311 311 310 314 313 316 316 316 316 316 322 323 323 325 322 321 319 322 325 330 334 331 333 334 333 330 328 330 331 336 358 355 359 358 353 350 350 349
310 311 310 310 309 309 307 310 310 309 313 312 314 315 315 316 316 317 322 323 326 326 322 319 320 323 330 332 333 333 335 332 331 329 338 353 354 360 358 357 358 356 350 349 348
312 311 311 309 308 310 310 309 309 309 312 313 313 315 314 316 313 314 318 323 325 328 325 324 324 326 333 335 334 337 330 331 330 331 330 339 335 354 359 359 359 358 355 351 349
312 312 311 308 309 311 310 310 309 308 315 314 313 311 311 313 314 314 314 318 323 325 326 327 328 328 334 334 332 336 329 331 330 330 326 331 339 343 353 361 358 360 357 352 349
313 312 309 309 309 309 311 309 308 314 316 314 311 313 313 312 313 313 314 313 313 319 323 323 319 329 332 329 328 329 325 322 322 325 329 327 336 332 340 339 337 353 356 354 351
314 313 313 310 310 312 312 310 315 317 315 315 313 311 312 311 313 313 315 315 315 320 324 316 317 317 321 325 325 327 328 329 330 330 331 323 328 334 330 329 330 335 343 355 352
316 314 312 313 311 313 309 316 319 316 316 314 313 314 314 314 314 314 315 316 314 311 314 324 323 315 315 319 322 326 328 328 331 330 329 323 328 333 323 327 333 343 343 350 354
317 315 312 311 312 310 315 318 316 315 314 315 315 316 316 315 315 315 315 316 315 313 316 317 316 313 313 314 317 321 324 323 324 321 327 326 328 325 322 329 336 349 349 348 352
317 314 312 312 311 311 316 315 315 312 313 314 317 316 318 316 316 316 316 316 316 313 311 314 316 313 313 314 315 320 317 323 324 329 329 329 333 328 322 330 338 347 349 345 348
313 317 313 311 310 313 315 314 314 312 312 314 314 315 314 316 316 316 315 316 314 315 312 312 315 316 315 314 315 319 320 320 323 323 327 331 330 316 323 333 335 331 339 348 350
312 317 312 312 315 310 313 312 310 312 311 312 312 311 313 314 316 317 317 315 312 316 314 311 314 316 315 312 311 313 314 315 326 328 322 329 323 317 325 329 325 325 326 330 337
316 313 312 311 315 314 312 312 312 313 312 312 312 311 311 312 317 315 314 311 312 318 316 313 313 317 316 314 313 315 314 312 311 315 323 327 319 317 325 323 321 319 318 318 320
313 315 313 310 307 312 312 313 313 311 311 311 312 311 312 313 313 314 313 311 310 315 316 312 313 315 316 316 314 316 315 314 315 319 318 319 318 319 323 321 318 318 315 315 315
311 312 309 314 313 312 312 312 313 313 312 312 312 312 312 314 314 314 312 312 312 311 313 315 317 314 314 313 314 314 314 314 315 315 318 317 317 319 321 319 317 316 316 316 315
316 313 309 310 309 313 312 313 313 313 313 313 313 313 313 314 313 314 313 313 312 312 312 312 317 315 316 314 314 314 313 313 313 313 314 315 317 317 316 317 318 317 316 316 315
309 307 313 309 312 313 314 313 313 312 313 313 312 313 314 313 312 311 310 309 310 312 312 314 316 315 315 314 313 313 314 313 314 317 316 316 319 316 316 315 315 314 315 314 313

GFSSW_925_thetae_072.txt.gz
Theta_e
307 308 307 308 308 308 307 307 307 307 306 306 306 307 305 305 306 317 315 313 313 331 340 336 333 341 347 350 351 353 364 361 359 363 363 356 359 357 354 355 352 351 350 345 344
307 308 308 308 308 308 307 306 307 307 306 306 306 308 305 306 317 315 314 310 312 331 335 329 335 344 350 351 354 358 363 357 354 354 361 359 359 358 355 354 353 352 348 344 344
307 308 309 309 308 307 307 307 306 306 307 306 306 308 308 314 319 318 321 309 314 324 330 327 333 342 347 350 355 357 359 354 352 353 353 359 357 355 357 356 354 354 350 345 345
307 307 307 308 307 308 308 306 306 306 306 306 306 308 309 319 318 323 321 309 316 330 329 327 335 341 344 350 352 359 354 353 350 348 352 355 356 359 355 356 349 351 347 345 346
307 306 307 306 306 307 308 307 306 306 306 306 306 308 318 319 315 327 319 310 323 329 327 329 331 332 338 341 349 354 353 349 346 343 344 349 355 357 358 352 350 348 346 346 345
310 308 307 306 306 308 307 307 307 306 306 306 307 308 317 316 323 323 322 325 325 325 324 326 327 329 332 338 343 347 347 346 342 339 341 352 355 356 357 353 351 348 347 346 345
312 311 310 307 306 307 308 307 306 305 306 306 308 316 317 316 325 321 327 325 323 322 324 324 327 329 332 336 338 342 345 344 344 343 348 352 360 359 356 353 352 349 347 346 345
311 311 309 308 308 309 309 307 310 308 307 306 311 320 320 318 325 324 326 326 320 321 322 324 328 329 330 335 337 340 342 347 347 346 350 356 363 360 355 354 353 351 348 347 347
311 309 309 310 310 309 308 315 314 308 307 312 322 323 321 325 326 321 321 324 321 320 321 321 327 329 331 333 335 338 344 344 349 349 353 357 360 361 356 353 353 351 349 349 348
309 310 311 311 311 309 309 314 317 319 320 321 321 322 321 322 325 323 322 321 321 321 320 321 327 329 331 331 334 337 342 344 342 353 352 355 357 361 358 356 355 351 351 351 349
310 311 312 311 310 308 314 317 319 323 318 319 317 318 321 320 324 323 323 322 322 322 323 321 326 326 329 331 335 335 340 342 338 348 346 343 337 352 357 359 358 352 353 353 350
312 312 312 310 309 308 313 316 315 314 317 318 318 317 318 319 321 323 323 326 323 322 322 322 324 326 329 333 337 336 339 340 335 333 338 334 335 349 350 357 359 355 353 354 351
312 312 311 310 308 310 312 313 311 312 317 316 317 318 318 318 320 325 324 324 325 322 322 323 323 326 332 336 338 336 337 340 339 334 334 339 342 354 353 353 357 355 354 353 352
312 312 311 309 311 313 314 312 312 312 318 316 316 317 317 319 318 322 323 323 324 327 323 322 323 324 330 336 335 336 335 335 336 336 338 336 346 349 358 357 360 357 355 353 352
312 310 308 309 314 315 312 313 311 313 320 316 316 315 319 319 317 321 322 322 325 327 327 325 323 325 330 334 334 336 335 335 335 338 335 332 339 350 350 359 360 359 357 353 350
313 313 310 312 313 312 312 312 311 319 319 316 315 317 317 316 317 319 320 319 323 325 327 327 324 326 331 334 335 335 333 332 333 335 337 334 335 340 344 340 341 356 358 356 353
313 313 313 313 316 315 315 315 319 320 317 316 315 317 317 316 317 319 319 320 324 327 328 325 327 328 331 335 334 334 333 333 332 333 334 333 334 339 335 336 340 342 341 357 354
314 313 314 314 314 315 315 319 321 318 318 317 316 316 316 317 317 319 320 321 319 320 327 325 326 327 328 333 334 334 333 332 333 332 332 331 332 333 333 341 349 350 344 344 356
316 317 316 314 313 313 319 321 321 318 317 318 316 316 317 316 318 319 320 320 319 318 323 326 323 318 319 320 324 332 334 330 329 330 331 331 334 329 331 344 344 349 349 349 355
320 319 316 313 313 317 320 318 319 316 316 318 319 318 317 317 318 318 320 319 319 317 317 321 323 319 318 319 321 325 328 330 328 332 333 332 334 333 335 345 344 344 347 351 351
319 321 316 313 314 320 321 318 317 316 315 318 318 319 318 319 318 320 319 318 317 318 317 318 321 320 320 322 324 323 325 326 328 329 331 333 333 325 336 339 339 337 334 338 342
318 321 315 315 319 318 319 316 311 316 316 315 316 317 319 319 320 319 319 318 316 319 317 317 320 321 321 317 317 321 324 326 328 331 330 331 328 328 333 332 328 326 325 325 327
319 318 315 317 320 318 316 315 315 316 316 317 317 316 316 319 320 319 318 314 316 319 320 316 318 321 320 319 318 321 320 322 323 326 331 329 327 330 331 333 322 320 319 319 319
317 318 316 317 316 318 316 315 315 313 314 315 316 316 318 319 319 319 317 315 314 318 317 317 318 319 320 321 321 321 319 320 323 327 329 329 327 330 329 329 328 319 316 316 316
317 315 315 315 315 315 315 314 314 315 314 314 314 315 317 320 320 319 318 317 316 316 318 321 322 320 318 317 318 318 318 318 321 324 327 326 327 328 327 325 323 323 321 317 316
317 316 314 315 315 315 313 315 315 315 315 315 315 314 316 318 318 319 318 318 318 317 318 318 322 321 320 317 318 318 317 316 316 318 322 323 324 322 323 323 322 321 321 320 318
315 313 317 312 315 316 316 314 314 315 315 314 314 316 316 315 315 315 314 315 315 317 317 318 320 321 320 317 316 317 318 316 317 318 320 322 324 321 321 320 319 319 320 319 318

GFSSW_925_thetae_075.txt.gz
Theta_e
307 308 308 308 307 307 308 307 307 308 307 306 306 307 307 305 305 314 318 317 318 316 341 339 341 345 348 351 353 355 366 364 363 364 364 358 358 355 354 355 353 352 352 346 345
307 308 308 308 308 307 306 306 307 307 307 307 306 307 307 306 316 319 318 315 313 327 341 336 335 343 350 350 354 359 365 358 356 358 359 359 359 359 357 355 355 352 348 345 346
309 308 307 307 308 308 307 306 306 306 306 306 306 307 308 311 323 320 317 313 311 332 334 330 332 342 348 350 356 357 360 353 355 356 358 359 359 357 356 358 354 354 350 346 346
310 309 306 306 307 308 307 307 306 306 306 306 306 307 309 321 326 331 320 312 313 331 334 328 333 342 346 351 354 360 354 352 352 353 356 361 356 356 357 358 352 350 348 347 348
311 310 309 307 307 307 306 307 307 307 306 306 306 308 318 322 320 330 317 309 319 330 330 329 332 339 344 346 354 358 353 351 348 347 348 353 358 360 357 351 350 351 348 347 347
312 313 310 308 308 309 309 308 308 307 306 306 306 309 319 320 323 326 321 317 322 330 329 328 332 335 335 339 350 353 353 349 347 345 344 353 356 357 359 352 352 351 349 347 347
312 313 312 311 310 309 310 310 306 306 306 306 306 316 320 320 324 323 321 319 323 328 328 327 327 329 332 337 341 347 353 348 345 343 346 354 360 361 356 354 352 351 349 347 347
312 312 310 311 313 311 310 308 311 309 307 306 307 320 325 318 324 325 326 323 324 326 324 325 327 329 330 335 338 345 348 352 346 345 349 356 365 360 357 355 353 350 349 348 347
309 310 311 312 312 311 309 311 312 307 307 307 319 325 323 322 325 327 327 323 323 324 324 325 327 330 331 334 339 341 348 347 349 344 349 356 363 359 357 356 354 351 348 348 347
310 311 312 312 311 310 308 313 320 321 319 321 321 323 324 323 323 324 325 324 323 324 325 324 326 331 332 334 338 338 342 343 348 346 349 357 365 360 357 355 355 352 351 349 347
313 313 312 312 311 308 315 319 324 326 320 324 321 323 321 322 324 323 323 324 323 324 325 324 326 330 331 331 330 334 338 342 342 346 348 350 359 358 359 356 357 353 352 351 349
313 312 312 311 309 308 315 321 317 317 321 320 319 320 321 325 325 325 324 324 324 324 323 325 327 329 329 329 330 334 335 341 341 345 346 342 341 353 355 359 359 355 352 353 350
312 311 311 309 308 310 318 316 315 316 320 319 319 319 321 323 324 324 325 326 325 325 324 326 325 327 327 330 333 337 338 341 341 337 342 339 341 349 347 352 359 356 353 353 351
312 310 309 309 312 316 317 315 316 316 322 318 319 319 321 320 322 323 324 326 326 324 323 324 325 325 328 333 336 336 333 337 338 340 341 339 344 349 350 350 362 357 355 353 352
313 311 309 310 317 317 316 316 315 317 324 318 319 319 320 321 322 325 322 324 325 326 325 324 323 325 329 334 334 334 332 335 339 338 338 340 342 350 353 357 362 358 356 355 353
313 313 311 314 315 316 315 317 316 320 323 318 318 318 321 321 319 323 323 324 325 327 328 326 324 325 326 330 334 335 336 335 335 337 337 337 336 355 353 358 359 357 356 355 353
314 313 314 316 319 317 316 318 321 323 319 318 318 319 321 321 319 322 324 324 324 327 329 328 328 326 326 330 335 337 338 338 338 337 337 334 335 345 341 342 343 353 352 355 354
316 314 319 317 318 317 318 321 324 320 321 318 318 320 319 319 319 321 323 322 322 326 329 328 329 326 327 332 336 337 336 334 335 334 333 335 336 341 342 349 350 349 347 355 354
316 318 320 318 318 318 322 324 324 321 319 319 319 319 319 319 320 321 322 322 323 324 326 329 328 328 328 332 334 335 337 333 332 332 332 336 336 337 345 347 349 354 351 345 355
320 321 319 318 318 320 323 320 321 319 319 320 320 319 319 319 320 321 323 322 322 321 322 326 327 325 324 324 328 329 332 335 334 336 334 335 338 338 346 347 347 346 349 351 349
320 324 319 318 319 323 322 321 320 318 319 321 321 320 321 321 319 320 322 321 320 321 321 322 327 325 324 324 326 328 331 333 333 331 334 336 338 338 346 345 343 334 335 336 335
321 323 319 317 322 321 322 320 313 320 319 319 320 319 320 321 321 322 322 321 319 321 319 320 323 326 324 324 323 325 327 330 333 334 331 333 334 337 340 338 333 327 326 327 324
321 318 317 319 323 320 319 317 318 319 320 319 319 319 320 318 321 319 320 317 320 321 322 321 321 325 325 323 324 324 326 327 328 329 333 333 338 336 336 331 327 324 322 322 321
319 320 318 319 320 319 318 317 316 316 317 319 320 320 321 320 320 320 318 318 318 320 319 321 321 325 324 324 324 325 324 325 327 329 331 333 339 336 336 330 323 321 320 321 320
319 317 319 319 317 317 317 316 316 316 315 317 318 320 322 322 321 320 320 319 318 319 321 322 320 322 321 320 322 324 324 323 325 326 328 335 337 335 333 332 327 322 320 319 319
320 319 316 318 318 317 314 317 317 317 318 317 317 316 318 323 323 323 321 321 321 320 321 321 323 321 320 320 320 320 320 320 322 324 327 331 334 330 328 328 328 328 325 321 319
317 317 319 314 318 318 316 316 316 318 317 317 318 318 318 318 318 319 320 321 321 322 322 323 321 323 323 320 319 319 319 320 320 321 325 330 330 328 327 326 325 326 324 322 321

GFSSW_925_thetae_078.txt.gz
Theta_e
308 310 310 309 309 310 311 310 309 308 307 307 306 306 307 307 305 311 316 318 318 320 321 326 332 340 347 351 352 355 365 367 365 363 362 354 356 352 353 357 354 353 348 346 345
308 308 308 307 308 310 310 309 309 308 306 306 306 306 307 308 316 316 319 319 317 317 336 336 341 345 350 351 354 363 367 361 357 357 359 358 356 356 357 356 355 353 346 345 345
310 308 308 306 308 308 308 309 308 309 306 306 306 306 308 311 324 322 320 319 315 316 336 338 337 340 350 349 354 359 363 355 357 356 356 359 360 359 360 357 354 351 348 346 344
312 313 312 311 310 308 306 308 308 307 307 306 306 306 308 319 332 328 318 317 311 321 337 335 332 338 348 351 354 361 356 353 357 356 356 359 357 356 359 359 351 348 346 346 345
314 313 312 313 312 309 308 307 308 308 307 307 306 306 317 324 321 328 320 317 313 325 336 334 331 339 345 348 354 360 358 353 349 358 357 355 358 358 356 352 350 348 347 346 346
314 313 313 313 312 312 311 308 308 308 306 306 306 307 318 324 324 328 320 315 319 327 335 331 330 336 342 344 354 354 355 351 348 347 350 357 360 358 355 351 353 349 348 347 346
313 311 311 312 312 311 311 309 308 308 307 306 306 315 322 323 324 326 321 317 320 326 332 330 329 334 335 337 343 348 358 351 348 346 350 356 362 361 354 352 355 350 348 347 346
310 310 311 313 313 311 309 309 309 309 309 306 306 318 324 321 322 324 321 319 321 326 331 328 328 329 331 333 338 345 349 355 348 344 349 356 367 361 356 354 354 351 349 348 346
311 311 313 313 313 311 310 308 309 308 308 306 316 321 325 321 323 324 325 323 323 327 328 326 327 328 330 332 339 342 350 349 348 344 351 355 365 359 355 353 353 352 349 348 348
313 313 313 312 312 311 308 310 319 321 313 317 323 324 323 325 322 326 326 324 325 327 327 327 327 330 331 333 338 341 344 347 352 347 348 359 355 354 356 354 353 351 350 349 348
312 312 312 312 311 309 313 319 322 327 323 324 324 325 324 325 323 326 327 323 324 326 327 327 328 329 331 331 333 337 338 341 349 347 347 361 362 363 357 356 354 351 353 349 348
312 311 311 310 309 308 312 325 319 319 320 322 322 322 323 324 325 324 325 325 324 325 326 327 326 327 330 331 331 332 334 337 345 348 357 354 356 359 358 356 354 354 354 352 349
313 310 309 309 309 310 317 320 317 317 319 323 321 320 323 326 326 324 324 325 324 324 324 326 325 326 329 330 330 330 331 338 347 347 349 350 361 362 360 356 356 354 352 352 351
313 310 309 309 310 318 319 317 316 317 321 322 320 321 321 324 326 325 325 324 325 325 325 324 326 325 327 329 329 331 333 337 344 344 344 344 350 355 356 361 360 354 352 353 353
314 313 310 311 314 319 318 316 317 317 326 320 320 320 321 322 323 325 324 325 328 325 325 325 325 325 326 328 330 333 334 335 341 342 339 339 341 348 351 367 365 358 353 353 352
315 313 313 314 314 317 316 317 318 320 326 319 320 319 321 322 322 325 325 325 326 326 326 324 324 325 326 328 332 334 335 333 336 341 339 339 339 360 359 354 359 360 355 356 353
316 314 313 316 320 318 317 319 322 323 324 319 318 319 320 322 322 324 326 324 326 327 328 328 327 324 325 327 331 334 337 336 337 341 340 336 339 352 354 353 351 354 359 357 357
316 316 315 319 320 319 319 323 328 328 323 320 319 319 321 322 321 323 324 324 325 326 329 330 329 329 327 326 330 334 336 337 338 336 335 334 338 348 349 354 353 350 352 356 356
315 318 317 322 321 319 323 327 327 326 320 320 318 320 320 320 321 321 324 325 324 325 327 331 330 328 327 326 329 334 337 336 334 334 334 338 346 349 350 353 355 354 350 352 351
317 322 324 318 320 322 324 325 323 319 320 321 321 320 320 320 320 322 322 324 324 324 324 327 331 328 326 327 330 332 334 336 336 337 340 340 347 352 351 351 351 347 343 340 340
319 324 322 317 319 324 328 322 321 319 319 322 323 323 323 322 322 324 326 324 323 322 323 324 329 329 328 328 331 334 337 333 334 335 339 344 346 347 351 349 344 339 334 330 332
323 326 320 317 323 321 321 320 314 320 318 319 320 322 323 323 324 324 326 323 320 321 322 323 324 331 327 325 327 329 331 332 336 340 336 343 346 344 342 339 335 334 331 325 322
325 319 318 320 326 324 319 318 319 320 320 319 320 318 321 321 325 323 322 319 320 321 325 324 323 328 327 326 325 325 327 328 329 333 340 340 343 341 337 335 330 330 329 326 321
324 321 320 319 319 320 319 318 317 316 319 321 321 320 318 320 319 323 320 319 319 321 322 322 321 327 330 327 325 326 326 327 327 330 332 339 346 342 337 334 329 327 325 324 323
321 317 319 320 318 318 319 318 317 318 316 317 320 321 322 326 319 320 321 319 319 319 320 320 321 322 325 323 322 325 325 326 326 328 335 341 344 340 337 332 328 325 324 323 322
321 322 317 319 319 319 315 317 318 318 320 318 318 317 319 327 326 327 324 321 319 320 319 320 323 326 324 323 322 322 324 324 325 325 328 336 338 335 332 328 328 326 325 324 324
320 319 322 316 319 318 316 316 317 318 317 318 319 319 319 321 320 322 321 323 324 324 322 321 322 326 326 322 322 322 322 322 322 323 336 339 334 331 331 330 330 328 325 324 322

GFSSW_925_thetae_081.txt.gz
Theta_e
309 309 308 308 309 311 309 307 307 306 306 306 306 306 306 307 307 312 313 315 314 322 319 328 322 323 329 348 350 355 363 367 364 361 359 354 356 354 355 356 352 347 347 345 347
309 309 309 309 307 308 310 309 308 306 306 306 306 306 306 308 314 317 311 315 317 319 318 329 326 329 335 348 352 356 362 362 357 356 357 356 356 359 355 358 356 348 346 345 347
313 312 312 312 310 308 308 307 308 307 306 306 306 306 306 309 324 321 325 316 318 319 317 332 334 340 346 348 357 352 362 358 354 353 354 356 356 357 358 358 351 348 347 345 347
314 313 314 313 313 311 308 308 307 307 308 307 306 306 307 313 332 325 321 316 318 315 320 334 338 339 341 350 356 360 358 356 356 356 356 360 359 359 359 358 348 345 344 343 345
314 313 313 314 313 311 312 309 308 308 308 307 306 306 313 322 319 323 319 317 315 315 325 337 339 331 337 345 355 356 352 355 356 355 357 357 360 359 358 353 347 345 344 343 342
313 312 312 312 311 312 311 311 308 308 307 306 306 306 318 318 327 325 319 317 315 317 326 336 335 329 336 342 355 351 349 350 356 354 354 358 358 354 354 348 348 346 345 343 343
310 310 312 313 313 312 312 309 309 308 309 308 306 315 318 319 328 326 320 315 314 319 331 335 335 327 333 337 341 354 349 351 354 357 358 358 362 361 351 352 349 347 345 344 344
312 313 314 314 313 312 311 309 308 310 310 311 306 318 319 317 321 324 320 316 318 320 330 332 330 326 328 329 332 351 351 356 349 349 359 356 366 357 349 354 352 348 347 345 344
314 314 313 313 312 312 310 308 310 309 310 308 311 319 323 321 321 324 322 319 317 321 324 329 328 326 326 328 328 335 344 350 352 349 357 356 364 360 353 354 352 349 347 346 345
312 313 312 312 311 310 309 309 313 321 315 316 316 320 320 325 321 322 323 320 319 322 326 327 324 326 325 326 329 338 340 342 349 346 357 355 354 358 354 354 352 349 348 346 346
313 311 310 310 310 309 308 319 319 322 323 319 321 326 325 325 322 322 326 324 322 324 325 324 324 325 326 327 329 333 338 340 347 349 354 353 350 351 353 353 353 350 348 346 345
313 312 308 309 309 308 308 319 324 316 317 323 320 322 323 324 322 326 326 323 323 324 324 325 325 326 326 328 330 329 329 335 347 354 356 353 351 346 343 352 351 349 349 347 346
314 312 309 309 309 309 312 319 319 316 315 318 322 322 320 323 323 324 325 323 322 323 324 324 326 327 325 327 330 328 328 331 348 348 354 356 362 354 351 356 351 350 351 347 347
314 313 310 310 315 315 317 319 317 317 316 321 322 321 321 324 325 324 324 324 323 323 323 323 324 325 324 325 327 326 327 329 347 347 355 356 361 359 362 357 354 351 351 348 347
315 314 313 311 310 314 317 316 317 316 323 322 320 320 319 320 325 325 323 322 324 322 322 323 322 322 323 324 326 326 327 332 343 343 344 354 355 359 360 362 358 356 352 349 347
314 315 314 315 315 319 319 318 317 318 326 323 319 319 318 319 321 323 325 323 323 325 323 323 323 322 323 324 324 327 329 333 338 340 344 337 343 358 365 360 360 353 348 351 351
314 315 315 314 318 319 320 317 321 330 326 323 319 318 318 321 321 321 324 323 324 325 325 325 323 322 322 323 325 327 331 334 333 341 345 338 341 359 358 358 355 353 348 345 350
314 315 315 316 317 319 321 325 332 326 325 324 323 318 318 320 321 324 324 323 323 323 324 325 327 325 322 323 325 327 329 333 337 337 338 332 356 355 348 346 346 341 348 347 349
315 317 318 321 321 320 323 328 328 324 323 322 320 319 318 320 320 321 323 323 322 322 324 329 329 327 325 324 324 327 329 329 332 329 331 346 353 351 344 346 348 346 348 348 350
315 318 319 323 323 322 323 327 324 321 319 321 324 322 322 322 321 320 324 323 324 323 322 327 327 326 328 326 323 323 331 331 332 339 337 357 357 361 356 351 340 335 335 336 337
317 322 323 321 322 323 325 325 321 319 318 321 321 323 323 324 325 327 325 322 320 321 320 322 323 329 328 323 322 332 333 334 330 332 334 351 353 348 350 340 334 330 327 330 330
321 326 324 317 323 325 324 319 315 319 320 319 319 321 323 324 325 327 326 324 319 320 320 323 320 329 329 326 326 326 332 333 331 333 339 348 349 344 340 335 331 329 325 324 326
322 324 318 320 324 324 319 318 317 318 319 321 320 319 319 322 326 325 324 319 319 321 321 321 322 324 329 326 324 324 325 324 324 326 335 345 348 336 335 334 329 326 324 322 322
323 323 321 319 318 318 320 318 317 315 317 318 321 320 318 320 320 322 322 318 318 318 323 321 319 322 329 329 324 322 322 323 324 324 340 341 345 338 332 330 327 325 324 323 321
323 317 318 318 317 316 319 319 317 317 317 316 320 321 324 324 325 320 323 320 319 320 319 319 321 321 325 326 323 321 322 323 323 326 339 345 344 337 332 328 326 324 322 322 323
321 320 321 318 320 321 316 317 317 317 318 319 320 318 325 325 325 327 324 324 322 321 318 317 322 324 323 323 322 322 322 323 324 335 340 341 341 333 328 325 326 325 323 321 320
323 322 325 321 320 317 316 316 316 319 316 317 319 321 322 321 322 323 321 320 323 323 322 321 323 324 324 326 324 322 322 320 332 335 335 341 334 329 328 327 325 324 323 322 321

GFSSW_925_thetae_084.txt.gz
Theta_e
309 309 311 311 309 307 306 307 306 306 306 306 306 306 306 306 307 311 312 311 311 322 325 327 323 321 321 331 349 355 364 365 362 358 357 354 358 356 354 350 348 347 347 346 347
314 313 312 312 312 311 308 306 306 306 306 306 306 306 306 307 312 318 309 309 317 317 319 322 322 322 328 337 350 358 359 360 357 354 356 356 357 358 357 352 351 347 347 349 349
315 315 313 313 314 313 311 308 306 306 307 307 307 306 306 307 321 321 324 310 316 317 319 320 326 326 331 342 352 353 362 358 356 351 352 356 357 354 355 358 350 348 349 348 347
314 314 314 312 312 313 312 310 308 307 308 308 307 306 306 314 331 327 322 312 318 318 319 320 332 334 341 348 355 353 354 356 353 351 353 358 356 354 358 356 346 345 347 347 346
310 310 311 311 310 311 313 313 311 308 308 308 306 306 313 319 318 319 321 315 318 317 317 324 336 337 339 340 355 357 355 357 354 353 355 357 360 358 358 354 346 345 347 347 346
310 311 312 312 313 312 312 313 311 310 308 308 310 306 317 311 319 321 319 315 317 314 318 327 336 335 332 334 354 354 351 360 357 356 358 358 358 356 355 351 346 344 346 347 348
313 314 315 314 314 314 312 311 310 309 309 310 314 313 317 314 325 323 318 317 316 312 323 322 331 335 326 329 336 348 351 354 355 357 359 357 360 359 352 351 346 344 343 343 346
314 315 313 314 313 312 312 310 308 309 311 316 314 318 315 314 316 317 320 316 316 313 319 331 332 328 324 325 341 354 349 353 355 357 356 354 363 357 352 350 348 346 344 343 341
314 314 312 310 312 311 310 308 310 312 311 313 312 318 316 319 318 320 320 317 314 316 318 324 326 325 325 326 325 344 356 355 357 357 359 356 361 359 352 353 348 346 344 345 342
313 313 313 310 309 309 308 312 311 320 317 315 316 318 318 322 320 321 321 320 315 316 320 322 322 322 321 323 327 328 337 344 356 359 360 360 359 356 355 356 350 347 345 344 343
312 313 312 308 308 308 309 318 317 320 320 313 316 322 323 322 321 320 321 318 317 320 323 324 321 322 323 323 326 327 330 337 351 356 356 360 355 355 355 356 353 349 346 345 345
312 313 311 308 309 309 308 314 320 318 312 320 317 321 321 321 321 321 322 319 319 321 323 322 322 322 323 325 326 327 328 330 356 353 352 356 359 354 353 356 354 350 347 345 344
313 314 313 310 310 312 310 314 318 317 312 314 320 320 320 319 321 320 322 320 321 321 322 322 323 325 326 325 325 325 326 329 350 354 352 354 357 351 348 348 354 350 346 345 345
314 314 314 312 313 312 313 317 317 317 310 314 316 321 320 319 321 323 323 321 321 321 322 322 322 325 325 326 323 323 324 328 349 347 351 351 349 360 352 350 354 349 347 345 345
313 314 315 313 312 311 317 319 319 313 320 324 320 320 318 320 322 322 323 322 321 321 319 320 322 322 322 324 321 323 324 327 341 342 355 355 357 352 356 361 356 352 349 346 346
313 314 315 314 314 318 318 318 316 315 323 326 318 317 317 318 319 322 321 321 322 322 322 320 320 319 319 321 321 323 327 337 336 339 343 347 353 353 362 359 357 355 352 349 346
312 314 314 314 314 317 316 315 321 329 325 326 321 320 316 317 318 320 323 322 321 323 322 322 323 321 320 320 319 323 325 330 331 341 343 337 352 347 355 357 355 356 353 350 347
313 314 316 316 318 317 316 319 324 325 324 323 322 319 316 316 318 320 322 321 320 320 320 322 324 323 322 319 320 322 324 330 335 337 338 340 353 351 351 353 351 350 349 344 345
313 315 317 320 321 319 316 322 321 322 322 322 319 318 318 317 318 322 321 320 321 319 321 322 326 326 325 322 321 322 325 324 329 328 329 352 351 344 346 342 340 341 342 344 349
314 315 317 321 320 319 316 323 322 321 321 320 320 319 322 322 323 321 322 320 320 319 317 321 325 322 325 324 321 320 324 329 325 336 335 356 355 352 349 339 335 334 337 336 336
318 316 322 323 321 314 317 320 321 319 318 319 318 321 320 323 323 325 322 319 318 318 317 317 318 320 325 324 322 325 327 328 325 327 332 351 352 350 343 335 332 330 331 330 333
315 320 323 322 314 316 319 319 315 315 315 316 317 319 322 322 323 324 323 319 318 319 319 320 314 319 328 324 324 327 328 326 331 332 339 343 354 340 336 333 329 327 326 327 328
315 317 320 319 317 317 315 316 314 312 314 316 318 316 318 321 324 323 322 317 317 317 316 317 316 320 323 323 321 319 319 318 321 324 337 336 346 334 334 332 327 325 324 325 326
315 320 311 308 307 312 314 314 313 313 314 315 318 317 318 319 318 320 321 317 317 316 321 317 313 319 322 327 323 320 319 319 318 320 337 340 341 334 331 328 325 323 322 323 323
316 317 310 311 310 312 312 314 316 316 314 313 317 320 319 318 321 324 322 320 317 319 317 315 319 320 321 320 321 320 320 321 320 322 335 340 339 332 328 326 323 322 323 322 321
315 318 316 313 312 311 311 311 314 314 315 316 320 322 321 321 322 323 322 319 322 320 318 312 321 321 321 325 322 320 320 326 333 339 340 337 335 327 324 323 322 321 322 323 322
322 321 318 318 311 310 311 314 318 316 315 317 319 317 316 318 320 320 318 317 316 319 317 319 317 318 322 323 323 321 320 321 333 338 338 340 333 326 325 325 324 321 321 321 321

GFSSW_925_thetae_087.txt.gz
Theta_e
315 315 315 314 313 311 308 309 310 309 310 308 306 306 306 306 306 310 312 309 309 320 323 324 325 322 322 326 346 355 364 363 363 358 357 353 357 354 353 350 348 348 348 347 345
315 315 315 315 314 314 313 310 307 311 311 309 307 306 306 306 310 316 309 308 315 323 326 325 325 323 330 329 349 357 357 359 356 353 355 357 357 357 352 350 351 349 346 345 346
315 314 314 314 314 315 314 312 310 308 309 310 308 306 306 307 318 315 322 309 315 321 321 320 322 327 326 342 349 354 359 358 352 350 354 355 357 354 350 353 350 350 348 345 345
311 311 311 312 311 313 313 314 313 311 309 309 309 306 306 314 316 326 322 310 314 317 319 318 329 332 340 343 352 352 353 357 352 353 355 356 355 355 353 354 347 348 346 345 345
312 312 314 314 314 312 314 314 313 312 311 310 307 307 314 315 313 311 320 310 314 319 320 323 333 339 342 343 353 354 357 358 351 352 355 354 357 355 357 354 347 348 348 347 346
315 315 315 314 315 315 315 313 312 312 310 310 311 309 315 307 311 325 317 316 318 321 318 322 334 336 336 338 353 353 356 356 355 352 357 358 355 356 355 350 348 348 348 347 346
313 314 314 314 314 313 313 312 310 309 309 312 313 315 317 310 318 323 316 318 317 317 315 319 330 334 331 329 334 352 358 355 357 357 359 357 359 358 354 348 349 348 347 346 346
312 311 311 312 312 312 311 309 308 309 313 313 316 317 309 313 316 319 318 317 316 314 317 324 325 329 329 327 337 352 353 359 355 357 357 353 364 357 352 352 349 349 348 347 347
312 313 312 311 311 309 308 308 311 314 314 318 314 316 312 316 318 318 317 316 314 314 315 320 324 325 324 323 324 331 352 353 362 358 358 357 363 358 353 353 345 347 347 348 346
312 312 312 308 308 308 308 313 311 319 316 315 316 316 316 321 320 317 317 317 313 313 318 320 320 321 319 321 327 331 344 350 360 361 358 359 359 356 354 354 347 344 344 344 344
312 312 312 309 309 309 308 318 315 316 319 311 314 320 321 321 321 319 320 317 316 318 321 322 321 322 322 323 325 327 328 329 353 358 360 360 358 358 355 356 349 346 344 343 342
313 313 313 312 310 309 309 311 317 316 315 316 316 317 319 320 320 319 320 316 317 319 320 320 322 320 321 323 325 326 328 338 356 354 357 358 359 355 354 356 352 348 345 343 341
313 313 313 313 311 312 310 312 315 315 313 312 318 318 318 318 320 319 317 318 318 320 321 322 323 323 324 325 325 324 326 328 355 354 352 356 357 356 354 351 354 353 348 344 341
312 313 314 314 311 312 312 314 316 315 310 314 315 318 319 317 320 320 321 320 319 320 320 322 322 324 324 325 323 323 322 328 355 350 358 350 358 354 352 350 350 354 349 345 341
312 313 313 314 313 312 316 316 316 311 322 321 321 319 316 319 321 321 322 320 319 320 319 322 322 322 323 324 322 323 322 325 350 342 348 354 349 346 349 351 350 354 348 346 344
312 312 313 314 313 315 316 316 314 316 326 324 321 319 317 317 319 321 321 320 319 321 320 319 319 319 320 321 320 322 323 328 331 335 347 345 346 348 356 351 351 354 349 346 345
313 312 313 313 314 316 315 314 318 322 322 324 321 320 317 316 318 320 321 320 320 321 321 320 322 320 319 320 318 321 323 329 343 343 345 338 349 343 349 352 353 353 351 348 346
314 312 314 314 315 315 317 313 322 323 323 320 321 318 319 315 317 319 321 320 320 319 319 321 323 321 319 319 319 318 319 326 336 339 339 342 348 349 345 350 350 350 349 347 349
315 314 315 318 320 318 314 318 317 320 320 321 317 318 319 318 317 320 321 320 320 317 321 319 323 323 324 320 318 321 324 322 325 325 329 350 348 347 343 338 343 345 344 342 344
316 315 316 318 319 318 314 320 319 319 320 318 318 319 321 320 322 319 319 317 319 318 315 319 323 321 324 323 319 319 320 325 323 333 334 353 354 349 351 341 339 341 340 339 339
316 316 319 318 320 311 315 318 320 316 320 317 318 321 320 322 323 323 320 318 317 319 316 316 316 318 323 322 320 321 326 325 323 325 334 352 349 345 343 337 334 335 333 335 335
313 316 318 319 316 312 316 318 314 313 313 315 316 317 321 321 323 322 318 317 316 318 318 316 311 318 325 320 319 317 320 324 327 332 334 339 346 337 334 331 330 329 330 331 331
312 312 318 316 314 315 314 314 311 312 312 316 317 314 317 319 322 321 320 316 315 316 316 317 314 320 324 321 320 318 317 317 318 325 336 337 340 336 333 330 327 326 326 328 329
313 312 309 304 304 310 312 313 312 314 315 314 316 316 317 317 319 321 322 319 316 317 322 315 312 317 325 325 321 320 318 318 316 319 329 331 343 338 332 328 324 322 324 325 326
313 314 311 309 310 310 310 313 315 315 314 313 320 320 317 320 321 322 321 318 318 320 313 313 318 319 320 319 320 319 319 323 320 321 331 336 339 337 330 326 323 321 323 322 322
315 317 315 313 310 309 308 313 314 313 314 317 319 318 319 319 321 321 320 318 321 317 317 312 320 318 321 326 321 320 321 320 334 337 335 333 332 325 323 321 321 322 322 321 321
319 318 315 317 308 310 309 313 317 314 315 317 319 315 315 316 319 318 317 315 313 316 313 316 315 317 323 319 328 328 321 319 330 335 334 337 330 325 323 323 321 320 321 322 322

GFSSW_925_thetae_090.txt.gz
Theta_e
315 315 315 315 314 315 314 314 315 314 313 310 308 307 306 306 306 310 311 308 308 319 321 323 322 322 324 333 343 353 363 365 362 357 358 353 355 353 351 348 348 347 347 347 346
314 314 314 314 314 314 315 315 313 313 315 311 308 307 307 306 311 314 309 308 309 312 325 324 325 324 329 328 349 354 356 359 356 351 356 355 354 355 351 350 350 349 345 346 346
313 314 314 314 314 314 314 314 315 312 313 312 310 307 306 308 315 310 321 308 313 326 324 324 322 331 338 338 346 354 358 358 351 350 353 358 357 352 351 353 348 349 347 346 345
314 315 315 314 313 315 315 314 314 313 310 310 311 306 306 314 310 324 319 309 322 325 319 323 323 339 339 341 350 351 353 355 351 352 355 356 355 351 353 351 345 345 345 345 344
313 313 314 314 314 314 314 314 314 313 311 309 308 307 313 313 310 312 320 309 318 321 319 321 334 342 343 344 352 352 357 352 353 352 353 354 356 352 352 347 346 345 345 344 343
314 313 314 314 314 314 314 314 313 312 312 311 310 311 314 310 312 322 317 309 312 320 318 324 335 339 342 341 352 352 355 353 353 355 355 357 356 351 350 349 348 347 345 344 343
311 312 313 313 313 313 313 312 311 310 312 312 311 316 315 310 315 324 311 314 320 320 315 318 332 334 334 334 344 349 356 356 353 355 357 354 359 358 352 350 350 348 346 345 345
310 311 312 312 310 308 309 309 308 309 314 313 312 316 307 312 315 323 316 318 318 317 319 317 328 328 331 327 338 352 351 359 357 357 356 355 362 357 353 350 351 350 348 347 346
311 311 312 310 308 308 307 308 312 312 315 316 314 314 309 314 316 319 318 315 314 314 313 319 323 325 323 322 324 340 351 354 361 356 358 357 359 358 351 350 350 349 348 347 347
312 312 312 310 309 308 308 312 314 317 318 315 315 316 316 320 319 317 317 313 311 312 317 319 317 320 318 321 329 340 346 348 359 356 359 360 357 356 353 350 350 348 348 348 347
312 313 313 312 311 310 309 317 312 312 318 311 312 317 318 320 319 316 316 316 314 316 319 320 323 325 327 322 324 331 333 337 349 356 360 361 357 356 352 353 348 349 348 348 346
311 312 313 313 313 311 309 310 315 315 313 314 316 314 316 317 318 316 318 316 316 317 319 320 324 322 325 322 324 326 327 352 356 358 356 353 358 354 354 355 349 345 345 345 346
312 312 313 313 312 313 311 312 314 314 312 312 316 316 316 316 318 318 316 315 316 320 320 322 323 320 322 323 324 324 325 328 354 354 354 355 359 357 353 353 353 351 344 341 342
312 312 312 313 311 311 311 315 314 313 310 317 318 317 317 317 319 318 318 318 318 319 320 322 322 322 324 325 322 324 321 330 356 354 357 354 362 358 354 355 352 354 349 342 341
311 312 312 312 313 311 315 315 314 310 321 320 321 317 314 317 318 320 319 320 318 319 319 322 321 322 323 323 322 324 321 326 351 345 350 355 349 341 354 357 354 351 352 343 339
311 314 312 313 313 315 315 316 311 315 324 322 320 319 315 316 319 319 321 319 317 319 319 320 318 319 320 320 321 323 322 327 332 338 348 347 347 344 353 353 352 350 350 346 340
312 314 312 312 313 315 315 312 316 320 320 318 319 318 319 315 318 320 320 320 320 320 321 321 321 320 318 319 317 319 318 328 342 345 344 338 346 341 349 348 347 348 350 347 342
313 314 313 313 314 314 316 312 320 320 321 319 319 315 320 315 317 319 319 320 318 317 317 320 321 320 318 319 318 317 317 326 344 343 342 343 346 343 343 344 350 349 348 346 345
314 314 313 315 318 317 313 317 316 318 318 319 317 318 318 319 316 319 318 319 319 317 320 319 321 320 318 316 318 320 318 317 323 323 337 344 347 345 344 345 347 346 345 347 348
315 316 316 316 318 316 313 318 318 316 319 316 319 319 321 320 321 320 318 317 318 317 315 318 321 320 321 318 319 320 319 325 321 331 333 350 349 344 350 346 346 343 342 342 342
315 315 317 317 317 310 314 315 318 315 318 316 318 320 320 322 322 321 317 317 316 318 316 314 316 320 321 320 318 322 326 321 321 323 338 348 347 343 344 343 342 339 340 339 339
310 315 316 317 314 310 314 315 312 311 311 316 315 316 320 321 322 319 317 316 314 317 318 315 311 319 321 318 317 317 319 321 325 332 333 336 338 335 335 333 336 336 337 335 334
311 310 316 315 313 312 313 313 312 311 313 313 316 316 318 319 322 322 317 316 315 315 316 315 314 320 319 318 317 317 316 315 317 326 337 336 332 334 331 329 328 329 331 332 330
311 311 309 302 302 311 312 312 314 313 315 314 317 315 317 320 321 322 322 319 317 322 322 315 313 319 321 320 317 319 318 319 314 322 328 329 337 339 333 329 324 324 326 329 329
309 311 310 310 310 308 310 312 314 314 313 314 319 318 316 319 319 322 319 318 318 319 314 314 319 319 320 319 318 320 319 322 331 319 329 328 336 335 331 327 323 322 325 326 326
314 315 313 313 308 310 307 312 313 313 314 318 318 316 317 320 319 319 318 317 319 315 316 314 321 318 321 321 325 325 321 326 335 336 335 334 336 327 324 322 322 322 322 324 324
317 316 313 313 307 308 308 313 314 315 314 315 316 315 314 314 316 314 313 312 311 313 312 315 315 318 322 318 327 328 323 330 332 333 333 336 329 324 323 324 322 321 321 321 321

GFSSW_925_thetae_093.txt.gz
Theta_e
314 314 314 313 314 315 315 315 315 312 310 312 307 308 307 307 307 309 310 308 308 315 323 328 331 330 335 345 344 352 364 366 361 358 360 354 356 351 348 349 349 348 344 345 348
313 314 315 315 314 314 315 314 314 314 312 310 307 307 308 308 311 314 309 308 308 319 328 322 323 328 333 337 346 355 363 361 355 353 357 356 354 352 350 352 353 351 348 347 347
315 314 314 314 314 314 315 315 314 314 313 310 309 308 306 310 314 310 322 310 308 321 325 322 322 336 345 336 346 355 361 358 354 352 354 355 354 349 351 353 351 352 350 348 347
313 314 314 314 314 314 314 315 315 314 311 309 309 306 308 313 312 324 317 309 310 327 323 322 327 345 347 342 348 353 354 355 351 353 355 355 352 350 349 351 347 347 347 347 347
314 313 313 314 312 313 314 314 314 313 312 311 308 307 312 314 315 310 322 311 327 320 322 323 330 344 346 346 349 354 356 353 352 354 353 353 352 351 353 347 346 347 348 347 344
313 313 314 314 313 312 312 313 312 312 311 310 310 308 314 315 314 324 322 321 327 319 319 326 336 342 343 343 350 352 355 354 353 355 353 353 353 350 351 347 348 347 347 346 345
312 313 313 312 311 311 311 310 310 309 311 312 311 315 316 314 314 323 320 320 320 318 319 322 336 339 339 336 338 354 357 356 355 355 356 354 356 355 351 348 348 347 347 347 346
312 312 312 309 310 308 307 307 307 309 313 312 314 316 311 311 314 320 317 318 316 317 317 319 331 334 335 332 341 355 356 362 357 355 356 356 362 355 352 351 350 348 348 348 347
312 312 312 311 309 308 307 309 315 310 312 314 314 314 313 314 316 321 316 317 318 315 314 318 323 331 328 329 353 351 361 360 360 355 357 357 359 356 352 352 350 350 349 348 348
311 312 312 312 311 310 311 312 316 316 316 316 316 318 318 320 317 319 316 314 315 315 318 321 325 333 327 328 345 357 355 356 360 358 357 359 360 357 354 353 352 350 350 349 348
311 311 312 312 312 310 311 315 315 316 318 316 316 316 317 319 317 316 317 314 315 318 323 324 335 341 334 328 330 348 350 349 349 355 357 358 360 357 354 353 353 352 351 350 349
311 312 312 312 313 311 309 314 317 316 319 316 317 315 315 316 318 317 317 317 316 317 322 328 336 333 329 326 328 333 341 339 358 355 357 357 358 354 355 353 352 352 351 350 350
311 311 312 312 312 311 311 312 313 314 317 315 316 317 317 316 318 319 319 317 317 322 325 327 331 326 328 327 328 329 332 355 354 355 351 353 355 354 354 355 351 350 350 350 350
310 311 312 312 311 311 312 314 313 313 318 322 321 319 319 318 321 319 319 318 319 321 326 331 324 326 325 328 328 331 327 337 357 355 361 352 359 353 354 357 356 350 349 349 349
310 311 313 312 312 313 314 314 313 309 324 321 322 317 317 319 320 320 319 321 320 323 325 327 326 326 327 327 326 331 325 333 354 353 356 353 356 350 355 358 359 355 350 346 346
311 312 313 312 312 314 314 314 311 320 322 322 320 320 318 318 321 321 321 321 320 322 323 325 321 325 326 325 326 326 331 337 345 348 347 353 351 349 359 358 355 354 353 350 345
311 313 313 312 315 314 314 315 321 323 321 320 320 320 320 318 321 323 323 324 325 325 325 324 323 322 321 323 323 324 325 336 340 344 335 343 355 346 352 351 352 352 353 352 345
312 314 313 312 313 313 314 320 323 321 322 320 320 317 321 318 320 322 324 325 321 323 324 325 326 324 322 324 324 325 326 332 339 344 342 345 346 347 347 347 350 351 350 352 349
314 314 313 314 316 314 320 323 320 320 319 320 320 322 322 319 319 322 322 326 325 323 325 324 323 322 321 322 323 323 324 327 334 333 340 347 349 349 348 351 352 351 350 352 350
314 315 316 316 316 314 321 320 321 317 320 318 322 321 324 323 323 324 321 319 321 320 320 324 325 323 324 320 321 324 324 327 328 339 341 352 353 351 354 352 350 350 349 349 349
314 321 316 316 315 320 321 320 320 316 318 318 319 323 322 325 324 325 320 318 318 319 319 321 324 324 324 325 325 325 326 327 329 333 336 342 348 349 352 351 348 345 345 343 344
313 323 315 315 321 317 321 319 312 313 314 317 317 320 323 323 324 320 320 318 316 319 321 319 323 326 324 320 320 322 328 330 328 337 342 340 343 341 344 348 346 344 344 342 341
318 318 315 314 320 318 317 314 315 316 316 318 319 320 320 323 326 324 321 317 318 317 320 320 322 327 325 323 323 327 323 324 330 337 343 334 338 339 339 342 339 341 340 337 337
317 318 314 310 309 316 315 315 317 315 318 318 321 318 321 324 324 324 323 321 320 323 322 319 321 327 328 326 324 329 330 322 326 329 338 336 342 342 342 342 336 334 335 335 335
314 317 312 317 315 313 314 315 316 317 316 320 322 320 319 324 322 323 321 321 322 320 319 321 324 324 324 324 325 327 335 336 326 326 332 334 336 342 343 341 338 335 332 332 334
321 322 317 319 311 314 313 316 315 315 317 321 320 318 321 324 322 322 319 321 319 320 322 321 327 323 326 324 328 325 330 338 337 337 337 338 338 332 338 333 332 334 331 332 333
316 315 319 313 312 314 315 316 317 317 315 317 318 318 319 317 316 318 315 313 313 318 321 322 322 327 328 325 329 330 327 329 333 336 337 336 337 335 334 334 334 333 333 331 330

GFSSW_925_thetae_096.txt.gz
Theta_e
313 313 314 314 315 314 314 314 314 314 311 309 307 307 307 307 308 318 316 312 311 315 327 328 335 344 346 349 349 353 366 366 363 356 360 356 358 354 351 354 350 349 342 346 348
315 314 314 313 314 314 315 314 314 312 311 309 307 307 307 307 317 318 316 308 308 317 328 327 334 342 348 349 350 358 365 363 358 353 359 357 357 356 355 355 353 345 346 347 347
314 314 314 313 314 315 314 315 315 313 313 308 307 307 306 310 320 315 322 314 311 319 326 324 331 344 351 348 352 357 363 359 355 353 355 356 356 353 355 357 353 351 350 348 347
313 314 314 313 312 313 314 314 315 314 313 310 308 306 306 319 318 324 317 314 309 325 326 324 329 345 353 351 351 357 356 356 354 354 354 357 354 354 353 351 349 347 347 347 348
314 311 313 314 314 313 313 314 314 311 312 310 308 306 317 321 320 318 322 308 317 326 324 324 327 342 356 352 351 357 356 354 353 355 354 353 352 352 352 348 347 345 347 348 347
314 313 312 311 312 313 312 313 312 312 310 309 308 308 317 319 317 326 321 323 324 323 324 323 327 342 350 350 351 355 355 354 354 355 353 353 351 351 351 348 347 347 348 347 345
313 313 313 311 312 311 310 310 309 308 309 311 309 317 317 318 316 327 323 326 324 323 325 324 329 345 343 340 343 353 358 356 357 355 355 352 355 357 350 348 349 348 346 345 344
312 312 312 310 310 308 307 307 308 310 308 310 310 318 316 313 317 323 320 324 323 321 322 327 339 341 340 337 352 359 358 365 358 357 356 354 362 354 350 348 348 347 347 347 346
311 312 312 312 311 309 308 311 316 309 309 311 319 317 317 314 318 319 316 318 318 319 319 325 336 340 337 345 359 358 365 363 363 355 357 356 359 358 351 350 347 348 347 348 347
311 311 312 312 312 310 312 313 315 317 317 318 317 322 320 322 320 319 318 318 318 319 320 328 338 343 338 343 360 360 362 361 364 359 354 359 353 358 354 352 349 348 347 348 347
310 310 312 312 312 311 314 318 322 324 321 321 320 319 319 321 321 320 318 318 318 319 322 325 338 347 341 337 336 351 354 358 358 358 359 359 358 358 355 354 351 349 349 347 347
310 310 311 312 312 311 311 320 320 318 321 320 319 319 318 319 322 322 318 320 319 319 323 325 333 340 341 332 336 346 354 355 356 357 357 358 359 357 356 355 353 348 347 347 347
310 310 312 312 312 313 316 318 316 316 322 320 319 319 320 319 322 322 321 320 319 319 324 324 327 337 336 332 335 341 349 348 358 356 354 357 358 355 352 354 353 349 347 348 349
310 310 312 312 314 316 318 317 315 315 323 323 322 321 321 321 323 321 320 321 319 319 321 323 327 333 336 339 335 339 335 348 358 356 361 351 361 352 350 355 356 352 351 348 350
311 311 312 312 317 319 317 316 315 316 324 322 322 320 322 323 323 322 321 321 321 319 323 325 328 332 334 338 335 336 332 340 347 352 356 357 355 354 351 353 358 356 351 348 348
311 311 313 313 315 317 316 316 316 323 325 322 322 322 322 323 323 322 323 322 323 322 323 327 328 329 331 333 333 330 332 337 345 349 356 350 349 351 352 353 351 355 353 350 348
311 313 313 313 320 316 316 320 325 323 322 322 322 322 323 323 324 324 325 324 325 325 322 326 328 327 329 331 331 332 335 339 342 345 344 349 349 346 345 353 351 355 354 352 349
312 314 314 314 315 316 319 325 323 322 323 322 322 322 321 322 324 325 325 325 326 324 324 327 327 327 326 328 331 334 334 339 345 346 342 342 350 347 349 350 351 352 352 353 352
314 316 317 317 316 317 325 322 323 322 321 322 323 322 322 322 323 325 326 325 325 325 325 325 326 325 325 326 326 331 334 334 337 339 341 343 342 350 350 352 354 354 352 352 354
318 320 321 318 318 321 324 320 322 321 321 321 324 325 324 322 322 324 324 325 326 325 326 326 326 324 324 324 325 326 329 335 334 342 341 342 343 342 356 355 355 355 354 352 353
320 322 319 318 318 324 323 322 321 319 320 321 321 325 325 324 322 323 325 323 324 325 325 326 325 325 325 325 325 326 327 327 332 335 337 340 343 350 352 355 356 353 352 354 354
321 324 319 317 325 322 322 319 312 316 318 320 321 323 325 326 323 324 324 324 320 323 325 326 326 329 325 325 326 325 326 327 328 336 334 337 346 348 351 353 353 349 349 347 348
324 324 319 318 323 322 321 317 318 317 317 319 321 323 325 326 327 324 323 322 322 322 325 325 326 329 328 327 327 326 326 328 328 328 336 336 338 347 350 352 350 350 349 345 344
324 324 321 322 320 319 320 319 318 318 318 319 322 322 324 325 326 324 323 321 322 323 323 322 326 329 329 326 327 330 329 327 328 329 330 334 340 351 351 351 348 347 344 341 342
322 322 319 319 319 319 319 318 318 317 318 318 323 322 323 325 324 324 323 323 322 324 324 325 329 328 328 328 328 329 329 327 328 328 330 331 333 346 350 350 348 343 343 342 343
326 324 322 321 320 319 315 319 317 316 318 318 321 321 322 325 325 323 323 323 323 323 325 326 328 328 329 328 328 332 333 331 329 330 329 333 334 338 346 347 347 344 339 342 342
323 323 326 315 319 319 319 318 317 317 318 321 321 321 321 321 320 321 320 319 320 324 326 326 328 328 330 328 329 330 330 331 334 334 334 331 341 341 344 344 344 344 341 341 341

GFSSW_925_thetae_099.txt.gz
Theta_e
315 315 315 314 314 314 315 315 315 314 314 309 307 307 307 307 308 320 321 316 316 314 328 329 335 342 346 353 353 354 368 367 362 356 357 354 354 351 351 352 351 349 347 348 346
316 314 314 315 314 314 314 315 315 315 313 312 309 307 307 307 319 322 320 315 310 314 328 328 336 347 352 354 354 359 368 363 358 352 357 356 355 354 354 353 353 347 346 347 347
316 316 315 315 314 314 313 314 315 315 314 310 308 308 306 309 326 323 320 317 309 317 328 328 335 347 354 352 352 358 365 359 358 355 355 356 355 353 353 354 349 350 349 348 347
315 314 314 315 315 314 313 313 314 313 312 311 308 307 306 319 326 326 316 320 309 321 329 327 331 348 355 357 352 357 356 357 355 354 356 356 355 354 350 351 348 348 348 347 347
313 314 314 314 313 313 313 313 312 312 311 310 308 306 318 323 324 325 320 316 315 325 328 328 328 342 355 356 353 356 357 355 354 353 354 353 353 351 353 349 348 347 347 348 347
313 312 312 313 311 311 310 311 310 310 309 308 307 306 320 323 320 325 323 317 317 326 326 326 327 333 349 355 355 356 356 355 355 356 357 354 352 350 350 347 348 348 348 347 346
312 312 312 311 310 309 308 307 307 307 308 308 307 316 321 321 319 327 322 320 320 325 327 324 326 332 348 352 349 355 358 357 358 356 355 352 354 354 349 348 349 348 348 347 345
311 312 312 312 311 310 307 307 310 311 307 307 307 319 323 316 319 325 325 326 322 323 326 325 327 335 347 343 353 362 358 365 360 356 355 355 363 352 348 348 349 348 347 345 344
310 311 312 312 312 311 309 312 315 309 307 308 321 322 322 315 319 324 322 326 324 323 324 325 334 343 345 348 362 363 367 365 364 356 358 358 363 356 348 348 348 347 346 345 345
310 310 311 312 312 312 310 313 317 316 316 320 321 322 321 322 322 320 319 321 321 322 323 324 337 344 345 348 368 362 364 364 367 361 358 356 355 356 352 351 346 347 346 346 344
310 310 311 312 312 312 316 321 326 329 325 324 322 321 321 323 323 321 320 319 320 322 324 323 335 345 344 345 351 355 357 360 363 357 356 358 355 357 353 350 353 347 346 346 343
310 310 311 312 312 312 311 323 321 321 323 322 320 320 321 322 325 323 321 322 321 321 324 325 331 337 343 341 341 349 357 357 361 356 353 358 358 356 354 349 349 352 347 346 345
311 311 311 312 312 312 320 320 320 321 325 321 321 320 320 321 324 324 322 322 322 320 323 325 326 330 340 342 339 342 356 353 355 359 353 357 360 359 355 348 349 353 349 345 346
310 311 311 312 314 320 321 321 320 321 327 324 323 323 322 322 323 324 323 322 322 321 323 325 327 328 342 343 338 341 351 355 359 360 372 357 366 360 355 353 352 354 349 346 346
310 311 312 312 318 321 321 321 320 322 329 323 323 323 324 324 324 324 323 323 323 321 322 324 325 328 336 338 339 339 338 358 360 358 358 360 357 359 354 355 352 356 350 347 347
310 311 313 316 316 319 321 321 322 326 327 324 323 323 323 323 324 323 323 324 324 323 322 324 326 327 332 333 337 338 336 338 351 354 362 353 352 358 355 355 352 351 352 350 349
311 312 313 318 323 321 320 323 330 325 322 323 323 322 323 324 325 324 323 324 326 325 324 324 328 329 330 331 335 339 338 343 346 363 353 349 350 350 350 349 351 352 354 350 347
312 314 318 316 320 320 322 328 328 321 323 322 322 322 322 323 324 325 325 326 325 326 326 323 326 329 328 331 334 338 338 342 348 347 348 350 351 350 345 344 344 350 352 353 350
315 319 321 321 319 321 326 331 325 323 322 322 324 323 323 322 324 325 326 326 326 327 327 325 325 327 328 329 331 333 340 338 341 341 349 346 353 352 345 345 349 352 351 353 352
319 322 323 322 322 323 328 320 324 322 322 323 324 328 326 323 321 324 326 326 326 326 327 329 328 327 326 326 327 328 333 340 339 345 348 347 347 347 355 354 352 353 354 354 353
320 324 324 322 323 326 327 324 321 320 319 321 323 324 327 326 323 324 327 325 327 329 326 328 328 328 326 326 327 327 329 334 336 337 340 348 349 347 354 355 356 355 355 353 354
324 324 323 322 326 325 324 320 313 318 318 319 321 323 326 329 325 324 328 327 324 326 327 327 328 329 327 326 325 327 326 329 333 339 336 337 356 347 352 354 356 358 357 358 358
327 327 323 322 327 324 323 319 318 319 318 318 322 322 325 326 328 326 327 325 324 324 328 327 327 330 330 326 325 325 327 326 328 329 333 335 348 348 354 354 354 355 353 354 353
327 325 323 323 325 322 321 321 320 319 318 317 321 322 323 325 325 327 325 324 324 324 331 327 327 328 332 330 328 326 327 327 327 329 328 334 352 353 354 356 354 353 350 348 348
326 325 323 323 321 320 320 320 318 319 319 319 322 322 323 326 326 326 325 324 324 327 327 326 329 329 329 331 330 327 325 327 328 330 331 330 338 350 353 353 353 350 348 347 348
329 326 322 323 321 320 317 322 319 317 318 320 320 322 322 325 328 328 325 326 327 325 327 329 332 332 330 330 328 328 328 328 327 327 328 330 340 347 350 352 352 350 350 350 348
325 325 328 319 321 321 322 320 319 316 318 320 321 322 322 324 323 324 323 324 326 325 327 329 334 335 335 329 330 331 331 330 329 328 329 333 342 341 348 350 352 350 347 347 346

GFSSW_925_thetae_102.txt.gz
Theta_e
317 316 316 315 316 315 316 316 316 314 314 312 308 307 307 307 308 317 322 319 319 316 319 327 335 340 344 348 350 354 363 365 363 354 356 346 346 347 347 349 348 348 348 347 345
317 317 317 317 316 315 314 314 315 315 314 313 308 307 307 307 317 321 321 321 315 313 325 330 332 342 348 352 355 362 366 362 354 353 353 352 350 352 353 352 351 348 347 345 345
316 315 314 315 316 314 313 313 313 313 312 311 308 307 307 307 325 326 323 320 317 310 322 329 331 347 351 353 354 358 366 360 359 357 351 355 353 352 353 355 350 349 347 345 344
314 314 314 312 313 314 314 313 313 312 312 311 308 307 306 317 330 326 320 319 314 312 323 329 331 346 352 357 354 357 356 359 357 357 352 355 353 352 352 350 347 348 346 344 345
312 312 312 311 312 311 311 311 312 311 311 310 308 306 315 326 324 326 321 318 314 316 326 331 330 338 352 355 355 357 356 356 356 355 353 354 356 355 353 349 347 347 347 344 344
311 312 312 311 310 309 308 308 309 309 309 307 307 306 320 323 322 328 325 323 315 319 326 330 329 332 346 351 357 356 356 356 355 356 355 355 350 352 352 348 347 348 347 344 344
311 311 312 312 311 310 308 307 307 308 308 308 308 316 320 323 320 324 324 317 316 320 327 328 327 329 335 348 353 353 359 358 360 360 357 351 352 354 346 347 348 347 346 345 343
310 310 311 312 312 311 309 310 312 315 307 307 308 319 323 319 320 325 325 322 318 321 327 327 326 327 332 346 350 358 359 367 361 360 353 354 363 353 346 348 348 347 346 346 344
310 310 310 311 312 312 311 311 315 314 307 308 320 321 325 317 317 323 325 325 324 322 325 327 327 328 334 348 357 363 369 366 364 358 358 358 363 356 347 347 347 347 346 346 345
310 310 310 311 312 312 312 312 315 316 320 320 321 324 323 322 320 325 323 325 325 324 326 326 328 333 342 348 362 362 366 364 366 363 358 360 358 354 351 348 347 347 346 345 344
311 311 310 311 312 313 312 320 327 328 326 326 324 322 323 323 323 322 321 323 323 323 324 324 326 337 345 346 349 351 364 365 355 354 358 359 358 355 355 353 352 347 345 345 345
310 311 311 311 312 313 312 322 322 321 324 326 321 319 321 323 324 324 321 321 321 321 323 325 324 330 339 345 356 355 356 360 350 346 357 358 358 354 354 353 350 352 347 346 343
309 310 311 311 312 314 318 321 321 322 326 324 321 320 320 320 323 324 323 322 322 321 322 324 326 327 334 341 347 352 354 353 351 346 349 357 361 360 355 352 349 348 349 350 345
309 309 311 312 315 321 323 322 322 323 328 325 323 323 321 321 322 325 323 323 323 322 321 322 326 327 330 336 345 359 350 350 352 349 357 357 366 360 353 352 349 349 348 350 347
308 309 311 312 316 320 323 322 322 323 335 324 324 323 324 322 324 324 324 323 323 322 322 322 324 326 327 333 343 344 349 351 351 350 354 359 360 358 357 355 353 349 348 349 348
309 310 312 316 315 318 321 323 323 328 332 324 323 324 323 323 325 325 325 324 325 324 322 322 324 325 326 332 337 338 346 350 350 353 364 357 358 365 362 358 355 348 349 351 349
309 311 312 315 325 322 322 323 330 333 324 325 324 323 323 324 324 324 324 324 325 326 326 323 323 327 327 328 332 340 342 355 363 362 363 358 356 363 355 353 352 350 351 350 350
309 312 315 316 320 322 323 327 334 324 324 322 322 323 321 326 325 325 324 324 324 326 326 324 323 327 328 329 331 337 342 342 357 359 363 358 358 359 351 348 347 348 348 350 349
311 319 318 321 319 320 326 332 333 323 322 322 323 327 325 323 323 326 325 325 325 325 328 327 326 325 327 328 330 334 336 338 341 345 352 358 356 352 345 346 348 348 350 349 347
316 322 323 322 323 323 327 329 326 322 321 321 322 326 327 328 324 325 326 326 325 326 326 328 331 328 328 328 329 331 333 335 345 347 353 352 357 357 351 350 349 351 350 345 345
319 326 324 322 322 325 329 328 323 321 319 319 322 323 324 330 327 326 326 327 327 327 328 327 330 331 328 328 327 327 329 331 334 342 346 350 356 353 353 349 350 352 352 351 355
324 325 325 322 324 326 327 325 313 318 319 319 320 321 323 327 327 329 330 328 326 327 329 329 329 331 330 328 327 326 327 329 333 338 338 340 351 349 350 353 351 355 353 359 353
327 327 326 322 325 328 326 321 318 319 318 318 319 323 322 327 327 329 329 327 326 325 328 328 330 330 331 330 327 326 327 327 327 330 338 337 357 350 342 356 358 361 361 359 362
326 330 326 324 324 327 326 322 320 321 319 318 318 322 322 325 327 328 332 326 325 324 335 326 328 330 330 333 332 327 326 326 326 328 328 330 349 358 356 359 356 358 358 356 357
325 328 326 323 323 323 321 322 320 319 320 319 320 322 323 327 329 330 327 327 325 325 325 326 329 330 328 329 331 331 326 326 328 327 329 333 346 348 351 356 355 353 353 353 352
327 330 329 324 323 321 317 319 320 319 319 320 320 321 322 322 330 330 328 328 329 328 327 327 330 333 334 331 332 331 331 326 326 327 328 336 351 347 348 351 354 351 349 350 350
326 327 329 324 322 321 322 322 320 319 319 318 320 321 323 325 324 325 324 324 328 328 328 330 334 337 340 337 334 332 333 332 327 328 329 349 349 340 339 342 353 352 350 351 348

GFSSW_925_thetae_105.txt.gz
Theta_e
317 316 316 316 315 315 315 314 314 314 314 312 309 306 306 307 307 315 320 317 318 316 315 328 325 330 334 338 350 354 355 362 362 351 346 351 354 351 346 347 349 348 346 346 346
315 314 314 313 313 315 314 314 313 313 313 312 310 307 307 307 311 318 316 321 319 318 315 329 328 335 340 350 355 359 362 358 355 355 353 347 352 352 352 350 351 349 345 346 346
315 315 313 313 313 311 312 313 313 313 312 312 310 308 307 307 321 325 325 319 320 317 313 326 329 334 346 353 356 359 359 356 350 349 355 350 352 351 351 352 351 350 345 345 341
312 312 311 311 310 310 309 309 311 311 311 311 310 308 306 313 330 325 322 322 319 318 312 320 326 329 352 356 355 359 356 354 353 356 357 354 352 352 352 351 347 346 344 344 340
311 311 312 311 311 310 308 308 309 310 310 310 308 307 312 322 322 323 320 319 318 312 314 322 329 330 350 356 354 359 358 355 353 350 354 351 354 353 353 348 345 344 343 342 340
310 310 311 312 311 311 309 307 307 307 307 307 307 307 320 319 327 326 327 323 318 311 319 324 330 328 335 350 354 356 356 360 354 359 358 355 354 350 350 347 347 345 342 341 341
310 310 310 311 312 311 311 309 310 312 310 307 308 316 318 318 321 326 325 320 317 314 319 324 329 327 328 334 352 356 361 360 360 359 361 353 356 354 349 348 348 346 344 343 340
310 310 310 310 311 312 312 310 312 315 311 307 308 319 321 320 320 320 323 320 316 316 319 324 327 325 325 337 349 356 359 365 362 360 358 356 360 353 348 348 348 346 345 344 341
310 310 310 310 311 312 312 312 311 315 311 307 319 318 323 320 317 319 323 324 318 317 319 324 326 323 325 328 342 361 364 363 365 360 360 357 359 354 348 347 347 345 344 343 341
310 310 310 310 311 312 312 314 319 315 321 319 321 322 324 323 321 318 321 325 323 321 321 322 324 325 325 328 350 360 361 361 362 354 352 360 359 356 354 347 346 346 344 344 341
309 310 310 310 311 312 313 316 323 325 323 327 325 323 322 323 323 324 324 323 324 323 322 324 323 324 327 333 339 356 360 356 356 349 350 359 359 357 354 353 352 346 344 343 340
308 309 309 310 311 312 312 317 322 321 321 323 326 324 319 320 323 323 322 321 323 321 321 321 321 322 325 342 351 352 353 356 351 347 346 350 360 355 353 353 350 350 350 345 340
308 308 309 310 312 313 314 318 321 322 322 325 325 320 318 319 319 323 320 319 319 319 319 319 322 323 324 348 348 353 355 355 354 349 345 350 361 357 353 352 350 349 347 348 346
308 308 309 310 316 318 321 323 322 322 324 327 321 321 320 319 319 321 322 321 321 319 319 318 321 323 324 344 346 355 351 350 350 350 355 351 366 360 356 353 351 349 348 348 347
308 308 309 310 311 315 320 322 323 323 332 323 323 322 323 320 322 321 323 322 322 322 321 318 319 320 323 327 347 354 349 348 346 349 354 356 363 360 353 354 351 350 347 347 348
308 308 309 314 318 317 321 322 322 326 333 324 323 323 322 321 322 324 324 322 322 322 323 320 320 320 323 328 344 347 349 349 349 352 357 355 358 362 355 350 348 348 347 347 349
308 308 309 310 319 321 321 321 327 333 329 325 322 322 322 323 323 324 324 324 322 324 323 324 321 320 323 335 346 348 351 358 356 352 354 351 356 355 353 352 347 348 346 347 349
308 309 311 312 314 319 320 324 334 334 328 321 321 322 322 325 325 324 324 322 322 322 322 324 322 321 326 326 342 350 343 348 356 361 359 355 362 357 349 349 349 347 345 348 348
309 315 320 315 316 316 321 330 334 329 321 320 320 324 327 326 326 325 325 322 321 321 322 325 326 326 325 326 326 332 338 337 347 349 355 358 354 350 350 350 349 348 348 347 347
313 318 321 323 320 321 325 326 328 322 319 317 319 321 328 327 328 326 327 327 326 324 321 322 326 327 328 324 326 327 331 332 341 355 357 359 358 360 348 350 349 347 346 346 344
318 323 324 324 323 323 325 327 329 320 318 318 318 320 325 329 327 330 330 328 326 325 326 327 326 326 328 326 326 325 328 329 337 339 349 359 357 349 349 347 347 346 345 344 344
324 326 324 323 323 323 324 326 324 319 319 318 318 318 321 327 326 331 330 330 327 325 328 326 326 327 328 328 326 325 324 324 327 334 338 338 361 351 350 348 345 347 348 346 343
324 326 326 325 323 322 327 326 321 318 319 317 317 317 321 327 330 331 329 327 327 326 326 324 327 328 328 327 328 324 324 323 322 322 328 337 355 346 348 347 346 354 350 347 343
324 329 328 326 325 322 326 327 324 320 320 319 319 318 320 326 326 331 329 327 326 325 330 324 324 326 328 329 328 332 326 324 323 322 325 326 353 349 343 338 355 354 354 354 347
324 327 328 328 323 321 324 323 322 319 320 318 320 321 323 326 329 329 326 326 327 327 325 323 325 326 328 331 328 329 330 326 323 324 328 348 352 350 350 354 353 351 352 352 353
324 328 329 330 328 323 319 319 321 320 319 319 320 321 323 327 329 329 329 329 330 327 327 324 327 335 335 336 336 335 331 332 329 324 344 355 353 346 346 345 350 349 349 350 349
326 327 330 330 329 323 321 323 322 320 318 319 319 321 324 326 325 324 325 326 328 329 327 329 333 334 338 334 336 338 334 334 338 338 337 347 347 340 341 341 345 349 347 349 348

GFSSW_925_thetae_108.txt.gz
Theta_e
315 314 314 314 314 313 314 315 314 313 313 313 312 309 307 307 307 310 316 314 315 314 315 322 323 324 327 332 352 351 356 362 360 347 346 352 354 348 348 351 346 346 345 345 347
313 313 312 311 311 312 312 313 312 312 312 311 311 309 307 307 312 316 316 316 316 319 316 323 326 326 333 339 354 358 357 356 354 354 355 354 354 348 351 351 349 345 346 346 347
311 311 311 311 310 309 309 309 310 311 311 310 310 308 307 307 320 321 325 317 319 319 317 316 325 327 334 349 356 356 359 354 351 350 349 355 352 350 350 353 347 347 348 346 346
310 311 311 311 311 310 309 308 308 309 310 310 310 307 306 314 328 326 321 318 320 318 313 315 320 324 328 353 355 359 355 354 352 351 355 357 354 352 353 350 344 343 345 346 344
309 309 310 311 311 311 310 308 307 307 307 308 307 307 312 318 320 320 321 321 320 315 314 314 322 327 330 351 356 358 353 354 353 352 352 353 356 352 352 348 343 344 344 344 344
310 310 310 310 311 311 311 310 309 309 310 308 307 308 319 316 322 324 321 319 317 314 312 314 324 328 328 345 355 357 357 355 353 352 353 357 357 350 351 346 344 344 343 341 338
310 310 310 310 310 311 311 312 310 313 314 308 307 315 318 313 326 325 325 325 319 314 316 316 319 324 324 325 348 356 360 357 354 357 356 356 358 353 347 345 345 344 341 340 341
310 310 310 310 310 311 312 312 311 311 315 308 307 318 315 313 320 318 325 322 316 315 311 318 322 321 322 323 331 359 357 363 357 355 349 359 361 352 346 346 346 343 342 342 341
309 309 310 310 310 311 312 312 313 313 315 308 320 318 321 323 319 320 319 320 317 315 315 317 319 321 322 325 332 359 359 360 367 352 358 358 359 352 347 347 346 345 342 342 341
308 308 309 309 310 311 312 313 315 320 320 320 320 319 319 324 320 318 318 319 316 315 316 316 319 320 320 323 332 353 358 357 356 352 354 352 358 355 352 347 346 344 343 343 343
308 308 308 309 310 311 312 313 317 319 322 323 322 322 322 321 322 320 321 320 322 319 319 320 321 323 323 322 327 354 356 357 353 349 352 352 352 355 353 350 349 343 341 342 343
308 308 308 308 310 311 311 313 316 319 318 320 324 323 324 323 320 321 323 321 322 321 320 319 321 321 322 325 334 353 355 356 350 348 349 350 351 349 353 352 350 349 343 342 342
307 307 308 309 310 315 315 318 321 319 317 321 322 324 323 316 318 317 319 317 318 320 318 318 319 321 322 325 351 351 355 353 353 348 347 348 352 350 354 352 350 348 347 347 340
309 307 308 308 314 315 313 320 319 319 319 323 322 318 317 316 318 317 320 319 319 317 316 315 317 319 320 327 347 353 349 350 351 350 355 348 362 360 356 354 351 351 348 347 345
312 308 307 308 312 313 317 319 319 318 328 325 321 322 318 317 319 320 321 320 320 320 319 318 318 317 319 321 346 352 347 347 348 349 352 353 356 359 355 356 353 349 347 347 346
314 309 308 310 310 315 318 318 319 322 331 323 320 320 321 319 319 321 321 320 320 321 320 320 320 317 317 337 347 344 346 347 347 348 353 352 355 358 357 355 352 348 348 347 345
314 309 308 308 311 317 315 317 323 328 328 323 320 321 319 319 321 322 322 322 321 322 320 320 322 325 344 348 345 345 345 355 357 354 354 352 355 354 352 349 348 347 348 347 347
312 308 311 313 312 312 317 320 330 331 330 321 316 318 321 323 324 323 321 322 320 319 319 320 322 320 330 345 348 346 339 347 354 356 358 353 359 356 348 345 345 343 345 347 348
309 311 314 315 315 314 315 324 328 329 318 315 314 319 322 322 325 323 323 319 320 318 320 321 323 322 323 335 343 345 341 336 345 346 354 356 354 351 346 350 347 346 345 347 348
319 316 317 317 318 318 317 322 325 325 316 314 316 318 325 323 325 325 327 327 326 324 319 318 320 320 325 324 333 337 334 336 335 351 358 354 352 354 346 348 350 350 346 347 347
319 314 320 319 320 314 319 319 323 323 317 316 316 315 321 326 327 328 328 328 327 326 323 321 319 323 325 325 322 322 327 326 332 340 352 358 356 343 343 343 349 348 347 346 345
316 321 321 322 317 314 317 320 322 322 314 315 315 314 318 324 326 329 329 329 326 325 323 323 320 325 325 323 322 321 321 322 324 328 337 343 353 344 344 342 345 345 344 343 343
314 318 322 322 317 315 315 320 321 323 317 315 316 315 322 325 326 329 328 327 325 326 323 321 320 325 326 324 324 325 324 321 317 319 330 339 350 343 346 343 342 342 346 344 343
315 320 319 317 315 317 317 318 323 318 318 316 317 317 321 323 324 329 327 326 325 326 337 322 318 325 326 325 324 327 327 326 318 319 320 326 343 348 339 353 353 350 349 347 344
315 318 321 326 323 324 319 319 321 319 317 315 318 320 319 326 326 327 326 325 326 328 326 321 322 323 325 334 334 333 334 334 331 324 323 327 345 348 344 354 353 353 353 351 345
316 320 323 325 325 324 319 319 318 316 316 315 317 324 323 324 323 322 326 326 326 322 325 321 326 331 335 332 332 335 334 339 340 339 353 352 354 348 351 349 351 352 353 353 348
320 321 323 325 327 327 318 318 319 315 317 317 318 318 322 325 322 319 320 321 324 325 322 328 328 330 335 331 334 338 335 337 339 338 340 350 347 343 346 350 347 349 351 351 350

GFSSW_925_thetae_111.txt.gz
Theta_e
313 313 313 313 313 314 316 314 314 315 313 311 310 310 307 307 307 310 312 314 313 314 315 318 323 322 325 329 351 349 356 360 359 349 354 350 352 350 349 349 348 346 346 346 346
311 311 312 312 313 313 313 313 313 314 313 311 310 309 307 307 311 316 316 315 316 315 316 320 324 325 330 333 355 356 356 357 355 354 354 353 350 351 350 348 348 347 345 346 346
309 310 310 311 311 311 311 310 309 310 309 310 310 309 307 307 319 317 324 317 315 319 318 317 322 324 331 343 356 354 360 353 352 350 349 351 353 350 349 351 347 349 348 346 346
309 309 309 310 310 311 311 310 307 306 307 308 309 307 307 314 324 325 321 318 318 318 316 315 319 323 326 338 355 360 355 354 349 349 350 354 354 351 349 349 345 346 346 346 345
310 310 310 310 310 311 311 311 310 309 309 308 307 307 311 314 317 319 321 317 319 316 313 313 320 325 328 333 356 357 356 353 352 353 352 352 355 354 350 345 346 346 346 346 345
310 310 310 310 310 310 311 311 311 312 313 309 307 308 318 310 316 324 320 319 319 317 314 313 319 325 327 327 354 355 354 355 354 353 352 356 355 353 351 343 346 347 346 344 344
309 309 309 309 310 310 311 311 312 310 314 310 307 314 316 309 324 322 321 319 318 316 311 312 317 322 323 325 338 356 360 356 355 354 356 355 357 354 349 344 345 346 345 344 344
308 308 308 309 309 310 311 311 312 312 313 309 308 317 315 312 320 320 320 326 320 317 312 315 317 321 322 322 324 359 357 361 356 356 353 356 363 353 348 345 345 346 343 343 341
308 308 308 308 309 310 311 312 312 314 313 310 320 318 318 321 321 320 319 323 318 316 314 314 317 318 321 323 326 350 358 359 360 353 354 357 361 353 346 345 346 346 340 342 345
307 307 308 308 308 310 311 312 316 319 318 319 319 319 318 321 321 317 318 321 316 313 314 315 315 318 318 319 327 346 358 354 357 355 354 354 357 352 348 347 346 345 341 344 346
308 307 307 307 308 310 311 312 312 314 323 320 319 320 321 322 319 318 317 315 319 317 318 318 318 319 321 321 327 353 356 356 352 351 351 352 352 351 351 350 345 342 342 342 343
311 308 308 307 308 310 314 311 315 317 316 318 321 321 322 323 323 318 320 321 320 321 318 318 320 319 322 323 331 353 354 353 350 349 349 351 351 347 348 352 350 343 342 342 341
317 312 308 307 309 314 313 316 317 317 316 318 320 321 322 322 322 316 319 318 319 320 318 318 319 320 321 327 352 350 352 351 352 348 347 349 353 353 350 352 350 348 343 342 340
319 315 310 307 313 312 313 316 316 317 318 321 323 321 318 315 317 317 318 318 318 318 317 316 316 319 319 321 346 350 350 350 350 350 354 349 359 355 352 353 352 351 348 342 340
320 315 310 307 307 313 315 316 317 317 325 325 320 319 315 317 318 319 318 319 318 319 318 318 319 319 317 318 343 348 347 348 348 347 351 354 354 356 354 354 352 351 347 344 341
319 313 310 309 308 311 315 315 318 322 331 326 320 320 321 318 319 319 320 319 319 319 318 318 319 319 319 336 340 343 345 345 344 346 354 353 354 354 357 352 349 351 349 347 344
317 312 309 308 309 314 311 316 322 327 326 318 318 318 318 319 320 320 320 320 319 320 320 320 321 342 341 345 343 342 339 342 348 349 355 349 353 349 349 352 350 351 350 347 346
313 310 311 309 310 312 316 319 329 329 329 322 315 319 321 323 322 321 321 320 320 319 319 321 321 342 341 343 345 343 336 339 347 352 353 352 357 353 347 347 349 347 347 347 348
310 317 312 312 314 314 315 324 327 328 324 314 314 319 321 321 324 322 323 323 320 319 321 319 321 320 338 341 341 345 341 334 343 343 349 354 353 348 345 344 345 346 345 348 347
312 317 315 318 315 317 316 321 322 323 319 314 315 316 322 323 325 324 325 326 326 324 318 321 321 319 321 337 340 337 334 340 337 351 357 351 353 352 350 349 350 346 345 346 347
317 315 316 318 319 313 318 318 321 321 320 315 313 314 316 322 326 326 328 327 326 325 321 320 316 319 323 324 333 325 331 326 331 338 349 352 351 344 341 341 350 346 344 345 347
312 316 317 319 317 310 317 317 319 322 315 314 312 314 320 324 327 328 327 327 325 324 323 321 318 323 323 322 321 321 324 324 328 328 339 342 345 345 341 340 345 348 344 343 345
308 314 319 316 320 316 313 318 320 320 318 315 316 315 322 324 325 327 326 325 324 325 324 321 319 323 325 325 324 324 326 320 315 317 331 337 338 345 343 341 343 345 344 345 344
312 318 316 313 312 316 317 318 320 320 319 314 315 315 321 323 323 325 326 325 323 325 337 323 317 323 326 327 325 332 333 331 315 317 318 326 326 344 345 350 341 343 342 343 346
311 314 318 324 323 325 322 323 326 323 315 314 320 321 319 325 325 324 325 322 323 325 324 322 322 321 322 332 332 335 338 339 335 336 319 321 322 341 349 351 348 346 345 344 346
309 319 321 323 323 326 321 322 323 322 314 315 321 323 320 322 319 319 323 323 324 321 321 321 328 329 332 331 333 334 334 338 338 341 339 347 349 348 350 350 351 350 349 345 346
314 316 320 322 325 328 326 324 322 315 316 314 317 321 322 321 320 317 317 317 322 324 321 326 327 328 332 329 330 332 333 335 337 341 342 345 345 342 343 346 345 348 348 348 345

GFSSW_925_thetae_114.txt.gz
Theta_e
311 312 313 314 315 315 314 313 313 313 313 312 311 309 308 307 307 309 310 314 313 315 317 324 323 321 325 329 351 349 353 358 359 345 356 351 353 349 346 347 347 346 345 345 346
309 309 309 310 312 311 311 311 311 310 310 310 309 309 307 307 310 314 315 314 313 314 315 323 321 325 330 333 354 355 356 357 355 352 353 353 351 351 350 349 348 348 346 346 347
309 309 309 309 310 311 311 310 307 307 307 308 309 308 307 308 317 315 322 315 315 316 316 320 322 326 332 339 349 354 358 353 351 351 349 351 352 349 349 349 347 349 348 347 346
310 309 309 309 310 310 311 311 310 309 308 307 307 306 307 314 321 322 321 320 315 319 314 314 319 325 326 331 352 357 355 353 350 348 350 353 354 350 347 348 344 346 346 347 346
309 309 309 309 309 310 310 311 311 311 312 309 307 307 311 310 312 320 320 315 317 317 313 313 322 324 328 329 355 355 355 354 353 352 351 351 354 353 347 345 345 346 346 346 345
309 308 308 308 309 309 310 310 311 311 312 313 307 308 315 309 314 322 320 317 318 315 312 314 319 323 326 326 348 354 355 355 354 353 352 355 354 352 349 346 347 347 346 345 345
308 308 308 308 308 309 310 310 311 312 311 313 307 313 313 307 323 321 320 319 319 317 311 314 318 323 323 324 329 353 358 354 356 354 356 353 355 355 349 347 348 347 346 345 344
307 307 307 307 308 309 309 311 311 311 312 312 309 317 316 311 314 319 320 323 324 317 314 312 317 320 322 320 330 358 355 359 355 357 354 353 359 356 350 348 349 347 346 345 343
307 307 307 307 307 308 309 311 313 313 313 311 319 318 317 319 320 320 320 321 319 316 313 313 317 317 320 321 323 343 356 360 357 351 355 354 359 354 347 346 348 348 346 345 343
312 310 308 307 307 308 310 312 319 319 318 320 319 317 318 320 321 317 318 319 315 311 313 313 313 317 316 318 326 350 356 355 357 354 351 349 351 354 349 347 346 347 344 345 342
319 316 312 308 307 308 312 312 311 313 322 318 318 319 319 321 320 316 318 319 317 316 317 316 316 319 321 320 327 350 354 354 353 351 352 350 350 352 347 350 347 343 341 342 343
320 319 316 310 307 311 316 313 314 316 316 316 319 319 320 321 322 320 316 319 319 321 317 316 319 318 320 321 328 351 353 354 350 349 348 351 351 350 347 348 350 346 341 343 344
320 320 317 312 308 315 312 316 316 315 315 317 318 320 321 321 321 320 318 318 319 320 318 318 320 319 321 336 346 349 349 350 351 350 347 350 351 351 350 348 350 348 341 341 344
320 319 317 313 311 308 313 315 313 315 317 320 322 321 317 315 317 316 318 317 317 318 316 318 316 318 319 320 340 348 346 348 351 350 352 349 356 353 351 351 351 350 344 340 341
319 318 315 313 308 309 313 312 316 315 322 323 321 318 314 317 318 318 317 317 317 318 316 317 319 318 317 317 335 337 346 346 347 345 350 353 354 354 350 350 349 350 347 342 339
319 316 313 311 308 309 311 314 316 321 329 326 319 319 320 317 317 318 318 317 317 318 317 317 317 318 319 334 336 343 344 342 341 343 350 352 352 352 352 347 348 348 348 344 340
319 313 310 310 308 315 310 315 321 325 324 321 315 316 319 319 319 319 319 319 318 319 318 318 320 339 340 343 341 340 335 341 345 347 349 348 351 349 351 350 347 350 349 346 340
318 310 313 312 309 309 315 319 328 326 327 319 313 319 320 321 321 320 319 319 319 318 317 319 319 342 340 342 343 340 333 337 341 346 348 351 352 350 343 346 345 346 347 347 344
311 312 316 310 310 311 315 323 324 327 324 314 313 315 318 321 323 322 323 321 321 317 319 319 320 321 339 340 340 342 341 333 340 341 346 350 349 346 345 347 349 349 348 348 348
309 316 317 315 314 314 315 321 322 322 321 313 314 315 319 321 324 324 325 325 325 323 317 321 322 319 321 338 339 338 336 340 337 346 350 348 350 350 349 347 350 350 349 347 347
314 313 314 315 315 312 316 316 319 319 320 313 313 313 316 323 325 325 326 326 324 324 318 319 316 320 321 328 339 327 335 330 331 337 345 346 343 341 344 345 350 349 348 346 346
307 315 316 314 315 308 316 316 317 321 316 313 312 313 319 323 326 325 326 325 324 323 322 320 318 322 323 320 320 323 330 326 331 329 337 338 341 343 341 340 345 345 344 344 344
305 310 316 315 317 315 314 316 318 319 319 314 314 314 321 322 323 326 325 323 323 324 323 318 318 324 325 325 326 325 330 319 314 319 334 335 332 344 340 342 345 345 343 344 344
309 314 315 311 309 316 318 319 319 319 318 314 314 320 320 323 322 321 325 323 321 323 335 320 317 323 326 326 326 334 335 335 313 316 319 328 322 344 345 344 344 344 344 344 344
308 311 316 321 320 323 320 324 326 326 316 315 321 317 320 323 323 322 323 321 321 322 322 318 320 322 322 329 333 335 335 338 334 335 319 331 342 349 348 350 344 342 343 345 346
306 318 317 321 322 325 321 324 323 322 317 315 320 320 319 320 319 317 320 321 322 320 320 320 324 329 332 329 332 333 333 337 338 343 341 341 348 348 347 350 351 347 344 346 346
311 313 317 319 323 325 324 323 328 324 314 314 320 321 320 319 316 316 315 315 321 322 321 325 326 326 329 329 330 334 332 334 336 340 341 346 341 343 345 346 348 350 346 344 346

GFSSW_925_thetae_120.txt.gz
Theta_e
309 309 309 309 310 310 311 310 308 308 308 309 309 309 309 307 308 317 317 316 316 317 324 325 327 333 339 345 351 352 360 356 353 352 355 351 351 349 347 347 344 346 342 344 344
309 309 309 309 309 310 310 311 310 308 307 307 308 308 307 307 318 317 316 313 313 320 325 325 331 338 345 347 354 357 359 360 355 354 355 351 350 350 347 347 349 347 345 344 344
308 308 308 308 308 309 310 311 311 311 311 309 307 307 307 311 322 323 321 314 315 317 320 325 334 343 347 348 354 355 361 356 354 352 352 354 351 349 347 349 348 349 348 345 344
308 307 307 307 308 308 309 310 311 311 311 314 309 307 308 321 326 322 321 314 314 320 320 329 338 344 349 350 352 356 351 350 353 351 350 351 351 352 348 349 345 343 345 346 347
307 307 307 307 307 307 308 309 310 311 312 312 312 308 319 320 319 327 322 315 322 318 319 332 340 344 347 341 345 353 352 351 350 348 349 348 354 353 350 346 343 344 346 347 346
308 308 307 307 307 307 307 308 309 310 311 312 312 309 320 321 323 326 324 320 318 318 318 328 339 340 339 334 345 353 355 357 354 354 350 350 353 353 349 345 345 347 347 347 346
315 314 312 310 308 307 307 308 309 311 311 312 311 317 319 322 326 322 320 320 318 319 319 319 329 340 336 333 345 355 360 358 357 354 354 353 357 356 349 348 348 347 347 346 346
319 319 318 316 311 308 307 309 312 314 312 313 312 323 322 316 318 323 324 325 320 318 317 318 323 336 334 329 348 355 353 358 358 356 355 355 359 355 350 350 349 346 346 347 348
320 320 320 318 314 310 308 312 319 315 314 315 324 324 321 318 321 320 322 324 319 317 315 316 324 333 333 334 341 346 347 354 361 356 356 356 359 354 351 352 352 349 347 347 349
320 320 320 319 315 309 311 316 320 321 321 322 323 326 322 324 322 321 323 321 319 317 317 318 325 331 337 336 336 340 345 349 353 359 357 355 358 352 352 354 353 351 347 345 348
320 320 320 319 316 310 315 319 325 327 324 325 325 324 323 323 320 320 321 321 320 318 318 321 324 328 333 334 333 336 340 343 356 355 357 357 357 355 352 352 355 352 348 346 346
319 319 321 320 315 313 315 323 320 319 325 323 323 324 323 323 323 321 321 324 323 321 321 322 323 327 330 330 334 336 338 343 355 354 354 355 356 351 354 351 353 353 351 348 346
319 318 320 319 312 314 317 320 317 317 326 326 325 325 325 324 321 322 323 324 324 324 322 322 325 326 328 330 332 335 336 337 347 354 352 353 356 355 353 352 351 351 351 347 346
321 319 319 320 312 313 319 316 315 316 328 325 325 325 326 325 322 321 322 324 323 324 324 324 324 325 327 328 330 331 334 335 351 351 352 352 350 357 355 358 354 351 351 347 345
320 320 318 318 317 316 317 314 318 320 328 326 324 323 323 323 322 321 321 322 323 323 324 325 324 324 324 324 325 327 332 336 347 348 349 352 355 346 353 360 356 353 352 346 345
315 319 319 317 315 315 312 315 320 328 327 325 323 323 322 323 323 321 321 322 323 323 323 324 322 323 324 326 324 331 336 344 348 347 348 342 352 348 357 354 352 350 350 349 349
314 318 316 314 318 312 313 322 329 329 325 323 322 323 324 325 324 323 324 324 325 325 324 323 323 322 324 328 329 334 335 339 342 344 341 349 348 348 347 349 349 350 350 350 349
315 317 314 313 314 314 315 327 331 326 325 320 322 323 325 325 326 324 325 325 325 325 325 325 326 325 328 329 331 334 332 332 336 335 337 350 348 346 347 345 346 349 349 350 349
317 316 315 317 314 314 323 330 330 326 323 321 322 325 326 326 327 326 326 326 326 326 326 325 325 327 333 333 334 334 340 332 333 333 337 338 345 345 345 345 346 346 345 345 345
316 317 320 316 314 316 325 328 330 326 323 320 322 322 324 324 325 324 327 328 328 327 327 327 327 326 331 338 338 341 339 337 334 338 339 336 342 344 344 347 347 348 347 346 346
316 321 318 317 313 322 325 328 329 325 323 320 319 319 320 321 323 325 327 328 328 328 327 328 328 328 329 334 332 339 341 339 337 339 338 342 341 341 344 347 349 348 348 347 350
315 319 317 315 320 322 324 326 320 324 323 320 319 319 320 321 323 324 326 328 327 325 325 326 326 328 328 328 328 328 335 335 338 337 339 339 348 344 346 347 347 348 348 347 350
323 319 317 318 322 323 323 324 325 325 322 320 319 320 322 322 323 322 323 326 326 324 325 325 324 327 327 328 330 330 334 336 334 336 343 339 340 341 347 346 347 349 351 348 349
320 320 322 320 323 323 321 324 325 323 323 322 320 320 323 324 324 323 322 324 325 324 328 324 321 322 325 328 332 337 337 338 337 335 333 334 336 334 350 352 350 350 350 350 350
317 318 324 321 322 322 322 321 324 327 325 324 324 322 322 324 324 324 323 324 324 326 327 326 326 323 323 324 330 333 335 337 337 336 337 332 335 338 350 351 355 350 350 350 350
320 322 324 329 328 323 320 324 324 326 328 323 324 324 323 324 323 323 324 325 323 326 328 328 329 327 327 325 329 331 331 332 337 339 340 341 341 349 348 349 354 350 350 350 350
314 316 322 323 329 328 323 324 324 325 328 327 323 323 322 323 323 323 323 324 324 325 327 329 330 332 330 327 329 330 329 331 333 335 337 340 343 345 350 350 350 352 351 351 351

GFSSW_925_thetae_123.txt.gz
Theta_e
309 308 308 309 309 310 310 311 310 308 307 308 308 309 309 308 308 319 322 319 319 319 328 328 327 335 342 348 350 351 362 363 357 354 355 350 351 349 345 345 344 343 344 344 342
308 308 308 308 308 309 310 310 311 311 310 308 307 307 307 307 321 321 319 316 314 318 326 327 331 339 346 347 353 357 363 360 357 353 353 351 350 350 347 346 346 345 346 343 342
307 307 307 307 307 307 309 310 310 311 311 313 311 308 308 310 327 328 321 318 313 319 326 326 330 342 347 349 354 355 361 356 352 351 353 354 351 349 347 349 346 347 346 344 343
307 307 307 307 307 307 308 308 309 311 312 311 314 308 309 323 331 331 322 314 315 323 322 326 333 344 348 350 352 357 353 353 352 351 347 347 350 350 348 351 345 344 344 344 345
310 309 309 309 308 307 307 308 309 310 311 312 313 310 321 327 325 332 321 314 318 322 321 330 339 343 347 346 348 355 353 350 353 350 345 344 349 355 350 347 343 344 345 345 345
317 317 316 314 312 309 308 308 308 309 311 312 313 310 327 325 327 328 323 321 320 319 320 329 338 342 343 340 346 352 352 355 353 350 351 346 351 357 349 346 344 345 345 345 345
319 320 320 319 316 312 309 308 309 311 312 312 314 319 324 328 327 324 321 320 319 320 322 325 335 341 341 337 346 350 355 358 357 356 356 349 355 357 350 346 348 345 345 344 344
320 320 320 320 318 314 310 309 313 316 315 315 313 326 326 324 326 325 324 324 321 320 321 321 329 337 338 335 346 348 351 358 358 356 354 355 362 357 352 350 349 346 345 344 344
321 320 320 320 319 315 309 312 319 318 317 317 327 330 324 319 321 323 325 326 323 320 318 318 327 334 337 335 340 344 348 352 359 357 357 357 361 356 354 351 350 348 345 344 346
320 320 321 321 319 313 313 315 321 321 323 325 326 329 322 326 323 323 323 324 321 320 319 320 328 335 336 336 338 340 341 342 352 360 359 357 358 358 352 354 355 348 348 344 347
321 320 320 321 319 312 316 322 329 332 329 328 327 326 324 324 322 323 323 323 323 320 320 321 323 329 330 335 334 337 341 340 350 356 358 357 356 358 352 351 353 353 350 344 345
319 321 320 320 320 312 314 327 324 323 327 324 323 324 323 323 324 323 322 323 323 321 321 323 323 326 329 333 334 334 336 339 349 353 355 352 355 354 357 352 349 354 352 346 344
313 321 320 320 316 316 322 324 321 322 328 325 326 326 325 324 323 324 323 325 324 325 324 324 325 327 330 330 330 333 335 337 341 353 352 352 353 354 353 356 350 351 352 348 345
312 317 321 321 318 320 322 322 320 322 331 326 326 326 325 326 324 322 324 325 325 326 325 324 326 327 328 328 329 331 332 333 335 347 349 353 349 355 355 355 356 351 354 351 346
313 313 319 319 320 320 322 320 321 325 335 327 326 325 326 326 325 324 322 324 326 323 326 326 326 325 326 327 327 328 330 332 334 341 344 345 353 344 351 359 357 353 351 353 347
313 313 315 321 321 320 319 319 324 329 331 328 325 325 325 325 325 324 323 324 325 324 324 326 326 325 325 325 325 326 329 333 338 341 346 340 344 344 353 356 356 354 353 351 348
314 314 316 318 325 317 318 322 328 329 328 327 325 325 326 326 325 325 325 325 327 327 327 324 325 324 324 325 328 326 331 336 340 340 341 342 344 341 345 352 349 353 354 351 351
315 315 319 319 322 320 319 326 331 330 329 325 324 324 326 326 327 326 327 328 325 326 328 327 327 325 325 325 330 329 330 335 339 338 351 344 343 346 346 345 344 347 350 351 350
315 322 321 321 318 318 322 327 329 331 327 324 324 325 326 326 327 327 327 328 328 327 329 329 327 327 329 328 328 332 333 331 333 333 334 344 343 341 343 340 344 346 349 348 349
317 322 323 320 317 318 322 324 328 329 326 324 324 326 328 327 326 325 329 328 328 328 328 330 330 328 327 329 332 332 340 338 332 336 339 337 338 345 344 338 342 346 349 350 349
319 325 322 318 316 320 322 324 327 330 326 324 323 324 324 324 325 327 327 329 328 329 328 329 329 330 329 331 333 334 333 337 339 341 342 342 347 346 340 342 349 347 346 347 346
322 323 320 317 316 319 322 324 327 330 325 324 323 323 322 323 324 324 327 329 328 327 327 328 328 330 330 330 329 333 337 337 336 340 341 341 347 343 341 337 347 347 345 348 347
325 325 321 317 317 319 321 323 327 329 326 323 322 322 322 323 325 324 324 327 326 325 325 327 327 326 328 327 330 329 328 329 336 338 343 344 343 342 345 336 341 348 353 350 349
324 323 324 320 320 322 324 324 327 327 326 324 322 322 323 325 325 325 323 324 323 322 334 325 322 322 323 325 329 332 333 337 338 336 337 338 338 341 340 345 341 344 351 350 352
324 323 325 324 320 321 325 324 325 327 326 325 324 322 323 325 326 326 324 324 324 329 323 324 326 325 323 322 323 324 334 335 336 340 334 335 339 340 338 344 351 349 350 352 350
323 325 325 326 329 321 320 324 323 326 327 326 326 325 323 325 327 326 325 326 325 327 327 327 329 327 327 325 324 324 328 335 335 335 337 336 336 346 350 353 356 350 351 351 351
319 317 322 323 325 328 325 323 324 323 326 327 326 326 325 325 325 324 324 324 325 325 326 329 329 329 330 327 329 330 327 329 332 330 336 339 338 348 351 353 352 354 353 351 351